<?xml version="1.0" encoding="UTF-8"?>
<gpx version="1.1" creator="https://www.youtrack.es" xsi:schemaLocation="http://www.topografix.com/GPX/1/1 http://www.topografix.com/GPX/1/1/gpx.xsd http://www.garmin.com/xmlschemas/GpxExtensions/v3 http://www.garmin.com/xmlschemas/GpxExtensionsv3.xsd http://www.garmin.com/xmlschemas/TrackPointExtension/v1 http://www.garmin.com/xmlschemas/TrackPointExtensionv1.xsd" xmlns:gpxtpx="http://www.garmin.com/xmlschemas/TrackPointExtension/v1" xmlns:gpxx="http://www.garmin.com/xmlschemas/GpxExtensions/v3" xmlns:xsi="http://www.w3.org/2001/XMLSchema-instance">
  <metadata>
    <link href="https://www.youtrack.es">
      <text>YouTrack.es</text>
    </link>
    <time>2026-05-08T06:38:17Z</time>
  </metadata>
  <trk>
    <src>https://www.youtrack.es</src>
    <link href="https://www.youtrack.es/ruta/6546-serie-seria">
      <text>YouTrack.es</text>
    </link>
    <trkseg>
      <trkpt lat="37.1768150" lon="-3.6113920">
        <ele>663.8</ele>
        <time>2019-06-24T14:02:31Z</time>
      </trkpt>
      <trkpt lat="37.1768130" lon="-3.6114170">
        <ele>663.8</ele>
        <time>2019-06-24T14:02:51Z</time>
      </trkpt>
      <trkpt lat="37.1768120" lon="-3.6114430">
        <ele>663.8</ele>
        <time>2019-06-24T14:03:04Z</time>
      </trkpt>
      <trkpt lat="37.1768100" lon="-3.6114680">
        <ele>663.7</ele>
        <time>2019-06-24T14:03:05Z</time>
      </trkpt>
      <trkpt lat="37.1768080" lon="-3.6114930">
        <ele>663.7</ele>
        <time>2019-06-24T14:03:06Z</time>
      </trkpt>
      <trkpt lat="37.1767900" lon="-3.6116440">
        <ele>663.7</ele>
        <time>2019-06-24T14:03:07Z</time>
      </trkpt>
      <trkpt lat="37.1767790" lon="-3.6116950">
        <ele>663.7</ele>
        <time>2019-06-24T14:03:08Z</time>
      </trkpt>
      <trkpt lat="37.1767680" lon="-3.6117450">
        <ele>663.7</ele>
        <time>2019-06-24T14:03:09Z</time>
      </trkpt>
      <trkpt lat="37.1767220" lon="-3.6119370">
        <ele>663.2</ele>
        <time>2019-06-24T14:03:10Z</time>
      </trkpt>
      <trkpt lat="37.1767090" lon="-3.6119790">
        <ele>663.2</ele>
        <time>2019-06-24T14:03:11Z</time>
      </trkpt>
      <trkpt lat="37.1766970" lon="-3.6120210">
        <ele>663.2</ele>
        <time>2019-06-24T14:03:12Z</time>
      </trkpt>
      <trkpt lat="37.1766680" lon="-3.6122110">
        <ele>662.4</ele>
        <time>2019-06-24T14:03:13Z</time>
      </trkpt>
      <trkpt lat="37.1766760" lon="-3.6122760">
        <ele>662.3</ele>
        <time>2019-06-24T14:03:14Z</time>
      </trkpt>
      <trkpt lat="37.1766910" lon="-3.6124060">
        <ele>662.0</ele>
        <time>2019-06-24T14:03:15Z</time>
      </trkpt>
      <trkpt lat="37.1766980" lon="-3.6124530">
        <ele>661.9</ele>
        <time>2019-06-24T14:03:16Z</time>
      </trkpt>
      <trkpt lat="37.1767040" lon="-3.6125000">
        <ele>661.8</ele>
        <time>2019-06-24T14:03:17Z</time>
      </trkpt>
      <trkpt lat="37.1766940" lon="-3.6126540">
        <ele>661.5</ele>
        <time>2019-06-24T14:03:18Z</time>
      </trkpt>
      <trkpt lat="37.1766710" lon="-3.6127140">
        <ele>661.3</ele>
        <time>2019-06-24T14:03:19Z</time>
      </trkpt>
      <trkpt lat="37.1766480" lon="-3.6127730">
        <ele>661.1</ele>
        <time>2019-06-24T14:03:20Z</time>
      </trkpt>
      <trkpt lat="37.1765790" lon="-3.6129500">
        <ele>660.1</ele>
        <time>2019-06-24T14:03:21Z</time>
      </trkpt>
      <trkpt lat="37.1765340" lon="-3.6130410">
        <ele>659.4</ele>
        <time>2019-06-24T14:03:22Z</time>
      </trkpt>
      <trkpt lat="37.1764840" lon="-3.6131320">
        <ele>658.8</ele>
        <time>2019-06-24T14:03:23Z</time>
      </trkpt>
      <trkpt lat="37.1764300" lon="-3.6132080">
        <ele>658.4</ele>
        <time>2019-06-24T14:03:24Z</time>
      </trkpt>
      <trkpt lat="37.1763730" lon="-3.6132930">
        <ele>657.7</ele>
        <time>2019-06-24T14:03:25Z</time>
      </trkpt>
      <trkpt lat="37.1763190" lon="-3.6133800">
        <ele>657.1</ele>
        <time>2019-06-24T14:03:26Z</time>
      </trkpt>
      <trkpt lat="37.1762830" lon="-3.6134130">
        <ele>656.8</ele>
        <time>2019-06-24T14:03:27Z</time>
      </trkpt>
      <trkpt lat="37.1762460" lon="-3.6134470">
        <ele>656.6</ele>
        <time>2019-06-24T14:03:28Z</time>
      </trkpt>
      <trkpt lat="37.1762100" lon="-3.6134800">
        <ele>656.3</ele>
        <time>2019-06-24T14:03:29Z</time>
      </trkpt>
      <trkpt lat="37.1760630" lon="-3.6136360">
        <ele>655.7</ele>
        <time>2019-06-24T14:03:30Z</time>
      </trkpt>
      <trkpt lat="37.1760250" lon="-3.6136920">
        <ele>655.3</ele>
        <time>2019-06-24T14:03:31Z</time>
      </trkpt>
      <trkpt lat="37.1759500" lon="-3.6138050">
        <ele>655.0</ele>
        <time>2019-06-24T14:03:32Z</time>
      </trkpt>
      <trkpt lat="37.1759300" lon="-3.6138530">
        <ele>654.8</ele>
        <time>2019-06-24T14:03:33Z</time>
      </trkpt>
      <trkpt lat="37.1759100" lon="-3.6139000">
        <ele>654.6</ele>
        <time>2019-06-24T14:03:34Z</time>
      </trkpt>
      <trkpt lat="37.1758590" lon="-3.6141100">
        <ele>653.9</ele>
        <time>2019-06-24T14:03:35Z</time>
      </trkpt>
      <trkpt lat="37.1758370" lon="-3.6142140">
        <ele>653.3</ele>
        <time>2019-06-24T14:03:36Z</time>
      </trkpt>
      <trkpt lat="37.1758170" lon="-3.6142940">
        <ele>653.0</ele>
        <time>2019-06-24T14:03:37Z</time>
      </trkpt>
      <trkpt lat="37.1757970" lon="-3.6143740">
        <ele>652.7</ele>
        <time>2019-06-24T14:03:38Z</time>
      </trkpt>
      <trkpt lat="37.1757560" lon="-3.6145330">
        <ele>652.2</ele>
        <time>2019-06-24T14:03:39Z</time>
      </trkpt>
      <trkpt lat="37.1757180" lon="-3.6146020">
        <ele>651.9</ele>
        <time>2019-06-24T14:03:40Z</time>
      </trkpt>
      <trkpt lat="37.1756790" lon="-3.6146710">
        <ele>651.8</ele>
        <time>2019-06-24T14:03:41Z</time>
      </trkpt>
      <trkpt lat="37.1756020" lon="-3.6148090">
        <ele>651.6</ele>
        <time>2019-06-24T14:03:42Z</time>
      </trkpt>
      <trkpt lat="37.1755420" lon="-3.6148960">
        <ele>651.4</ele>
        <time>2019-06-24T14:03:43Z</time>
      </trkpt>
      <trkpt lat="37.1754950" lon="-3.6149550">
        <ele>651.4</ele>
        <time>2019-06-24T14:03:44Z</time>
      </trkpt>
      <trkpt lat="37.1754480" lon="-3.6150140">
        <ele>651.3</ele>
        <time>2019-06-24T14:03:45Z</time>
      </trkpt>
      <trkpt lat="37.1753540" lon="-3.6151310">
        <ele>651.1</ele>
        <time>2019-06-24T14:03:46Z</time>
      </trkpt>
      <trkpt lat="37.1752900" lon="-3.6152010">
        <ele>650.9</ele>
        <time>2019-06-24T14:03:47Z</time>
      </trkpt>
      <trkpt lat="37.1752590" lon="-3.6152380">
        <ele>650.8</ele>
        <time>2019-06-24T14:03:48Z</time>
      </trkpt>
      <trkpt lat="37.1752270" lon="-3.6152740">
        <ele>650.7</ele>
        <time>2019-06-24T14:03:49Z</time>
      </trkpt>
      <trkpt lat="37.1751010" lon="-3.6154220">
        <ele>650.3</ele>
        <time>2019-06-24T14:03:50Z</time>
      </trkpt>
      <trkpt lat="37.1750380" lon="-3.6154950">
        <ele>650.0</ele>
        <time>2019-06-24T14:03:51Z</time>
      </trkpt>
      <trkpt lat="37.1749750" lon="-3.6155690">
        <ele>649.7</ele>
        <time>2019-06-24T14:03:52Z</time>
      </trkpt>
      <trkpt lat="37.1749140" lon="-3.6156480">
        <ele>649.4</ele>
        <time>2019-06-24T14:03:53Z</time>
      </trkpt>
      <trkpt lat="37.1748470" lon="-3.6157150">
        <ele>649.0</ele>
        <time>2019-06-24T14:03:54Z</time>
      </trkpt>
      <trkpt lat="37.1747880" lon="-3.6158020">
        <ele>648.6</ele>
        <time>2019-06-24T14:03:55Z</time>
      </trkpt>
      <trkpt lat="37.1747450" lon="-3.6158700">
        <ele>648.3</ele>
        <time>2019-06-24T14:03:56Z</time>
      </trkpt>
      <trkpt lat="37.1747020" lon="-3.6159380">
        <ele>647.8</ele>
        <time>2019-06-24T14:03:57Z</time>
      </trkpt>
      <trkpt lat="37.1746150" lon="-3.6160730">
        <ele>647.2</ele>
        <time>2019-06-24T14:03:58Z</time>
      </trkpt>
      <trkpt lat="37.1745540" lon="-3.6161580">
        <ele>646.9</ele>
        <time>2019-06-24T14:03:59Z</time>
      </trkpt>
      <trkpt lat="37.1744920" lon="-3.6162380">
        <ele>646.7</ele>
        <time>2019-06-24T14:04:00Z</time>
      </trkpt>
      <trkpt lat="37.1744300" lon="-3.6163220">
        <ele>646.5</ele>
        <time>2019-06-24T14:04:01Z</time>
      </trkpt>
      <trkpt lat="37.1743690" lon="-3.6164110">
        <ele>646.4</ele>
        <time>2019-06-24T14:04:02Z</time>
      </trkpt>
      <trkpt lat="37.1743090" lon="-3.6165000">
        <ele>646.3</ele>
        <time>2019-06-24T14:04:03Z</time>
      </trkpt>
      <trkpt lat="37.1742500" lon="-3.6165850">
        <ele>646.3</ele>
        <time>2019-06-24T14:04:04Z</time>
      </trkpt>
      <trkpt lat="37.1741900" lon="-3.6166730">
        <ele>646.3</ele>
        <time>2019-06-24T14:04:05Z</time>
      </trkpt>
      <trkpt lat="37.1741290" lon="-3.6167600">
        <ele>646.3</ele>
        <time>2019-06-24T14:04:06Z</time>
      </trkpt>
      <trkpt lat="37.1740680" lon="-3.6168480">
        <ele>646.3</ele>
        <time>2019-06-24T14:04:07Z</time>
      </trkpt>
      <trkpt lat="37.1740070" lon="-3.6169300">
        <ele>646.2</ele>
        <time>2019-06-24T14:04:08Z</time>
      </trkpt>
      <trkpt lat="37.1739600" lon="-3.6169930">
        <ele>646.1</ele>
        <time>2019-06-24T14:04:09Z</time>
      </trkpt>
      <trkpt lat="37.1739130" lon="-3.6170560">
        <ele>646.1</ele>
        <time>2019-06-24T14:04:10Z</time>
      </trkpt>
      <trkpt lat="37.1738190" lon="-3.6171810">
        <ele>646.1</ele>
        <time>2019-06-24T14:04:11Z</time>
      </trkpt>
      <trkpt lat="37.1737560" lon="-3.6172590">
        <ele>646.1</ele>
        <time>2019-06-24T14:04:12Z</time>
      </trkpt>
      <trkpt lat="37.1736940" lon="-3.6173440">
        <ele>646.0</ele>
        <time>2019-06-24T14:04:13Z</time>
      </trkpt>
      <trkpt lat="37.1736470" lon="-3.6174110">
        <ele>646.0</ele>
        <time>2019-06-24T14:04:14Z</time>
      </trkpt>
      <trkpt lat="37.1736000" lon="-3.6174780">
        <ele>646.0</ele>
        <time>2019-06-24T14:04:15Z</time>
      </trkpt>
      <trkpt lat="37.1735050" lon="-3.6176110">
        <ele>645.9</ele>
        <time>2019-06-24T14:04:16Z</time>
      </trkpt>
      <trkpt lat="37.1734410" lon="-3.6177290">
        <ele>645.9</ele>
        <time>2019-06-24T14:04:17Z</time>
      </trkpt>
      <trkpt lat="37.1733930" lon="-3.6178120">
        <ele>645.8</ele>
        <time>2019-06-24T14:04:18Z</time>
      </trkpt>
      <trkpt lat="37.1733450" lon="-3.6178950">
        <ele>645.8</ele>
        <time>2019-06-24T14:04:19Z</time>
      </trkpt>
      <trkpt lat="37.1732480" lon="-3.6180610">
        <ele>645.7</ele>
        <time>2019-06-24T14:04:20Z</time>
      </trkpt>
      <trkpt lat="37.1732140" lon="-3.6181100">
        <ele>645.7</ele>
        <time>2019-06-24T14:04:21Z</time>
      </trkpt>
      <trkpt lat="37.1731800" lon="-3.6181580">
        <ele>645.7</ele>
        <time>2019-06-24T14:04:22Z</time>
      </trkpt>
      <trkpt lat="37.1730610" lon="-3.6183280">
        <ele>645.6</ele>
        <time>2019-06-24T14:04:23Z</time>
      </trkpt>
      <trkpt lat="37.1730090" lon="-3.6184010">
        <ele>645.6</ele>
        <time>2019-06-24T14:04:24Z</time>
      </trkpt>
      <trkpt lat="37.1729060" lon="-3.6185480">
        <ele>645.5</ele>
        <time>2019-06-24T14:04:25Z</time>
      </trkpt>
      <trkpt lat="37.1728560" lon="-3.6186220">
        <ele>645.4</ele>
        <time>2019-06-24T14:04:26Z</time>
      </trkpt>
      <trkpt lat="37.1728060" lon="-3.6186950">
        <ele>645.4</ele>
        <time>2019-06-24T14:04:27Z</time>
      </trkpt>
      <trkpt lat="37.1727060" lon="-3.6188410">
        <ele>645.3</ele>
        <time>2019-06-24T14:04:28Z</time>
      </trkpt>
      <trkpt lat="37.1726350" lon="-3.6189310">
        <ele>645.3</ele>
        <time>2019-06-24T14:04:29Z</time>
      </trkpt>
      <trkpt lat="37.1725650" lon="-3.6190240">
        <ele>645.3</ele>
        <time>2019-06-24T14:04:30Z</time>
      </trkpt>
      <trkpt lat="37.1724950" lon="-3.6191110">
        <ele>645.3</ele>
        <time>2019-06-24T14:04:31Z</time>
      </trkpt>
      <trkpt lat="37.1724600" lon="-3.6191540">
        <ele>645.2</ele>
        <time>2019-06-24T14:04:32Z</time>
      </trkpt>
      <trkpt lat="37.1724240" lon="-3.6191960">
        <ele>645.2</ele>
        <time>2019-06-24T14:04:33Z</time>
      </trkpt>
      <trkpt lat="37.1722980" lon="-3.6193430">
        <ele>645.2</ele>
        <time>2019-06-24T14:04:34Z</time>
      </trkpt>
      <trkpt lat="37.1722440" lon="-3.6194050">
        <ele>645.2</ele>
        <time>2019-06-24T14:04:35Z</time>
      </trkpt>
      <trkpt lat="37.1721360" lon="-3.6195300">
        <ele>645.2</ele>
        <time>2019-06-24T14:04:36Z</time>
      </trkpt>
      <trkpt lat="37.1720630" lon="-3.6196120">
        <ele>645.2</ele>
        <time>2019-06-24T14:04:37Z</time>
      </trkpt>
      <trkpt lat="37.1719910" lon="-3.6196930">
        <ele>645.2</ele>
        <time>2019-06-24T14:04:38Z</time>
      </trkpt>
      <trkpt lat="37.1719550" lon="-3.6197330">
        <ele>645.2</ele>
        <time>2019-06-24T14:04:39Z</time>
      </trkpt>
      <trkpt lat="37.1719180" lon="-3.6197730">
        <ele>645.2</ele>
        <time>2019-06-24T14:04:40Z</time>
      </trkpt>
      <trkpt lat="37.1717720" lon="-3.6199330">
        <ele>644.9</ele>
        <time>2019-06-24T14:04:41Z</time>
      </trkpt>
      <trkpt lat="37.1717000" lon="-3.6200160">
        <ele>644.7</ele>
        <time>2019-06-24T14:04:42Z</time>
      </trkpt>
      <trkpt lat="37.1716260" lon="-3.6200970">
        <ele>644.6</ele>
        <time>2019-06-24T14:04:43Z</time>
      </trkpt>
      <trkpt lat="37.1715530" lon="-3.6201810">
        <ele>644.4</ele>
        <time>2019-06-24T14:04:44Z</time>
      </trkpt>
      <trkpt lat="37.1714810" lon="-3.6202650">
        <ele>644.3</ele>
        <time>2019-06-24T14:04:45Z</time>
      </trkpt>
      <trkpt lat="37.1714250" lon="-3.6203240">
        <ele>644.1</ele>
        <time>2019-06-24T14:04:46Z</time>
      </trkpt>
      <trkpt lat="37.1713690" lon="-3.6203820">
        <ele>644.0</ele>
        <time>2019-06-24T14:04:47Z</time>
      </trkpt>
      <trkpt lat="37.1712570" lon="-3.6204980">
        <ele>643.8</ele>
        <time>2019-06-24T14:04:48Z</time>
      </trkpt>
      <trkpt lat="37.1711820" lon="-3.6205740">
        <ele>643.7</ele>
        <time>2019-06-24T14:04:49Z</time>
      </trkpt>
      <trkpt lat="37.1711070" lon="-3.6206490">
        <ele>643.6</ele>
        <time>2019-06-24T14:04:50Z</time>
      </trkpt>
      <trkpt lat="37.1710300" lon="-3.6207240">
        <ele>643.5</ele>
        <time>2019-06-24T14:04:51Z</time>
      </trkpt>
      <trkpt lat="37.1709550" lon="-3.6207970">
        <ele>643.4</ele>
        <time>2019-06-24T14:04:52Z</time>
      </trkpt>
      <trkpt lat="37.1708800" lon="-3.6208710">
        <ele>643.4</ele>
        <time>2019-06-24T14:04:53Z</time>
      </trkpt>
      <trkpt lat="37.1708060" lon="-3.6209430">
        <ele>643.3</ele>
        <time>2019-06-24T14:04:54Z</time>
      </trkpt>
      <trkpt lat="37.1707300" lon="-3.6210150">
        <ele>643.2</ele>
        <time>2019-06-24T14:04:55Z</time>
      </trkpt>
      <trkpt lat="37.1706570" lon="-3.6210860">
        <ele>643.1</ele>
        <time>2019-06-24T14:04:56Z</time>
      </trkpt>
      <trkpt lat="37.1705830" lon="-3.6211560">
        <ele>643.1</ele>
        <time>2019-06-24T14:04:57Z</time>
      </trkpt>
      <trkpt lat="37.1705280" lon="-3.6212060">
        <ele>643.0</ele>
        <time>2019-06-24T14:04:58Z</time>
      </trkpt>
      <trkpt lat="37.1704720" lon="-3.6212560">
        <ele>643.0</ele>
        <time>2019-06-24T14:04:59Z</time>
      </trkpt>
      <trkpt lat="37.1703610" lon="-3.6213560">
        <ele>642.9</ele>
        <time>2019-06-24T14:05:00Z</time>
      </trkpt>
      <trkpt lat="37.1702860" lon="-3.6214200">
        <ele>642.9</ele>
        <time>2019-06-24T14:05:01Z</time>
      </trkpt>
      <trkpt lat="37.1702110" lon="-3.6214810">
        <ele>642.8</ele>
        <time>2019-06-24T14:05:02Z</time>
      </trkpt>
      <trkpt lat="37.1701350" lon="-3.6215420">
        <ele>642.8</ele>
        <time>2019-06-24T14:05:03Z</time>
      </trkpt>
      <trkpt lat="37.1700990" lon="-3.6215750">
        <ele>642.8</ele>
        <time>2019-06-24T14:05:04Z</time>
      </trkpt>
      <trkpt lat="37.1700620" lon="-3.6216070">
        <ele>642.8</ele>
        <time>2019-06-24T14:05:05Z</time>
      </trkpt>
      <trkpt lat="37.1699190" lon="-3.6217400">
        <ele>642.7</ele>
        <time>2019-06-24T14:05:06Z</time>
      </trkpt>
      <trkpt lat="37.1698660" lon="-3.6217860">
        <ele>642.7</ele>
        <time>2019-06-24T14:05:07Z</time>
      </trkpt>
      <trkpt lat="37.1698130" lon="-3.6218320">
        <ele>642.6</ele>
        <time>2019-06-24T14:05:08Z</time>
      </trkpt>
      <trkpt lat="37.1697070" lon="-3.6219230">
        <ele>642.5</ele>
        <time>2019-06-24T14:05:09Z</time>
      </trkpt>
      <trkpt lat="37.1696340" lon="-3.6219850">
        <ele>642.5</ele>
        <time>2019-06-24T14:05:10Z</time>
      </trkpt>
      <trkpt lat="37.1695980" lon="-3.6220160">
        <ele>642.4</ele>
        <time>2019-06-24T14:05:11Z</time>
      </trkpt>
      <trkpt lat="37.1695610" lon="-3.6220460">
        <ele>642.4</ele>
        <time>2019-06-24T14:05:12Z</time>
      </trkpt>
      <trkpt lat="37.1694350" lon="-3.6221530">
        <ele>642.3</ele>
        <time>2019-06-24T14:05:13Z</time>
      </trkpt>
      <trkpt lat="37.1693810" lon="-3.6221980">
        <ele>642.3</ele>
        <time>2019-06-24T14:05:14Z</time>
      </trkpt>
      <trkpt lat="37.1692740" lon="-3.6222880">
        <ele>642.3</ele>
        <time>2019-06-24T14:05:15Z</time>
      </trkpt>
      <trkpt lat="37.1692020" lon="-3.6223470">
        <ele>642.2</ele>
        <time>2019-06-24T14:05:16Z</time>
      </trkpt>
      <trkpt lat="37.1691300" lon="-3.6224060">
        <ele>642.2</ele>
        <time>2019-06-24T14:05:17Z</time>
      </trkpt>
      <trkpt lat="37.1690580" lon="-3.6224660">
        <ele>642.2</ele>
        <time>2019-06-24T14:05:18Z</time>
      </trkpt>
      <trkpt lat="37.1689880" lon="-3.6225250">
        <ele>642.1</ele>
        <time>2019-06-24T14:05:19Z</time>
      </trkpt>
      <trkpt lat="37.1689160" lon="-3.6225820">
        <ele>642.1</ele>
        <time>2019-06-24T14:05:20Z</time>
      </trkpt>
      <trkpt lat="37.1688430" lon="-3.6226330">
        <ele>642.0</ele>
        <time>2019-06-24T14:05:21Z</time>
      </trkpt>
      <trkpt lat="37.1687650" lon="-3.6226770">
        <ele>641.9</ele>
        <time>2019-06-24T14:05:22Z</time>
      </trkpt>
      <trkpt lat="37.1686830" lon="-3.6227070">
        <ele>641.9</ele>
        <time>2019-06-24T14:05:23Z</time>
      </trkpt>
      <trkpt lat="37.1685980" lon="-3.6227260">
        <ele>641.9</ele>
        <time>2019-06-24T14:05:24Z</time>
      </trkpt>
      <trkpt lat="37.1685120" lon="-3.6227420">
        <ele>641.9</ele>
        <time>2019-06-24T14:05:25Z</time>
      </trkpt>
      <trkpt lat="37.1684240" lon="-3.6227560">
        <ele>641.9</ele>
        <time>2019-06-24T14:05:26Z</time>
      </trkpt>
      <trkpt lat="37.1683360" lon="-3.6227690">
        <ele>641.9</ele>
        <time>2019-06-24T14:05:27Z</time>
      </trkpt>
      <trkpt lat="37.1682470" lon="-3.6227810">
        <ele>641.9</ele>
        <time>2019-06-24T14:05:28Z</time>
      </trkpt>
      <trkpt lat="37.1681800" lon="-3.6227890">
        <ele>641.9</ele>
        <time>2019-06-24T14:05:29Z</time>
      </trkpt>
      <trkpt lat="37.1681130" lon="-3.6227970">
        <ele>641.9</ele>
        <time>2019-06-24T14:05:30Z</time>
      </trkpt>
      <trkpt lat="37.1679790" lon="-3.6228120">
        <ele>641.9</ele>
        <time>2019-06-24T14:05:31Z</time>
      </trkpt>
      <trkpt lat="37.1678930" lon="-3.6228400">
        <ele>641.9</ele>
        <time>2019-06-24T14:05:32Z</time>
      </trkpt>
      <trkpt lat="37.1678130" lon="-3.6228880">
        <ele>641.9</ele>
        <time>2019-06-24T14:05:33Z</time>
      </trkpt>
      <trkpt lat="37.1677370" lon="-3.6229470">
        <ele>641.8</ele>
        <time>2019-06-24T14:05:34Z</time>
      </trkpt>
      <trkpt lat="37.1677020" lon="-3.6229800">
        <ele>641.8</ele>
        <time>2019-06-24T14:05:35Z</time>
      </trkpt>
      <trkpt lat="37.1676660" lon="-3.6230120">
        <ele>641.8</ele>
        <time>2019-06-24T14:05:36Z</time>
      </trkpt>
      <trkpt lat="37.1675440" lon="-3.6231270">
        <ele>641.7</ele>
        <time>2019-06-24T14:05:37Z</time>
      </trkpt>
      <trkpt lat="37.1674930" lon="-3.6231780">
        <ele>641.7</ele>
        <time>2019-06-24T14:05:38Z</time>
      </trkpt>
      <trkpt lat="37.1673920" lon="-3.6232800">
        <ele>641.8</ele>
        <time>2019-06-24T14:05:39Z</time>
      </trkpt>
      <trkpt lat="37.1673270" lon="-3.6233500">
        <ele>641.8</ele>
        <time>2019-06-24T14:05:40Z</time>
      </trkpt>
      <trkpt lat="37.1672640" lon="-3.6234300">
        <ele>641.8</ele>
        <time>2019-06-24T14:05:41Z</time>
      </trkpt>
      <trkpt lat="37.1672030" lon="-3.6235100">
        <ele>641.8</ele>
        <time>2019-06-24T14:05:42Z</time>
      </trkpt>
      <trkpt lat="37.1671440" lon="-3.6235900">
        <ele>641.8</ele>
        <time>2019-06-24T14:05:43Z</time>
      </trkpt>
      <trkpt lat="37.1670840" lon="-3.6236670">
        <ele>641.7</ele>
        <time>2019-06-24T14:05:44Z</time>
      </trkpt>
      <trkpt lat="37.1670270" lon="-3.6237400">
        <ele>641.7</ele>
        <time>2019-06-24T14:05:45Z</time>
      </trkpt>
      <trkpt lat="37.1669740" lon="-3.6238140">
        <ele>641.7</ele>
        <time>2019-06-24T14:05:46Z</time>
      </trkpt>
      <trkpt lat="37.1669190" lon="-3.6238860">
        <ele>641.7</ele>
        <time>2019-06-24T14:05:47Z</time>
      </trkpt>
      <trkpt lat="37.1668640" lon="-3.6239560">
        <ele>641.7</ele>
        <time>2019-06-24T14:05:48Z</time>
      </trkpt>
      <trkpt lat="37.1668060" lon="-3.6240260">
        <ele>641.8</ele>
        <time>2019-06-24T14:05:49Z</time>
      </trkpt>
      <trkpt lat="37.1667440" lon="-3.6240860">
        <ele>641.8</ele>
        <time>2019-06-24T14:05:50Z</time>
      </trkpt>
      <trkpt lat="37.1666730" lon="-3.6241310">
        <ele>641.9</ele>
        <time>2019-06-24T14:05:51Z</time>
      </trkpt>
      <trkpt lat="37.1666010" lon="-3.6241740">
        <ele>642.0</ele>
        <time>2019-06-24T14:05:52Z</time>
      </trkpt>
      <trkpt lat="37.1665320" lon="-3.6242250">
        <ele>642.0</ele>
        <time>2019-06-24T14:05:53Z</time>
      </trkpt>
      <trkpt lat="37.1664820" lon="-3.6242670">
        <ele>642.1</ele>
        <time>2019-06-24T14:05:54Z</time>
      </trkpt>
      <trkpt lat="37.1664310" lon="-3.6243090">
        <ele>642.1</ele>
        <time>2019-06-24T14:05:55Z</time>
      </trkpt>
      <trkpt lat="37.1663290" lon="-3.6243930">
        <ele>642.0</ele>
        <time>2019-06-24T14:05:56Z</time>
      </trkpt>
      <trkpt lat="37.1662610" lon="-3.6244500">
        <ele>641.9</ele>
        <time>2019-06-24T14:05:57Z</time>
      </trkpt>
      <trkpt lat="37.1661930" lon="-3.6245080">
        <ele>641.8</ele>
        <time>2019-06-24T14:05:58Z</time>
      </trkpt>
      <trkpt lat="37.1661250" lon="-3.6245680">
        <ele>641.7</ele>
        <time>2019-06-24T14:05:59Z</time>
      </trkpt>
      <trkpt lat="37.1660910" lon="-3.6245980">
        <ele>641.7</ele>
        <time>2019-06-24T14:06:00Z</time>
      </trkpt>
      <trkpt lat="37.1660570" lon="-3.6246280">
        <ele>641.6</ele>
        <time>2019-06-24T14:06:01Z</time>
      </trkpt>
      <trkpt lat="37.1659390" lon="-3.6247330">
        <ele>641.4</ele>
        <time>2019-06-24T14:06:02Z</time>
      </trkpt>
      <trkpt lat="37.1658880" lon="-3.6247780">
        <ele>641.3</ele>
        <time>2019-06-24T14:06:03Z</time>
      </trkpt>
      <trkpt lat="37.1657870" lon="-3.6248680">
        <ele>641.2</ele>
        <time>2019-06-24T14:06:04Z</time>
      </trkpt>
      <trkpt lat="37.1657360" lon="-3.6249140">
        <ele>641.1</ele>
        <time>2019-06-24T14:06:05Z</time>
      </trkpt>
      <trkpt lat="37.1656850" lon="-3.6249600">
        <ele>641.0</ele>
        <time>2019-06-24T14:06:06Z</time>
      </trkpt>
      <trkpt lat="37.1655820" lon="-3.6250520">
        <ele>640.8</ele>
        <time>2019-06-24T14:06:07Z</time>
      </trkpt>
      <trkpt lat="37.1655140" lon="-3.6251160">
        <ele>640.8</ele>
        <time>2019-06-24T14:06:08Z</time>
      </trkpt>
      <trkpt lat="37.1654450" lon="-3.6251820">
        <ele>640.7</ele>
        <time>2019-06-24T14:06:09Z</time>
      </trkpt>
      <trkpt lat="37.1654110" lon="-3.6252140">
        <ele>640.7</ele>
        <time>2019-06-24T14:06:10Z</time>
      </trkpt>
      <trkpt lat="37.1653760" lon="-3.6252460">
        <ele>640.6</ele>
        <time>2019-06-24T14:06:11Z</time>
      </trkpt>
      <trkpt lat="37.1652730" lon="-3.6253410">
        <ele>640.6</ele>
        <time>2019-06-24T14:06:12Z</time>
      </trkpt>
      <trkpt lat="37.1652380" lon="-3.6253720">
        <ele>640.5</ele>
        <time>2019-06-24T14:06:13Z</time>
      </trkpt>
      <trkpt lat="37.1651170" lon="-3.6254830">
        <ele>640.5</ele>
        <time>2019-06-24T14:06:14Z</time>
      </trkpt>
      <trkpt lat="37.1650660" lon="-3.6255310">
        <ele>640.5</ele>
        <time>2019-06-24T14:06:15Z</time>
      </trkpt>
      <trkpt lat="37.1649630" lon="-3.6256280">
        <ele>640.5</ele>
        <time>2019-06-24T14:06:16Z</time>
      </trkpt>
      <trkpt lat="37.1648950" lon="-3.6256930">
        <ele>640.5</ele>
        <time>2019-06-24T14:06:17Z</time>
      </trkpt>
      <trkpt lat="37.1648630" lon="-3.6257260">
        <ele>640.5</ele>
        <time>2019-06-24T14:06:18Z</time>
      </trkpt>
      <trkpt lat="37.1648300" lon="-3.6257580">
        <ele>640.5</ele>
        <time>2019-06-24T14:06:19Z</time>
      </trkpt>
      <trkpt lat="37.1647170" lon="-3.6258750">
        <ele>640.6</ele>
        <time>2019-06-24T14:06:20Z</time>
      </trkpt>
      <trkpt lat="37.1646700" lon="-3.6259260">
        <ele>640.6</ele>
        <time>2019-06-24T14:06:21Z</time>
      </trkpt>
      <trkpt lat="37.1645750" lon="-3.6260280">
        <ele>640.7</ele>
        <time>2019-06-24T14:06:22Z</time>
      </trkpt>
      <trkpt lat="37.1645170" lon="-3.6261010">
        <ele>640.8</ele>
        <time>2019-06-24T14:06:23Z</time>
      </trkpt>
      <trkpt lat="37.1644890" lon="-3.6261380">
        <ele>640.9</ele>
        <time>2019-06-24T14:06:24Z</time>
      </trkpt>
      <trkpt lat="37.1644610" lon="-3.6261750">
        <ele>640.9</ele>
        <time>2019-06-24T14:06:25Z</time>
      </trkpt>
      <trkpt lat="37.1644040" lon="-3.6262500">
        <ele>641.1</ele>
        <time>2019-06-24T14:06:26Z</time>
      </trkpt>
      <trkpt lat="37.1642900" lon="-3.6263960">
        <ele>641.5</ele>
        <time>2019-06-24T14:06:27Z</time>
      </trkpt>
      <trkpt lat="37.1642620" lon="-3.6264330">
        <ele>641.6</ele>
        <time>2019-06-24T14:06:28Z</time>
      </trkpt>
      <trkpt lat="37.1642340" lon="-3.6264700">
        <ele>641.6</ele>
        <time>2019-06-24T14:06:29Z</time>
      </trkpt>
      <trkpt lat="37.1641780" lon="-3.6265430">
        <ele>641.5</ele>
        <time>2019-06-24T14:06:30Z</time>
      </trkpt>
      <trkpt lat="37.1641210" lon="-3.6266140">
        <ele>641.4</ele>
        <time>2019-06-24T14:06:31Z</time>
      </trkpt>
      <trkpt lat="37.1640070" lon="-3.6267530">
        <ele>641.2</ele>
        <time>2019-06-24T14:06:32Z</time>
      </trkpt>
      <trkpt lat="37.1639790" lon="-3.6267890">
        <ele>641.1</ele>
        <time>2019-06-24T14:06:33Z</time>
      </trkpt>
      <trkpt lat="37.1639510" lon="-3.6268240">
        <ele>641.0</ele>
        <time>2019-06-24T14:06:34Z</time>
      </trkpt>
      <trkpt lat="37.1638390" lon="-3.6269660">
        <ele>640.7</ele>
        <time>2019-06-24T14:06:35Z</time>
      </trkpt>
      <trkpt lat="37.1637820" lon="-3.6270340">
        <ele>640.6</ele>
        <time>2019-06-24T14:06:36Z</time>
      </trkpt>
      <trkpt lat="37.1637250" lon="-3.6270980">
        <ele>640.6</ele>
        <time>2019-06-24T14:06:37Z</time>
      </trkpt>
      <trkpt lat="37.1631390" lon="-3.6279870">
        <ele>640.5</ele>
        <time>2019-06-24T14:07:56Z</time>
      </trkpt>
      <trkpt lat="37.1631500" lon="-3.6280250">
        <ele>640.3</ele>
        <time>2019-06-24T14:07:57Z</time>
      </trkpt>
      <trkpt lat="37.1631640" lon="-3.6280670">
        <ele>640.2</ele>
        <time>2019-06-24T14:07:58Z</time>
      </trkpt>
      <trkpt lat="37.1631710" lon="-3.6281210">
        <ele>640.2</ele>
        <time>2019-06-24T14:07:59Z</time>
      </trkpt>
      <trkpt lat="37.1631670" lon="-3.6281830">
        <ele>640.2</ele>
        <time>2019-06-24T14:08:00Z</time>
      </trkpt>
      <trkpt lat="37.1631430" lon="-3.6282420">
        <ele>640.0</ele>
        <time>2019-06-24T14:08:01Z</time>
      </trkpt>
      <trkpt lat="37.1630980" lon="-3.6282810">
        <ele>640.0</ele>
        <time>2019-06-24T14:08:02Z</time>
      </trkpt>
      <trkpt lat="37.1630440" lon="-3.6282970">
        <ele>640.1</ele>
        <time>2019-06-24T14:08:03Z</time>
      </trkpt>
      <trkpt lat="37.1629870" lon="-3.6282990">
        <ele>640.1</ele>
        <time>2019-06-24T14:08:04Z</time>
      </trkpt>
      <trkpt lat="37.1629280" lon="-3.6283020">
        <ele>640.2</ele>
        <time>2019-06-24T14:08:05Z</time>
      </trkpt>
      <trkpt lat="37.1628680" lon="-3.6283180">
        <ele>640.3</ele>
        <time>2019-06-24T14:08:06Z</time>
      </trkpt>
      <trkpt lat="37.1628080" lon="-3.6283540">
        <ele>640.5</ele>
        <time>2019-06-24T14:08:07Z</time>
      </trkpt>
      <trkpt lat="37.1627550" lon="-3.6284060">
        <ele>640.6</ele>
        <time>2019-06-24T14:08:08Z</time>
      </trkpt>
      <trkpt lat="37.1627070" lon="-3.6284680">
        <ele>640.1</ele>
        <time>2019-06-24T14:08:09Z</time>
      </trkpt>
      <trkpt lat="37.1626580" lon="-3.6285360">
        <ele>639.8</ele>
        <time>2019-06-24T14:08:10Z</time>
      </trkpt>
      <trkpt lat="37.1626090" lon="-3.6286090">
        <ele>639.5</ele>
        <time>2019-06-24T14:08:11Z</time>
      </trkpt>
      <trkpt lat="37.1625600" lon="-3.6286870">
        <ele>639.2</ele>
        <time>2019-06-24T14:08:12Z</time>
      </trkpt>
      <trkpt lat="37.1625140" lon="-3.6287720">
        <ele>639.0</ele>
        <time>2019-06-24T14:08:13Z</time>
      </trkpt>
      <trkpt lat="37.1624690" lon="-3.6288610">
        <ele>638.8</ele>
        <time>2019-06-24T14:08:14Z</time>
      </trkpt>
      <trkpt lat="37.1624270" lon="-3.6289560">
        <ele>638.7</ele>
        <time>2019-06-24T14:08:15Z</time>
      </trkpt>
      <trkpt lat="37.1623870" lon="-3.6290570">
        <ele>638.5</ele>
        <time>2019-06-24T14:08:16Z</time>
      </trkpt>
      <trkpt lat="37.1623470" lon="-3.6291600">
        <ele>638.4</ele>
        <time>2019-06-24T14:08:17Z</time>
      </trkpt>
      <trkpt lat="37.1623100" lon="-3.6292670">
        <ele>638.3</ele>
        <time>2019-06-24T14:08:18Z</time>
      </trkpt>
      <trkpt lat="37.1622750" lon="-3.6293750">
        <ele>638.1</ele>
        <time>2019-06-24T14:08:19Z</time>
      </trkpt>
      <trkpt lat="37.1622440" lon="-3.6294890">
        <ele>638.0</ele>
        <time>2019-06-24T14:08:20Z</time>
      </trkpt>
      <trkpt lat="37.1622150" lon="-3.6296070">
        <ele>637.9</ele>
        <time>2019-06-24T14:08:21Z</time>
      </trkpt>
      <trkpt lat="37.1621910" lon="-3.6297270">
        <ele>637.8</ele>
        <time>2019-06-24T14:08:22Z</time>
      </trkpt>
      <trkpt lat="37.1621660" lon="-3.6298470">
        <ele>637.6</ele>
        <time>2019-06-24T14:08:23Z</time>
      </trkpt>
      <trkpt lat="37.1621430" lon="-3.6299670">
        <ele>637.5</ele>
        <time>2019-06-24T14:08:24Z</time>
      </trkpt>
      <trkpt lat="37.1621210" lon="-3.6300870">
        <ele>637.4</ele>
        <time>2019-06-24T14:08:25Z</time>
      </trkpt>
      <trkpt lat="37.1621010" lon="-3.6302060">
        <ele>637.3</ele>
        <time>2019-06-24T14:08:26Z</time>
      </trkpt>
      <trkpt lat="37.1620800" lon="-3.6303260">
        <ele>637.2</ele>
        <time>2019-06-24T14:08:27Z</time>
      </trkpt>
      <trkpt lat="37.1620590" lon="-3.6304450">
        <ele>637.2</ele>
        <time>2019-06-24T14:08:28Z</time>
      </trkpt>
      <trkpt lat="37.1620390" lon="-3.6305640">
        <ele>637.2</ele>
        <time>2019-06-24T14:08:29Z</time>
      </trkpt>
      <trkpt lat="37.1620180" lon="-3.6306810">
        <ele>637.1</ele>
        <time>2019-06-24T14:08:30Z</time>
      </trkpt>
      <trkpt lat="37.1619980" lon="-3.6307960">
        <ele>637.1</ele>
        <time>2019-06-24T14:08:31Z</time>
      </trkpt>
      <trkpt lat="37.1619790" lon="-3.6309100">
        <ele>637.1</ele>
        <time>2019-06-24T14:08:32Z</time>
      </trkpt>
      <trkpt lat="37.1619600" lon="-3.6310240">
        <ele>637.1</ele>
        <time>2019-06-24T14:08:33Z</time>
      </trkpt>
      <trkpt lat="37.1619400" lon="-3.6311370">
        <ele>637.0</ele>
        <time>2019-06-24T14:08:34Z</time>
      </trkpt>
      <trkpt lat="37.1619200" lon="-3.6312500">
        <ele>637.0</ele>
        <time>2019-06-24T14:08:35Z</time>
      </trkpt>
      <trkpt lat="37.1618990" lon="-3.6313640">
        <ele>637.0</ele>
        <time>2019-06-24T14:08:36Z</time>
      </trkpt>
      <trkpt lat="37.1618750" lon="-3.6314750">
        <ele>637.0</ele>
        <time>2019-06-24T14:08:37Z</time>
      </trkpt>
      <trkpt lat="37.1618510" lon="-3.6315850">
        <ele>636.9</ele>
        <time>2019-06-24T14:08:38Z</time>
      </trkpt>
      <trkpt lat="37.1618260" lon="-3.6316940">
        <ele>636.9</ele>
        <time>2019-06-24T14:08:39Z</time>
      </trkpt>
      <trkpt lat="37.1617990" lon="-3.6318020">
        <ele>636.9</ele>
        <time>2019-06-24T14:08:40Z</time>
      </trkpt>
      <trkpt lat="37.1617730" lon="-3.6319070">
        <ele>636.9</ele>
        <time>2019-06-24T14:08:41Z</time>
      </trkpt>
      <trkpt lat="37.1617450" lon="-3.6320130">
        <ele>636.9</ele>
        <time>2019-06-24T14:08:42Z</time>
      </trkpt>
      <trkpt lat="37.1617160" lon="-3.6321200">
        <ele>636.9</ele>
        <time>2019-06-24T14:08:43Z</time>
      </trkpt>
      <trkpt lat="37.1616860" lon="-3.6322280">
        <ele>636.9</ele>
        <time>2019-06-24T14:08:44Z</time>
      </trkpt>
      <trkpt lat="37.1616550" lon="-3.6323340">
        <ele>637.0</ele>
        <time>2019-06-24T14:08:45Z</time>
      </trkpt>
      <trkpt lat="37.1616230" lon="-3.6324420">
        <ele>637.0</ele>
        <time>2019-06-24T14:08:46Z</time>
      </trkpt>
      <trkpt lat="37.1615900" lon="-3.6325490">
        <ele>636.9</ele>
        <time>2019-06-24T14:08:47Z</time>
      </trkpt>
      <trkpt lat="37.1615550" lon="-3.6326570">
        <ele>636.9</ele>
        <time>2019-06-24T14:08:48Z</time>
      </trkpt>
      <trkpt lat="37.1615200" lon="-3.6327660">
        <ele>636.9</ele>
        <time>2019-06-24T14:08:49Z</time>
      </trkpt>
      <trkpt lat="37.1614860" lon="-3.6328750">
        <ele>636.9</ele>
        <time>2019-06-24T14:08:50Z</time>
      </trkpt>
      <trkpt lat="37.1614530" lon="-3.6329840">
        <ele>636.8</ele>
        <time>2019-06-24T14:08:51Z</time>
      </trkpt>
      <trkpt lat="37.1614190" lon="-3.6330910">
        <ele>636.8</ele>
        <time>2019-06-24T14:08:52Z</time>
      </trkpt>
      <trkpt lat="37.1613850" lon="-3.6332010">
        <ele>636.8</ele>
        <time>2019-06-24T14:08:53Z</time>
      </trkpt>
      <trkpt lat="37.1613500" lon="-3.6333090">
        <ele>636.8</ele>
        <time>2019-06-24T14:08:54Z</time>
      </trkpt>
      <trkpt lat="37.1613150" lon="-3.6334160">
        <ele>636.9</ele>
        <time>2019-06-24T14:08:55Z</time>
      </trkpt>
      <trkpt lat="37.1612820" lon="-3.6335250">
        <ele>636.9</ele>
        <time>2019-06-24T14:08:56Z</time>
      </trkpt>
      <trkpt lat="37.1612490" lon="-3.6336330">
        <ele>636.9</ele>
        <time>2019-06-24T14:08:57Z</time>
      </trkpt>
      <trkpt lat="37.1612140" lon="-3.6337420">
        <ele>637.0</ele>
        <time>2019-06-24T14:08:58Z</time>
      </trkpt>
      <trkpt lat="37.1611810" lon="-3.6338530">
        <ele>637.0</ele>
        <time>2019-06-24T14:08:59Z</time>
      </trkpt>
      <trkpt lat="37.1611480" lon="-3.6339640">
        <ele>637.1</ele>
        <time>2019-06-24T14:09:00Z</time>
      </trkpt>
      <trkpt lat="37.1611130" lon="-3.6340760">
        <ele>637.2</ele>
        <time>2019-06-24T14:09:01Z</time>
      </trkpt>
      <trkpt lat="37.1610790" lon="-3.6341880">
        <ele>637.3</ele>
        <time>2019-06-24T14:09:02Z</time>
      </trkpt>
      <trkpt lat="37.1610460" lon="-3.6343020">
        <ele>637.3</ele>
        <time>2019-06-24T14:09:03Z</time>
      </trkpt>
      <trkpt lat="37.1610110" lon="-3.6344150">
        <ele>637.4</ele>
        <time>2019-06-24T14:09:04Z</time>
      </trkpt>
      <trkpt lat="37.1609790" lon="-3.6345290">
        <ele>637.5</ele>
        <time>2019-06-24T14:09:05Z</time>
      </trkpt>
      <trkpt lat="37.1609460" lon="-3.6346420">
        <ele>637.5</ele>
        <time>2019-06-24T14:09:06Z</time>
      </trkpt>
      <trkpt lat="37.1609120" lon="-3.6347550">
        <ele>637.5</ele>
        <time>2019-06-24T14:09:07Z</time>
      </trkpt>
      <trkpt lat="37.1608780" lon="-3.6348680">
        <ele>637.6</ele>
        <time>2019-06-24T14:09:08Z</time>
      </trkpt>
      <trkpt lat="37.1608440" lon="-3.6349810">
        <ele>637.6</ele>
        <time>2019-06-24T14:09:09Z</time>
      </trkpt>
      <trkpt lat="37.1608090" lon="-3.6350920">
        <ele>637.6</ele>
        <time>2019-06-24T14:09:10Z</time>
      </trkpt>
      <trkpt lat="37.1607740" lon="-3.6352030">
        <ele>637.6</ele>
        <time>2019-06-24T14:09:11Z</time>
      </trkpt>
      <trkpt lat="37.1607390" lon="-3.6353120">
        <ele>637.6</ele>
        <time>2019-06-24T14:09:12Z</time>
      </trkpt>
      <trkpt lat="37.1607010" lon="-3.6354220">
        <ele>637.4</ele>
        <time>2019-06-24T14:09:13Z</time>
      </trkpt>
      <trkpt lat="37.1606640" lon="-3.6355290">
        <ele>637.3</ele>
        <time>2019-06-24T14:09:14Z</time>
      </trkpt>
      <trkpt lat="37.1606250" lon="-3.6356340">
        <ele>637.2</ele>
        <time>2019-06-24T14:09:15Z</time>
      </trkpt>
      <trkpt lat="37.1605850" lon="-3.6357390">
        <ele>637.0</ele>
        <time>2019-06-24T14:09:16Z</time>
      </trkpt>
      <trkpt lat="37.1605450" lon="-3.6358440">
        <ele>636.9</ele>
        <time>2019-06-24T14:09:17Z</time>
      </trkpt>
      <trkpt lat="37.1605020" lon="-3.6359490">
        <ele>636.8</ele>
        <time>2019-06-24T14:09:18Z</time>
      </trkpt>
      <trkpt lat="37.1604570" lon="-3.6360510">
        <ele>636.7</ele>
        <time>2019-06-24T14:09:19Z</time>
      </trkpt>
      <trkpt lat="37.1604120" lon="-3.6361530">
        <ele>636.7</ele>
        <time>2019-06-24T14:09:20Z</time>
      </trkpt>
      <trkpt lat="37.1603670" lon="-3.6362560">
        <ele>636.8</ele>
        <time>2019-06-24T14:09:21Z</time>
      </trkpt>
      <trkpt lat="37.1603210" lon="-3.6363610">
        <ele>636.8</ele>
        <time>2019-06-24T14:09:22Z</time>
      </trkpt>
      <trkpt lat="37.1602740" lon="-3.6364680">
        <ele>636.8</ele>
        <time>2019-06-24T14:09:23Z</time>
      </trkpt>
      <trkpt lat="37.1602260" lon="-3.6365750">
        <ele>636.9</ele>
        <time>2019-06-24T14:09:24Z</time>
      </trkpt>
      <trkpt lat="37.1601790" lon="-3.6366810">
        <ele>636.9</ele>
        <time>2019-06-24T14:09:25Z</time>
      </trkpt>
      <trkpt lat="37.1601310" lon="-3.6367850">
        <ele>636.8</ele>
        <time>2019-06-24T14:09:26Z</time>
      </trkpt>
      <trkpt lat="37.1600820" lon="-3.6368880">
        <ele>636.7</ele>
        <time>2019-06-24T14:09:27Z</time>
      </trkpt>
      <trkpt lat="37.1600340" lon="-3.6369920">
        <ele>636.5</ele>
        <time>2019-06-24T14:09:28Z</time>
      </trkpt>
      <trkpt lat="37.1599860" lon="-3.6370980">
        <ele>636.3</ele>
        <time>2019-06-24T14:09:29Z</time>
      </trkpt>
      <trkpt lat="37.1599380" lon="-3.6372040">
        <ele>636.1</ele>
        <time>2019-06-24T14:09:30Z</time>
      </trkpt>
      <trkpt lat="37.1598900" lon="-3.6373080">
        <ele>635.8</ele>
        <time>2019-06-24T14:09:31Z</time>
      </trkpt>
      <trkpt lat="37.1598420" lon="-3.6374150">
        <ele>635.6</ele>
        <time>2019-06-24T14:09:32Z</time>
      </trkpt>
      <trkpt lat="37.1597940" lon="-3.6375200">
        <ele>635.4</ele>
        <time>2019-06-24T14:09:33Z</time>
      </trkpt>
      <trkpt lat="37.1597450" lon="-3.6376270">
        <ele>635.2</ele>
        <time>2019-06-24T14:09:34Z</time>
      </trkpt>
      <trkpt lat="37.1596940" lon="-3.6377350">
        <ele>635.0</ele>
        <time>2019-06-24T14:09:35Z</time>
      </trkpt>
      <trkpt lat="37.1596470" lon="-3.6378400">
        <ele>634.9</ele>
        <time>2019-06-24T14:09:36Z</time>
      </trkpt>
      <trkpt lat="37.1595970" lon="-3.6379450">
        <ele>634.8</ele>
        <time>2019-06-24T14:09:37Z</time>
      </trkpt>
      <trkpt lat="37.1595470" lon="-3.6380490">
        <ele>634.7</ele>
        <time>2019-06-24T14:09:38Z</time>
      </trkpt>
      <trkpt lat="37.1594950" lon="-3.6381530">
        <ele>634.6</ele>
        <time>2019-06-24T14:09:39Z</time>
      </trkpt>
      <trkpt lat="37.1594450" lon="-3.6382540">
        <ele>634.5</ele>
        <time>2019-06-24T14:09:40Z</time>
      </trkpt>
      <trkpt lat="37.1593940" lon="-3.6383560">
        <ele>634.4</ele>
        <time>2019-06-24T14:09:41Z</time>
      </trkpt>
      <trkpt lat="37.1593430" lon="-3.6384580">
        <ele>634.2</ele>
        <time>2019-06-24T14:09:42Z</time>
      </trkpt>
      <trkpt lat="37.1592910" lon="-3.6385590">
        <ele>634.1</ele>
        <time>2019-06-24T14:09:43Z</time>
      </trkpt>
      <trkpt lat="37.1592380" lon="-3.6386590">
        <ele>633.9</ele>
        <time>2019-06-24T14:09:44Z</time>
      </trkpt>
      <trkpt lat="37.1591840" lon="-3.6387580">
        <ele>634.0</ele>
        <time>2019-06-24T14:09:45Z</time>
      </trkpt>
      <trkpt lat="37.1591310" lon="-3.6388570">
        <ele>634.1</ele>
        <time>2019-06-24T14:09:46Z</time>
      </trkpt>
      <trkpt lat="37.1590790" lon="-3.6389550">
        <ele>634.2</ele>
        <time>2019-06-24T14:09:47Z</time>
      </trkpt>
      <trkpt lat="37.1590260" lon="-3.6390530">
        <ele>634.4</ele>
        <time>2019-06-24T14:09:48Z</time>
      </trkpt>
      <trkpt lat="37.1589720" lon="-3.6391500">
        <ele>634.6</ele>
        <time>2019-06-24T14:09:49Z</time>
      </trkpt>
      <trkpt lat="37.1589180" lon="-3.6392480">
        <ele>634.9</ele>
        <time>2019-06-24T14:09:50Z</time>
      </trkpt>
      <trkpt lat="37.1588640" lon="-3.6393420">
        <ele>635.3</ele>
        <time>2019-06-24T14:09:51Z</time>
      </trkpt>
      <trkpt lat="37.1588100" lon="-3.6394370">
        <ele>635.5</ele>
        <time>2019-06-24T14:09:52Z</time>
      </trkpt>
      <trkpt lat="37.1587570" lon="-3.6395320">
        <ele>635.6</ele>
        <time>2019-06-24T14:09:53Z</time>
      </trkpt>
      <trkpt lat="37.1587040" lon="-3.6396270">
        <ele>635.7</ele>
        <time>2019-06-24T14:09:54Z</time>
      </trkpt>
      <trkpt lat="37.1586520" lon="-3.6397220">
        <ele>635.8</ele>
        <time>2019-06-24T14:09:55Z</time>
      </trkpt>
      <trkpt lat="37.1586000" lon="-3.6398160">
        <ele>635.8</ele>
        <time>2019-06-24T14:09:56Z</time>
      </trkpt>
      <trkpt lat="37.1585490" lon="-3.6399100">
        <ele>635.8</ele>
        <time>2019-06-24T14:09:57Z</time>
      </trkpt>
      <trkpt lat="37.1584970" lon="-3.6400000">
        <ele>635.8</ele>
        <time>2019-06-24T14:09:58Z</time>
      </trkpt>
      <trkpt lat="37.1584470" lon="-3.6400890">
        <ele>635.8</ele>
        <time>2019-06-24T14:09:59Z</time>
      </trkpt>
      <trkpt lat="37.1584050" lon="-3.6401790">
        <ele>635.6</ele>
        <time>2019-06-24T14:10:00Z</time>
      </trkpt>
      <trkpt lat="37.1583740" lon="-3.6402750">
        <ele>635.5</ele>
        <time>2019-06-24T14:10:01Z</time>
      </trkpt>
      <trkpt lat="37.1583510" lon="-3.6403690">
        <ele>635.3</ele>
        <time>2019-06-24T14:10:02Z</time>
      </trkpt>
      <trkpt lat="37.1583200" lon="-3.6404580">
        <ele>635.2</ele>
        <time>2019-06-24T14:10:03Z</time>
      </trkpt>
      <trkpt lat="37.1582690" lon="-3.6405310">
        <ele>635.1</ele>
        <time>2019-06-24T14:10:04Z</time>
      </trkpt>
      <trkpt lat="37.1582100" lon="-3.6405970">
        <ele>635.1</ele>
        <time>2019-06-24T14:10:05Z</time>
      </trkpt>
      <trkpt lat="37.1581510" lon="-3.6406650">
        <ele>635.2</ele>
        <time>2019-06-24T14:10:06Z</time>
      </trkpt>
      <trkpt lat="37.1580990" lon="-3.6407430">
        <ele>635.3</ele>
        <time>2019-06-24T14:10:07Z</time>
      </trkpt>
      <trkpt lat="37.1580500" lon="-3.6408250">
        <ele>635.5</ele>
        <time>2019-06-24T14:10:08Z</time>
      </trkpt>
      <trkpt lat="37.1580010" lon="-3.6409090">
        <ele>635.8</ele>
        <time>2019-06-24T14:10:09Z</time>
      </trkpt>
      <trkpt lat="37.1579540" lon="-3.6409940">
        <ele>636.2</ele>
        <time>2019-06-24T14:10:10Z</time>
      </trkpt>
      <trkpt lat="37.1579060" lon="-3.6410790">
        <ele>636.4</ele>
        <time>2019-06-24T14:10:11Z</time>
      </trkpt>
      <trkpt lat="37.1578580" lon="-3.6411630">
        <ele>636.6</ele>
        <time>2019-06-24T14:10:12Z</time>
      </trkpt>
      <trkpt lat="37.1578100" lon="-3.6412490">
        <ele>636.8</ele>
        <time>2019-06-24T14:10:13Z</time>
      </trkpt>
      <trkpt lat="37.1577620" lon="-3.6413370">
        <ele>637.1</ele>
        <time>2019-06-24T14:10:14Z</time>
      </trkpt>
      <trkpt lat="37.1577130" lon="-3.6414250">
        <ele>637.3</ele>
        <time>2019-06-24T14:10:15Z</time>
      </trkpt>
      <trkpt lat="37.1576650" lon="-3.6415120">
        <ele>637.5</ele>
        <time>2019-06-24T14:10:16Z</time>
      </trkpt>
      <trkpt lat="37.1576170" lon="-3.6416000">
        <ele>637.7</ele>
        <time>2019-06-24T14:10:17Z</time>
      </trkpt>
      <trkpt lat="37.1575690" lon="-3.6416860">
        <ele>638.0</ele>
        <time>2019-06-24T14:10:18Z</time>
      </trkpt>
      <trkpt lat="37.1575190" lon="-3.6417710">
        <ele>638.2</ele>
        <time>2019-06-24T14:10:19Z</time>
      </trkpt>
      <trkpt lat="37.1574680" lon="-3.6418540">
        <ele>638.5</ele>
        <time>2019-06-24T14:10:20Z</time>
      </trkpt>
      <trkpt lat="37.1574150" lon="-3.6419360">
        <ele>638.5</ele>
        <time>2019-06-24T14:10:21Z</time>
      </trkpt>
      <trkpt lat="37.1573620" lon="-3.6420160">
        <ele>638.6</ele>
        <time>2019-06-24T14:10:22Z</time>
      </trkpt>
      <trkpt lat="37.1573070" lon="-3.6420920">
        <ele>638.6</ele>
        <time>2019-06-24T14:10:23Z</time>
      </trkpt>
      <trkpt lat="37.1572520" lon="-3.6421680">
        <ele>638.7</ele>
        <time>2019-06-24T14:10:24Z</time>
      </trkpt>
      <trkpt lat="37.1571950" lon="-3.6422430">
        <ele>638.8</ele>
        <time>2019-06-24T14:10:25Z</time>
      </trkpt>
      <trkpt lat="37.1571380" lon="-3.6423150">
        <ele>638.8</ele>
        <time>2019-06-24T14:10:26Z</time>
      </trkpt>
      <trkpt lat="37.1570800" lon="-3.6423860">
        <ele>638.9</ele>
        <time>2019-06-24T14:10:27Z</time>
      </trkpt>
      <trkpt lat="37.1570210" lon="-3.6424550">
        <ele>639.0</ele>
        <time>2019-06-24T14:10:28Z</time>
      </trkpt>
      <trkpt lat="37.1569600" lon="-3.6425230">
        <ele>639.1</ele>
        <time>2019-06-24T14:10:29Z</time>
      </trkpt>
      <trkpt lat="37.1568980" lon="-3.6425870">
        <ele>639.1</ele>
        <time>2019-06-24T14:10:30Z</time>
      </trkpt>
      <trkpt lat="37.1568350" lon="-3.6426500">
        <ele>639.2</ele>
        <time>2019-06-24T14:10:31Z</time>
      </trkpt>
      <trkpt lat="37.1567720" lon="-3.6427120">
        <ele>639.3</ele>
        <time>2019-06-24T14:10:32Z</time>
      </trkpt>
      <trkpt lat="37.1567070" lon="-3.6427710">
        <ele>639.4</ele>
        <time>2019-06-24T14:10:33Z</time>
      </trkpt>
      <trkpt lat="37.1566420" lon="-3.6428320">
        <ele>639.5</ele>
        <time>2019-06-24T14:10:34Z</time>
      </trkpt>
      <trkpt lat="37.1565770" lon="-3.6428940">
        <ele>639.6</ele>
        <time>2019-06-24T14:10:35Z</time>
      </trkpt>
      <trkpt lat="37.1565110" lon="-3.6429570">
        <ele>639.7</ele>
        <time>2019-06-24T14:10:36Z</time>
      </trkpt>
      <trkpt lat="37.1564450" lon="-3.6430180">
        <ele>639.9</ele>
        <time>2019-06-24T14:10:37Z</time>
      </trkpt>
      <trkpt lat="37.1563790" lon="-3.6430810">
        <ele>640.0</ele>
        <time>2019-06-24T14:10:38Z</time>
      </trkpt>
      <trkpt lat="37.1563120" lon="-3.6431390">
        <ele>640.1</ele>
        <time>2019-06-24T14:10:39Z</time>
      </trkpt>
      <trkpt lat="37.1562460" lon="-3.6431950">
        <ele>640.3</ele>
        <time>2019-06-24T14:10:40Z</time>
      </trkpt>
      <trkpt lat="37.1561830" lon="-3.6432540">
        <ele>640.5</ele>
        <time>2019-06-24T14:10:41Z</time>
      </trkpt>
      <trkpt lat="37.1561180" lon="-3.6433150">
        <ele>640.6</ele>
        <time>2019-06-24T14:10:42Z</time>
      </trkpt>
      <trkpt lat="37.1560540" lon="-3.6433750">
        <ele>640.8</ele>
        <time>2019-06-24T14:10:43Z</time>
      </trkpt>
      <trkpt lat="37.1559870" lon="-3.6434330">
        <ele>640.9</ele>
        <time>2019-06-24T14:10:44Z</time>
      </trkpt>
      <trkpt lat="37.1559210" lon="-3.6434920">
        <ele>641.0</ele>
        <time>2019-06-24T14:10:45Z</time>
      </trkpt>
      <trkpt lat="37.1558560" lon="-3.6435500">
        <ele>641.2</ele>
        <time>2019-06-24T14:10:46Z</time>
      </trkpt>
      <trkpt lat="37.1557900" lon="-3.6436080">
        <ele>641.3</ele>
        <time>2019-06-24T14:10:47Z</time>
      </trkpt>
      <trkpt lat="37.1557240" lon="-3.6436670">
        <ele>641.5</ele>
        <time>2019-06-24T14:10:48Z</time>
      </trkpt>
      <trkpt lat="37.1556600" lon="-3.6437260">
        <ele>641.6</ele>
        <time>2019-06-24T14:10:49Z</time>
      </trkpt>
      <trkpt lat="37.1555960" lon="-3.6437860">
        <ele>641.8</ele>
        <time>2019-06-24T14:10:50Z</time>
      </trkpt>
      <trkpt lat="37.1555320" lon="-3.6438450">
        <ele>641.9</ele>
        <time>2019-06-24T14:10:51Z</time>
      </trkpt>
      <trkpt lat="37.1554670" lon="-3.6439030">
        <ele>642.1</ele>
        <time>2019-06-24T14:10:52Z</time>
      </trkpt>
      <trkpt lat="37.1554010" lon="-3.6439630">
        <ele>642.2</ele>
        <time>2019-06-24T14:10:53Z</time>
      </trkpt>
      <trkpt lat="37.1553360" lon="-3.6440220">
        <ele>642.4</ele>
        <time>2019-06-24T14:10:54Z</time>
      </trkpt>
      <trkpt lat="37.1552720" lon="-3.6440820">
        <ele>642.5</ele>
        <time>2019-06-24T14:10:55Z</time>
      </trkpt>
      <trkpt lat="37.1552050" lon="-3.6441410">
        <ele>642.6</ele>
        <time>2019-06-24T14:10:56Z</time>
      </trkpt>
      <trkpt lat="37.1551380" lon="-3.6442000">
        <ele>642.7</ele>
        <time>2019-06-24T14:10:57Z</time>
      </trkpt>
      <trkpt lat="37.1550730" lon="-3.6442610">
        <ele>642.8</ele>
        <time>2019-06-24T14:10:58Z</time>
      </trkpt>
      <trkpt lat="37.1550090" lon="-3.6443230">
        <ele>642.9</ele>
        <time>2019-06-24T14:10:59Z</time>
      </trkpt>
      <trkpt lat="37.1549450" lon="-3.6443870">
        <ele>643.0</ele>
        <time>2019-06-24T14:11:00Z</time>
      </trkpt>
      <trkpt lat="37.1548840" lon="-3.6444540">
        <ele>643.1</ele>
        <time>2019-06-24T14:11:01Z</time>
      </trkpt>
      <trkpt lat="37.1548240" lon="-3.6445230">
        <ele>643.2</ele>
        <time>2019-06-24T14:11:02Z</time>
      </trkpt>
      <trkpt lat="37.1547670" lon="-3.6445930">
        <ele>643.4</ele>
        <time>2019-06-24T14:11:03Z</time>
      </trkpt>
      <trkpt lat="37.1547100" lon="-3.6446650">
        <ele>643.5</ele>
        <time>2019-06-24T14:11:04Z</time>
      </trkpt>
      <trkpt lat="37.1546540" lon="-3.6447380">
        <ele>643.6</ele>
        <time>2019-06-24T14:11:05Z</time>
      </trkpt>
      <trkpt lat="37.1546000" lon="-3.6448120">
        <ele>643.7</ele>
        <time>2019-06-24T14:11:06Z</time>
      </trkpt>
      <trkpt lat="37.1545470" lon="-3.6448880">
        <ele>643.7</ele>
        <time>2019-06-24T14:11:07Z</time>
      </trkpt>
      <trkpt lat="37.1544980" lon="-3.6449670">
        <ele>643.6</ele>
        <time>2019-06-24T14:11:08Z</time>
      </trkpt>
      <trkpt lat="37.1544520" lon="-3.6450490">
        <ele>643.5</ele>
        <time>2019-06-24T14:11:09Z</time>
      </trkpt>
      <trkpt lat="37.1544090" lon="-3.6451330">
        <ele>643.2</ele>
        <time>2019-06-24T14:11:10Z</time>
      </trkpt>
      <trkpt lat="37.1543700" lon="-3.6452190">
        <ele>643.0</ele>
        <time>2019-06-24T14:11:11Z</time>
      </trkpt>
      <trkpt lat="37.1543360" lon="-3.6453090">
        <ele>642.7</ele>
        <time>2019-06-24T14:11:12Z</time>
      </trkpt>
      <trkpt lat="37.1543040" lon="-3.6454010">
        <ele>642.9</ele>
        <time>2019-06-24T14:11:13Z</time>
      </trkpt>
      <trkpt lat="37.1542720" lon="-3.6454930">
        <ele>643.2</ele>
        <time>2019-06-24T14:11:14Z</time>
      </trkpt>
      <trkpt lat="37.1542400" lon="-3.6455870">
        <ele>643.4</ele>
        <time>2019-06-24T14:11:15Z</time>
      </trkpt>
      <trkpt lat="37.1542080" lon="-3.6456800">
        <ele>643.5</ele>
        <time>2019-06-24T14:11:16Z</time>
      </trkpt>
      <trkpt lat="37.1541770" lon="-3.6457750">
        <ele>643.6</ele>
        <time>2019-06-24T14:11:17Z</time>
      </trkpt>
      <trkpt lat="37.1541460" lon="-3.6458700">
        <ele>643.6</ele>
        <time>2019-06-24T14:11:18Z</time>
      </trkpt>
      <trkpt lat="37.1541150" lon="-3.6459650">
        <ele>643.5</ele>
        <time>2019-06-24T14:11:19Z</time>
      </trkpt>
      <trkpt lat="37.1540850" lon="-3.6460610">
        <ele>643.4</ele>
        <time>2019-06-24T14:11:20Z</time>
      </trkpt>
      <trkpt lat="37.1540540" lon="-3.6461570">
        <ele>643.3</ele>
        <time>2019-06-24T14:11:21Z</time>
      </trkpt>
      <trkpt lat="37.1540230" lon="-3.6462540">
        <ele>643.2</ele>
        <time>2019-06-24T14:11:22Z</time>
      </trkpt>
      <trkpt lat="37.1539920" lon="-3.6463510">
        <ele>643.2</ele>
        <time>2019-06-24T14:11:23Z</time>
      </trkpt>
      <trkpt lat="37.1539620" lon="-3.6464480">
        <ele>643.2</ele>
        <time>2019-06-24T14:11:24Z</time>
      </trkpt>
      <trkpt lat="37.1539320" lon="-3.6465450">
        <ele>643.3</ele>
        <time>2019-06-24T14:11:25Z</time>
      </trkpt>
      <trkpt lat="37.1539010" lon="-3.6466420">
        <ele>643.4</ele>
        <time>2019-06-24T14:11:26Z</time>
      </trkpt>
      <trkpt lat="37.1538710" lon="-3.6467400">
        <ele>643.4</ele>
        <time>2019-06-24T14:11:27Z</time>
      </trkpt>
      <trkpt lat="37.1538410" lon="-3.6468380">
        <ele>643.5</ele>
        <time>2019-06-24T14:11:28Z</time>
      </trkpt>
      <trkpt lat="37.1538100" lon="-3.6469340">
        <ele>643.5</ele>
        <time>2019-06-24T14:11:29Z</time>
      </trkpt>
      <trkpt lat="37.1537800" lon="-3.6470330">
        <ele>643.5</ele>
        <time>2019-06-24T14:11:30Z</time>
      </trkpt>
      <trkpt lat="37.1537490" lon="-3.6471310">
        <ele>643.8</ele>
        <time>2019-06-24T14:11:31Z</time>
      </trkpt>
      <trkpt lat="37.1537190" lon="-3.6472290">
        <ele>643.9</ele>
        <time>2019-06-24T14:11:32Z</time>
      </trkpt>
      <trkpt lat="37.1536890" lon="-3.6473270">
        <ele>644.0</ele>
        <time>2019-06-24T14:11:33Z</time>
      </trkpt>
      <trkpt lat="37.1536580" lon="-3.6474220">
        <ele>644.1</ele>
        <time>2019-06-24T14:11:34Z</time>
      </trkpt>
      <trkpt lat="37.1536270" lon="-3.6475170">
        <ele>644.1</ele>
        <time>2019-06-24T14:11:35Z</time>
      </trkpt>
      <trkpt lat="37.1535970" lon="-3.6476110">
        <ele>644.2</ele>
        <time>2019-06-24T14:11:36Z</time>
      </trkpt>
      <trkpt lat="37.1535660" lon="-3.6477030">
        <ele>644.3</ele>
        <time>2019-06-24T14:11:37Z</time>
      </trkpt>
      <trkpt lat="37.1535340" lon="-3.6477950">
        <ele>644.4</ele>
        <time>2019-06-24T14:11:38Z</time>
      </trkpt>
      <trkpt lat="37.1535000" lon="-3.6478880">
        <ele>644.5</ele>
        <time>2019-06-24T14:11:39Z</time>
      </trkpt>
      <trkpt lat="37.1534660" lon="-3.6479800">
        <ele>644.6</ele>
        <time>2019-06-24T14:11:40Z</time>
      </trkpt>
      <trkpt lat="37.1534300" lon="-3.6480710">
        <ele>644.6</ele>
        <time>2019-06-24T14:11:41Z</time>
      </trkpt>
      <trkpt lat="37.1533950" lon="-3.6481620">
        <ele>644.7</ele>
        <time>2019-06-24T14:11:42Z</time>
      </trkpt>
      <trkpt lat="37.1533590" lon="-3.6482530">
        <ele>644.8</ele>
        <time>2019-06-24T14:11:43Z</time>
      </trkpt>
      <trkpt lat="37.1533220" lon="-3.6483440">
        <ele>644.8</ele>
        <time>2019-06-24T14:11:44Z</time>
      </trkpt>
      <trkpt lat="37.1532840" lon="-3.6484330">
        <ele>644.8</ele>
        <time>2019-06-24T14:11:45Z</time>
      </trkpt>
      <trkpt lat="37.1532460" lon="-3.6485220">
        <ele>644.8</ele>
        <time>2019-06-24T14:11:46Z</time>
      </trkpt>
      <trkpt lat="37.1532080" lon="-3.6486100">
        <ele>644.8</ele>
        <time>2019-06-24T14:11:47Z</time>
      </trkpt>
      <trkpt lat="37.1531690" lon="-3.6486980">
        <ele>644.7</ele>
        <time>2019-06-24T14:11:48Z</time>
      </trkpt>
      <trkpt lat="37.1531310" lon="-3.6487860">
        <ele>644.6</ele>
        <time>2019-06-24T14:11:49Z</time>
      </trkpt>
      <trkpt lat="37.1530920" lon="-3.6488740">
        <ele>644.5</ele>
        <time>2019-06-24T14:11:50Z</time>
      </trkpt>
      <trkpt lat="37.1530540" lon="-3.6489610">
        <ele>644.3</ele>
        <time>2019-06-24T14:11:51Z</time>
      </trkpt>
      <trkpt lat="37.1530160" lon="-3.6490460">
        <ele>644.2</ele>
        <time>2019-06-24T14:11:52Z</time>
      </trkpt>
      <trkpt lat="37.1529780" lon="-3.6491310">
        <ele>644.0</ele>
        <time>2019-06-24T14:11:53Z</time>
      </trkpt>
      <trkpt lat="37.1529410" lon="-3.6492160">
        <ele>643.8</ele>
        <time>2019-06-24T14:11:54Z</time>
      </trkpt>
      <trkpt lat="37.1529100" lon="-3.6493040">
        <ele>643.9</ele>
        <time>2019-06-24T14:11:55Z</time>
      </trkpt>
      <trkpt lat="37.1528850" lon="-3.6493940">
        <ele>643.9</ele>
        <time>2019-06-24T14:11:56Z</time>
      </trkpt>
      <trkpt lat="37.1528560" lon="-3.6494800">
        <ele>644.0</ele>
        <time>2019-06-24T14:11:57Z</time>
      </trkpt>
      <trkpt lat="37.1528210" lon="-3.6495600">
        <ele>644.1</ele>
        <time>2019-06-24T14:11:58Z</time>
      </trkpt>
      <trkpt lat="37.1527810" lon="-3.6496380">
        <ele>644.2</ele>
        <time>2019-06-24T14:11:59Z</time>
      </trkpt>
      <trkpt lat="37.1527400" lon="-3.6497150">
        <ele>644.2</ele>
        <time>2019-06-24T14:12:00Z</time>
      </trkpt>
      <trkpt lat="37.1527000" lon="-3.6497920">
        <ele>644.3</ele>
        <time>2019-06-24T14:12:01Z</time>
      </trkpt>
      <trkpt lat="37.1526610" lon="-3.6498730">
        <ele>644.4</ele>
        <time>2019-06-24T14:12:02Z</time>
      </trkpt>
      <trkpt lat="37.1526230" lon="-3.6499500">
        <ele>644.5</ele>
        <time>2019-06-24T14:12:03Z</time>
      </trkpt>
      <trkpt lat="37.1525860" lon="-3.6500300">
        <ele>644.6</ele>
        <time>2019-06-24T14:12:04Z</time>
      </trkpt>
      <trkpt lat="37.1525490" lon="-3.6501120">
        <ele>644.6</ele>
        <time>2019-06-24T14:12:05Z</time>
      </trkpt>
      <trkpt lat="37.1525130" lon="-3.6501930">
        <ele>644.7</ele>
        <time>2019-06-24T14:12:06Z</time>
      </trkpt>
      <trkpt lat="37.1524790" lon="-3.6502740">
        <ele>644.8</ele>
        <time>2019-06-24T14:12:07Z</time>
      </trkpt>
      <trkpt lat="37.1524440" lon="-3.6503520">
        <ele>644.9</ele>
        <time>2019-06-24T14:12:08Z</time>
      </trkpt>
      <trkpt lat="37.1524110" lon="-3.6504310">
        <ele>644.9</ele>
        <time>2019-06-24T14:12:09Z</time>
      </trkpt>
      <trkpt lat="37.1523770" lon="-3.6505100">
        <ele>645.0</ele>
        <time>2019-06-24T14:12:10Z</time>
      </trkpt>
      <trkpt lat="37.1523420" lon="-3.6505860">
        <ele>645.1</ele>
        <time>2019-06-24T14:12:11Z</time>
      </trkpt>
      <trkpt lat="37.1523080" lon="-3.6506630">
        <ele>645.2</ele>
        <time>2019-06-24T14:12:12Z</time>
      </trkpt>
      <trkpt lat="37.1522730" lon="-3.6507410">
        <ele>645.3</ele>
        <time>2019-06-24T14:12:13Z</time>
      </trkpt>
      <trkpt lat="37.1522370" lon="-3.6508190">
        <ele>645.4</ele>
        <time>2019-06-24T14:12:14Z</time>
      </trkpt>
      <trkpt lat="37.1522010" lon="-3.6508960">
        <ele>645.5</ele>
        <time>2019-06-24T14:12:15Z</time>
      </trkpt>
      <trkpt lat="37.1521620" lon="-3.6509710">
        <ele>645.5</ele>
        <time>2019-06-24T14:12:16Z</time>
      </trkpt>
      <trkpt lat="37.1521230" lon="-3.6510470">
        <ele>645.6</ele>
        <time>2019-06-24T14:12:17Z</time>
      </trkpt>
      <trkpt lat="37.1520820" lon="-3.6511230">
        <ele>645.7</ele>
        <time>2019-06-24T14:12:18Z</time>
      </trkpt>
      <trkpt lat="37.1520420" lon="-3.6512000">
        <ele>645.8</ele>
        <time>2019-06-24T14:12:19Z</time>
      </trkpt>
      <trkpt lat="37.1520000" lon="-3.6512750">
        <ele>645.8</ele>
        <time>2019-06-24T14:12:20Z</time>
      </trkpt>
      <trkpt lat="37.1519600" lon="-3.6513520">
        <ele>645.9</ele>
        <time>2019-06-24T14:12:21Z</time>
      </trkpt>
      <trkpt lat="37.1519160" lon="-3.6514270">
        <ele>646.0</ele>
        <time>2019-06-24T14:12:22Z</time>
      </trkpt>
      <trkpt lat="37.1518700" lon="-3.6515010">
        <ele>646.0</ele>
        <time>2019-06-24T14:12:23Z</time>
      </trkpt>
      <trkpt lat="37.1518230" lon="-3.6515750">
        <ele>646.1</ele>
        <time>2019-06-24T14:12:24Z</time>
      </trkpt>
      <trkpt lat="37.1517730" lon="-3.6516480">
        <ele>646.2</ele>
        <time>2019-06-24T14:12:25Z</time>
      </trkpt>
      <trkpt lat="37.1517240" lon="-3.6517220">
        <ele>646.3</ele>
        <time>2019-06-24T14:12:26Z</time>
      </trkpt>
      <trkpt lat="37.1516740" lon="-3.6517940">
        <ele>646.4</ele>
        <time>2019-06-24T14:12:27Z</time>
      </trkpt>
      <trkpt lat="37.1516230" lon="-3.6518640">
        <ele>646.5</ele>
        <time>2019-06-24T14:12:28Z</time>
      </trkpt>
      <trkpt lat="37.1515720" lon="-3.6519330">
        <ele>646.6</ele>
        <time>2019-06-24T14:12:29Z</time>
      </trkpt>
      <trkpt lat="37.1515190" lon="-3.6519990">
        <ele>646.7</ele>
        <time>2019-06-24T14:12:30Z</time>
      </trkpt>
      <trkpt lat="37.1514640" lon="-3.6520650">
        <ele>646.8</ele>
        <time>2019-06-24T14:12:31Z</time>
      </trkpt>
      <trkpt lat="37.1514100" lon="-3.6521310">
        <ele>647.0</ele>
        <time>2019-06-24T14:12:32Z</time>
      </trkpt>
      <trkpt lat="37.1513550" lon="-3.6521970">
        <ele>647.2</ele>
        <time>2019-06-24T14:12:33Z</time>
      </trkpt>
      <trkpt lat="37.1513000" lon="-3.6522610">
        <ele>647.4</ele>
        <time>2019-06-24T14:12:34Z</time>
      </trkpt>
      <trkpt lat="37.1512440" lon="-3.6523240">
        <ele>647.6</ele>
        <time>2019-06-24T14:12:35Z</time>
      </trkpt>
      <trkpt lat="37.1511880" lon="-3.6523890">
        <ele>647.8</ele>
        <time>2019-06-24T14:12:36Z</time>
      </trkpt>
      <trkpt lat="37.1511330" lon="-3.6524540">
        <ele>648.0</ele>
        <time>2019-06-24T14:12:37Z</time>
      </trkpt>
      <trkpt lat="37.1510780" lon="-3.6525170">
        <ele>648.1</ele>
        <time>2019-06-24T14:12:38Z</time>
      </trkpt>
      <trkpt lat="37.1510240" lon="-3.6525790">
        <ele>648.3</ele>
        <time>2019-06-24T14:12:39Z</time>
      </trkpt>
      <trkpt lat="37.1509710" lon="-3.6526410">
        <ele>648.4</ele>
        <time>2019-06-24T14:12:40Z</time>
      </trkpt>
      <trkpt lat="37.1509220" lon="-3.6527030">
        <ele>648.5</ele>
        <time>2019-06-24T14:12:41Z</time>
      </trkpt>
      <trkpt lat="37.1508830" lon="-3.6527670">
        <ele>648.7</ele>
        <time>2019-06-24T14:12:42Z</time>
      </trkpt>
      <trkpt lat="37.1508600" lon="-3.6528220">
        <ele>648.8</ele>
        <time>2019-06-24T14:12:43Z</time>
      </trkpt>
      <trkpt lat="37.1508540" lon="-3.6528710">
        <ele>648.9</ele>
        <time>2019-06-24T14:12:44Z</time>
      </trkpt>
      <trkpt lat="37.1508560" lon="-3.6529190">
        <ele>649.1</ele>
        <time>2019-06-24T14:12:45Z</time>
      </trkpt>
      <trkpt lat="37.1508540" lon="-3.6529740">
        <ele>649.1</ele>
        <time>2019-06-24T14:12:46Z</time>
      </trkpt>
      <trkpt lat="37.1508410" lon="-3.6530340">
        <ele>649.1</ele>
        <time>2019-06-24T14:12:47Z</time>
      </trkpt>
      <trkpt lat="37.1508110" lon="-3.6530870">
        <ele>649.1</ele>
        <time>2019-06-24T14:12:48Z</time>
      </trkpt>
      <trkpt lat="37.1507650" lon="-3.6531230">
        <ele>649.1</ele>
        <time>2019-06-24T14:12:49Z</time>
      </trkpt>
      <trkpt lat="37.1507080" lon="-3.6531440">
        <ele>649.1</ele>
        <time>2019-06-24T14:12:50Z</time>
      </trkpt>
      <trkpt lat="37.1506480" lon="-3.6531500">
        <ele>649.1</ele>
        <time>2019-06-24T14:12:51Z</time>
      </trkpt>
      <trkpt lat="37.1505920" lon="-3.6531600">
        <ele>649.2</ele>
        <time>2019-06-24T14:12:52Z</time>
      </trkpt>
      <trkpt lat="37.1505400" lon="-3.6531910">
        <ele>649.2</ele>
        <time>2019-06-24T14:12:53Z</time>
      </trkpt>
      <trkpt lat="37.1504860" lon="-3.6532390">
        <ele>649.4</ele>
        <time>2019-06-24T14:12:54Z</time>
      </trkpt>
      <trkpt lat="37.1504330" lon="-3.6532930">
        <ele>649.6</ele>
        <time>2019-06-24T14:12:55Z</time>
      </trkpt>
      <trkpt lat="37.1503800" lon="-3.6533480">
        <ele>649.8</ele>
        <time>2019-06-24T14:12:56Z</time>
      </trkpt>
      <trkpt lat="37.1503290" lon="-3.6534070">
        <ele>650.0</ele>
        <time>2019-06-24T14:12:57Z</time>
      </trkpt>
      <trkpt lat="37.1502770" lon="-3.6534670">
        <ele>650.1</ele>
        <time>2019-06-24T14:12:58Z</time>
      </trkpt>
      <trkpt lat="37.1502260" lon="-3.6535280">
        <ele>650.2</ele>
        <time>2019-06-24T14:12:59Z</time>
      </trkpt>
      <trkpt lat="37.1501730" lon="-3.6535920">
        <ele>650.3</ele>
        <time>2019-06-24T14:13:00Z</time>
      </trkpt>
      <trkpt lat="37.1501200" lon="-3.6536540">
        <ele>650.4</ele>
        <time>2019-06-24T14:13:01Z</time>
      </trkpt>
      <trkpt lat="37.1500660" lon="-3.6537160">
        <ele>650.4</ele>
        <time>2019-06-24T14:13:02Z</time>
      </trkpt>
      <trkpt lat="37.1500120" lon="-3.6537780">
        <ele>650.5</ele>
        <time>2019-06-24T14:13:03Z</time>
      </trkpt>
      <trkpt lat="37.1499580" lon="-3.6538400">
        <ele>650.6</ele>
        <time>2019-06-24T14:13:04Z</time>
      </trkpt>
      <trkpt lat="37.1499010" lon="-3.6539030">
        <ele>650.6</ele>
        <time>2019-06-24T14:13:05Z</time>
      </trkpt>
      <trkpt lat="37.1498460" lon="-3.6539670">
        <ele>650.6</ele>
        <time>2019-06-24T14:13:06Z</time>
      </trkpt>
      <trkpt lat="37.1497890" lon="-3.6540300">
        <ele>650.6</ele>
        <time>2019-06-24T14:13:07Z</time>
      </trkpt>
      <trkpt lat="37.1497310" lon="-3.6540940">
        <ele>650.6</ele>
        <time>2019-06-24T14:13:08Z</time>
      </trkpt>
      <trkpt lat="37.1496710" lon="-3.6541570">
        <ele>650.6</ele>
        <time>2019-06-24T14:13:09Z</time>
      </trkpt>
      <trkpt lat="37.1496120" lon="-3.6542200">
        <ele>650.5</ele>
        <time>2019-06-24T14:13:10Z</time>
      </trkpt>
      <trkpt lat="37.1495530" lon="-3.6542810">
        <ele>650.4</ele>
        <time>2019-06-24T14:13:11Z</time>
      </trkpt>
      <trkpt lat="37.1494960" lon="-3.6543430">
        <ele>650.4</ele>
        <time>2019-06-24T14:13:12Z</time>
      </trkpt>
      <trkpt lat="37.1494370" lon="-3.6544030">
        <ele>650.4</ele>
        <time>2019-06-24T14:13:13Z</time>
      </trkpt>
      <trkpt lat="37.1493790" lon="-3.6544640">
        <ele>650.4</ele>
        <time>2019-06-24T14:13:14Z</time>
      </trkpt>
      <trkpt lat="37.1493180" lon="-3.6545240">
        <ele>650.5</ele>
        <time>2019-06-24T14:13:15Z</time>
      </trkpt>
      <trkpt lat="37.1492580" lon="-3.6545850">
        <ele>650.6</ele>
        <time>2019-06-24T14:13:16Z</time>
      </trkpt>
      <trkpt lat="37.1491970" lon="-3.6546480">
        <ele>650.7</ele>
        <time>2019-06-24T14:13:17Z</time>
      </trkpt>
      <trkpt lat="37.1491370" lon="-3.6547100">
        <ele>650.8</ele>
        <time>2019-06-24T14:13:18Z</time>
      </trkpt>
      <trkpt lat="37.1490740" lon="-3.6547730">
        <ele>650.9</ele>
        <time>2019-06-24T14:13:19Z</time>
      </trkpt>
      <trkpt lat="37.1490120" lon="-3.6548340">
        <ele>651.0</ele>
        <time>2019-06-24T14:13:20Z</time>
      </trkpt>
      <trkpt lat="37.1489510" lon="-3.6548950">
        <ele>651.1</ele>
        <time>2019-06-24T14:13:21Z</time>
      </trkpt>
      <trkpt lat="37.1488910" lon="-3.6549560">
        <ele>651.2</ele>
        <time>2019-06-24T14:13:22Z</time>
      </trkpt>
      <trkpt lat="37.1488310" lon="-3.6550160">
        <ele>651.3</ele>
        <time>2019-06-24T14:13:23Z</time>
      </trkpt>
      <trkpt lat="37.1487700" lon="-3.6550750">
        <ele>651.5</ele>
        <time>2019-06-24T14:13:24Z</time>
      </trkpt>
      <trkpt lat="37.1487110" lon="-3.6551320">
        <ele>651.6</ele>
        <time>2019-06-24T14:13:25Z</time>
      </trkpt>
      <trkpt lat="37.1486540" lon="-3.6551910">
        <ele>651.7</ele>
        <time>2019-06-24T14:13:26Z</time>
      </trkpt>
      <trkpt lat="37.1485980" lon="-3.6552480">
        <ele>651.8</ele>
        <time>2019-06-24T14:13:27Z</time>
      </trkpt>
      <trkpt lat="37.1485430" lon="-3.6553070">
        <ele>652.0</ele>
        <time>2019-06-24T14:13:28Z</time>
      </trkpt>
      <trkpt lat="37.1484880" lon="-3.6553610">
        <ele>652.2</ele>
        <time>2019-06-24T14:13:29Z</time>
      </trkpt>
      <trkpt lat="37.1484320" lon="-3.6554150">
        <ele>652.5</ele>
        <time>2019-06-24T14:13:30Z</time>
      </trkpt>
      <trkpt lat="37.1483770" lon="-3.6554650">
        <ele>652.7</ele>
        <time>2019-06-24T14:13:31Z</time>
      </trkpt>
      <trkpt lat="37.1483220" lon="-3.6555160">
        <ele>652.9</ele>
        <time>2019-06-24T14:13:32Z</time>
      </trkpt>
      <trkpt lat="37.1482720" lon="-3.6555720">
        <ele>653.0</ele>
        <time>2019-06-24T14:13:33Z</time>
      </trkpt>
      <trkpt lat="37.1482250" lon="-3.6556300">
        <ele>653.0</ele>
        <time>2019-06-24T14:13:34Z</time>
      </trkpt>
      <trkpt lat="37.1481840" lon="-3.6556970">
        <ele>653.0</ele>
        <time>2019-06-24T14:13:35Z</time>
      </trkpt>
      <trkpt lat="37.1481560" lon="-3.6557720">
        <ele>653.0</ele>
        <time>2019-06-24T14:13:36Z</time>
      </trkpt>
      <trkpt lat="37.1481460" lon="-3.6558560">
        <ele>652.9</ele>
        <time>2019-06-24T14:13:37Z</time>
      </trkpt>
      <trkpt lat="37.1481530" lon="-3.6559370">
        <ele>652.7</ele>
        <time>2019-06-24T14:13:38Z</time>
      </trkpt>
      <trkpt lat="37.1481680" lon="-3.6560210">
        <ele>652.6</ele>
        <time>2019-06-24T14:13:39Z</time>
      </trkpt>
      <trkpt lat="37.1481860" lon="-3.6561130">
        <ele>652.5</ele>
        <time>2019-06-24T14:13:40Z</time>
      </trkpt>
      <trkpt lat="37.1482070" lon="-3.6562070">
        <ele>652.4</ele>
        <time>2019-06-24T14:13:41Z</time>
      </trkpt>
      <trkpt lat="37.1482280" lon="-3.6563000">
        <ele>652.3</ele>
        <time>2019-06-24T14:13:42Z</time>
      </trkpt>
      <trkpt lat="37.1482490" lon="-3.6563920">
        <ele>652.2</ele>
        <time>2019-06-24T14:13:43Z</time>
      </trkpt>
      <trkpt lat="37.1482710" lon="-3.6564870">
        <ele>652.1</ele>
        <time>2019-06-24T14:13:44Z</time>
      </trkpt>
      <trkpt lat="37.1482940" lon="-3.6565830">
        <ele>652.0</ele>
        <time>2019-06-24T14:13:45Z</time>
      </trkpt>
      <trkpt lat="37.1483160" lon="-3.6566780">
        <ele>651.9</ele>
        <time>2019-06-24T14:13:46Z</time>
      </trkpt>
      <trkpt lat="37.1483390" lon="-3.6567730">
        <ele>651.8</ele>
        <time>2019-06-24T14:13:47Z</time>
      </trkpt>
      <trkpt lat="37.1483610" lon="-3.6568690">
        <ele>651.7</ele>
        <time>2019-06-24T14:13:48Z</time>
      </trkpt>
      <trkpt lat="37.1483840" lon="-3.6569640">
        <ele>651.7</ele>
        <time>2019-06-24T14:13:49Z</time>
      </trkpt>
      <trkpt lat="37.1484060" lon="-3.6570600">
        <ele>651.6</ele>
        <time>2019-06-24T14:13:50Z</time>
      </trkpt>
      <trkpt lat="37.1484290" lon="-3.6571570">
        <ele>651.5</ele>
        <time>2019-06-24T14:13:51Z</time>
      </trkpt>
      <trkpt lat="37.1484520" lon="-3.6572540">
        <ele>651.5</ele>
        <time>2019-06-24T14:13:52Z</time>
      </trkpt>
      <trkpt lat="37.1484740" lon="-3.6573520">
        <ele>651.4</ele>
        <time>2019-06-24T14:13:53Z</time>
      </trkpt>
      <trkpt lat="37.1484980" lon="-3.6574480">
        <ele>651.3</ele>
        <time>2019-06-24T14:13:54Z</time>
      </trkpt>
      <trkpt lat="37.1485190" lon="-3.6575460">
        <ele>651.3</ele>
        <time>2019-06-24T14:13:55Z</time>
      </trkpt>
      <trkpt lat="37.1485420" lon="-3.6576420">
        <ele>651.2</ele>
        <time>2019-06-24T14:13:56Z</time>
      </trkpt>
      <trkpt lat="37.1485620" lon="-3.6577360">
        <ele>651.2</ele>
        <time>2019-06-24T14:13:57Z</time>
      </trkpt>
      <trkpt lat="37.1485780" lon="-3.6578310">
        <ele>651.2</ele>
        <time>2019-06-24T14:13:58Z</time>
      </trkpt>
      <trkpt lat="37.1485920" lon="-3.6579250">
        <ele>651.2</ele>
        <time>2019-06-24T14:13:59Z</time>
      </trkpt>
      <trkpt lat="37.1486060" lon="-3.6580190">
        <ele>651.3</ele>
        <time>2019-06-24T14:14:00Z</time>
      </trkpt>
      <trkpt lat="37.1486200" lon="-3.6581140">
        <ele>651.5</ele>
        <time>2019-06-24T14:14:01Z</time>
      </trkpt>
      <trkpt lat="37.1486320" lon="-3.6582080">
        <ele>651.5</ele>
        <time>2019-06-24T14:14:02Z</time>
      </trkpt>
      <trkpt lat="37.1486380" lon="-3.6583050">
        <ele>651.5</ele>
        <time>2019-06-24T14:14:03Z</time>
      </trkpt>
      <trkpt lat="37.1486370" lon="-3.6584060">
        <ele>651.4</ele>
        <time>2019-06-24T14:14:04Z</time>
      </trkpt>
      <trkpt lat="37.1486310" lon="-3.6585090">
        <ele>651.3</ele>
        <time>2019-06-24T14:14:05Z</time>
      </trkpt>
      <trkpt lat="37.1486190" lon="-3.6586100">
        <ele>651.1</ele>
        <time>2019-06-24T14:14:06Z</time>
      </trkpt>
      <trkpt lat="37.1486040" lon="-3.6587130">
        <ele>651.0</ele>
        <time>2019-06-24T14:14:07Z</time>
      </trkpt>
      <trkpt lat="37.1485870" lon="-3.6588170">
        <ele>650.9</ele>
        <time>2019-06-24T14:14:08Z</time>
      </trkpt>
      <trkpt lat="37.1485690" lon="-3.6589230">
        <ele>651.0</ele>
        <time>2019-06-24T14:14:09Z</time>
      </trkpt>
      <trkpt lat="37.1485500" lon="-3.6590300">
        <ele>651.1</ele>
        <time>2019-06-24T14:14:10Z</time>
      </trkpt>
      <trkpt lat="37.1485320" lon="-3.6591370">
        <ele>651.2</ele>
        <time>2019-06-24T14:14:11Z</time>
      </trkpt>
      <trkpt lat="37.1485130" lon="-3.6592460">
        <ele>651.3</ele>
        <time>2019-06-24T14:14:12Z</time>
      </trkpt>
      <trkpt lat="37.1484970" lon="-3.6593550">
        <ele>651.3</ele>
        <time>2019-06-24T14:14:13Z</time>
      </trkpt>
      <trkpt lat="37.1484810" lon="-3.6594640">
        <ele>651.4</ele>
        <time>2019-06-24T14:14:14Z</time>
      </trkpt>
      <trkpt lat="37.1484630" lon="-3.6595750">
        <ele>651.4</ele>
        <time>2019-06-24T14:14:15Z</time>
      </trkpt>
      <trkpt lat="37.1484440" lon="-3.6596850">
        <ele>651.6</ele>
        <time>2019-06-24T14:14:16Z</time>
      </trkpt>
      <trkpt lat="37.1484260" lon="-3.6597940">
        <ele>651.7</ele>
        <time>2019-06-24T14:14:17Z</time>
      </trkpt>
      <trkpt lat="37.1484100" lon="-3.6599020">
        <ele>651.9</ele>
        <time>2019-06-24T14:14:18Z</time>
      </trkpt>
      <trkpt lat="37.1483940" lon="-3.6600140">
        <ele>652.0</ele>
        <time>2019-06-24T14:14:19Z</time>
      </trkpt>
      <trkpt lat="37.1483830" lon="-3.6601260">
        <ele>652.2</ele>
        <time>2019-06-24T14:14:20Z</time>
      </trkpt>
      <trkpt lat="37.1483750" lon="-3.6602400">
        <ele>652.4</ele>
        <time>2019-06-24T14:14:21Z</time>
      </trkpt>
      <trkpt lat="37.1483750" lon="-3.6603550">
        <ele>652.5</ele>
        <time>2019-06-24T14:14:22Z</time>
      </trkpt>
      <trkpt lat="37.1483840" lon="-3.6604690">
        <ele>652.6</ele>
        <time>2019-06-24T14:14:23Z</time>
      </trkpt>
      <trkpt lat="37.1484030" lon="-3.6605810">
        <ele>652.7</ele>
        <time>2019-06-24T14:14:24Z</time>
      </trkpt>
      <trkpt lat="37.1484300" lon="-3.6606890">
        <ele>652.6</ele>
        <time>2019-06-24T14:14:25Z</time>
      </trkpt>
      <trkpt lat="37.1484640" lon="-3.6607920">
        <ele>652.5</ele>
        <time>2019-06-24T14:14:26Z</time>
      </trkpt>
      <trkpt lat="37.1485030" lon="-3.6608910">
        <ele>652.3</ele>
        <time>2019-06-24T14:14:27Z</time>
      </trkpt>
      <trkpt lat="37.1485440" lon="-3.6609910">
        <ele>652.0</ele>
        <time>2019-06-24T14:14:28Z</time>
      </trkpt>
      <trkpt lat="37.1485860" lon="-3.6610910">
        <ele>651.7</ele>
        <time>2019-06-24T14:14:29Z</time>
      </trkpt>
      <trkpt lat="37.1486270" lon="-3.6611910">
        <ele>651.6</ele>
        <time>2019-06-24T14:14:30Z</time>
      </trkpt>
      <trkpt lat="37.1486670" lon="-3.6612930">
        <ele>651.0</ele>
        <time>2019-06-24T14:14:31Z</time>
      </trkpt>
      <trkpt lat="37.1487050" lon="-3.6613960">
        <ele>650.5</ele>
        <time>2019-06-24T14:14:32Z</time>
      </trkpt>
      <trkpt lat="37.1487450" lon="-3.6614980">
        <ele>650.2</ele>
        <time>2019-06-24T14:14:33Z</time>
      </trkpt>
      <trkpt lat="37.1487850" lon="-3.6616030">
        <ele>650.0</ele>
        <time>2019-06-24T14:14:34Z</time>
      </trkpt>
      <trkpt lat="37.1488290" lon="-3.6617050">
        <ele>649.8</ele>
        <time>2019-06-24T14:14:35Z</time>
      </trkpt>
      <trkpt lat="37.1488740" lon="-3.6618110">
        <ele>649.7</ele>
        <time>2019-06-24T14:14:36Z</time>
      </trkpt>
      <trkpt lat="37.1489210" lon="-3.6619150">
        <ele>649.7</ele>
        <time>2019-06-24T14:14:37Z</time>
      </trkpt>
      <trkpt lat="37.1489730" lon="-3.6620170">
        <ele>649.6</ele>
        <time>2019-06-24T14:14:38Z</time>
      </trkpt>
      <trkpt lat="37.1490310" lon="-3.6621150">
        <ele>649.6</ele>
        <time>2019-06-24T14:14:39Z</time>
      </trkpt>
      <trkpt lat="37.1490920" lon="-3.6622110">
        <ele>649.6</ele>
        <time>2019-06-24T14:14:40Z</time>
      </trkpt>
      <trkpt lat="37.1491540" lon="-3.6623030">
        <ele>649.7</ele>
        <time>2019-06-24T14:14:41Z</time>
      </trkpt>
      <trkpt lat="37.1492160" lon="-3.6623950">
        <ele>649.7</ele>
        <time>2019-06-24T14:14:42Z</time>
      </trkpt>
      <trkpt lat="37.1492810" lon="-3.6624840">
        <ele>649.7</ele>
        <time>2019-06-24T14:14:43Z</time>
      </trkpt>
      <trkpt lat="37.1493460" lon="-3.6625720">
        <ele>649.6</ele>
        <time>2019-06-24T14:14:44Z</time>
      </trkpt>
      <trkpt lat="37.1494110" lon="-3.6626610">
        <ele>649.6</ele>
        <time>2019-06-24T14:14:45Z</time>
      </trkpt>
      <trkpt lat="37.1494760" lon="-3.6627480">
        <ele>649.5</ele>
        <time>2019-06-24T14:14:46Z</time>
      </trkpt>
      <trkpt lat="37.1495380" lon="-3.6628360">
        <ele>649.4</ele>
        <time>2019-06-24T14:14:47Z</time>
      </trkpt>
      <trkpt lat="37.1495910" lon="-3.6629320">
        <ele>649.4</ele>
        <time>2019-06-24T14:14:48Z</time>
      </trkpt>
      <trkpt lat="37.1496340" lon="-3.6630340">
        <ele>649.4</ele>
        <time>2019-06-24T14:14:49Z</time>
      </trkpt>
      <trkpt lat="37.1496660" lon="-3.6631430">
        <ele>649.3</ele>
        <time>2019-06-24T14:14:50Z</time>
      </trkpt>
      <trkpt lat="37.1496870" lon="-3.6632550">
        <ele>649.2</ele>
        <time>2019-06-24T14:14:51Z</time>
      </trkpt>
      <trkpt lat="37.1496930" lon="-3.6633690">
        <ele>649.1</ele>
        <time>2019-06-24T14:14:52Z</time>
      </trkpt>
      <trkpt lat="37.1496910" lon="-3.6634830">
        <ele>649.0</ele>
        <time>2019-06-24T14:14:53Z</time>
      </trkpt>
      <trkpt lat="37.1496850" lon="-3.6635960">
        <ele>648.9</ele>
        <time>2019-06-24T14:14:54Z</time>
      </trkpt>
      <trkpt lat="37.1496790" lon="-3.6637110">
        <ele>648.7</ele>
        <time>2019-06-24T14:14:55Z</time>
      </trkpt>
      <trkpt lat="37.1496730" lon="-3.6638270">
        <ele>648.5</ele>
        <time>2019-06-24T14:14:56Z</time>
      </trkpt>
      <trkpt lat="37.1496670" lon="-3.6639380">
        <ele>648.3</ele>
        <time>2019-06-24T14:14:57Z</time>
      </trkpt>
      <trkpt lat="37.1496610" lon="-3.6640480">
        <ele>648.2</ele>
        <time>2019-06-24T14:14:58Z</time>
      </trkpt>
      <trkpt lat="37.1496550" lon="-3.6641610">
        <ele>648.1</ele>
        <time>2019-06-24T14:14:59Z</time>
      </trkpt>
      <trkpt lat="37.1496470" lon="-3.6642740">
        <ele>648.0</ele>
        <time>2019-06-24T14:15:00Z</time>
      </trkpt>
      <trkpt lat="37.1496400" lon="-3.6643890">
        <ele>648.0</ele>
        <time>2019-06-24T14:15:01Z</time>
      </trkpt>
      <trkpt lat="37.1496320" lon="-3.6645020">
        <ele>647.9</ele>
        <time>2019-06-24T14:15:02Z</time>
      </trkpt>
      <trkpt lat="37.1496320" lon="-3.6646150">
        <ele>647.9</ele>
        <time>2019-06-24T14:15:03Z</time>
      </trkpt>
      <trkpt lat="37.1496450" lon="-3.6647270">
        <ele>647.9</ele>
        <time>2019-06-24T14:15:04Z</time>
      </trkpt>
      <trkpt lat="37.1496720" lon="-3.6648380">
        <ele>647.8</ele>
        <time>2019-06-24T14:15:05Z</time>
      </trkpt>
      <trkpt lat="37.1497100" lon="-3.6649420">
        <ele>647.7</ele>
        <time>2019-06-24T14:15:06Z</time>
      </trkpt>
      <trkpt lat="37.1497570" lon="-3.6650390">
        <ele>647.6</ele>
        <time>2019-06-24T14:15:07Z</time>
      </trkpt>
      <trkpt lat="37.1498080" lon="-3.6651310">
        <ele>647.6</ele>
        <time>2019-06-24T14:15:08Z</time>
      </trkpt>
      <trkpt lat="37.1498620" lon="-3.6652200">
        <ele>647.5</ele>
        <time>2019-06-24T14:15:09Z</time>
      </trkpt>
      <trkpt lat="37.1499150" lon="-3.6653080">
        <ele>647.4</ele>
        <time>2019-06-24T14:15:10Z</time>
      </trkpt>
      <trkpt lat="37.1499660" lon="-3.6653920">
        <ele>647.4</ele>
        <time>2019-06-24T14:15:11Z</time>
      </trkpt>
      <trkpt lat="37.1500140" lon="-3.6654770">
        <ele>647.3</ele>
        <time>2019-06-24T14:15:12Z</time>
      </trkpt>
      <trkpt lat="37.1500590" lon="-3.6655600">
        <ele>647.2</ele>
        <time>2019-06-24T14:15:13Z</time>
      </trkpt>
      <trkpt lat="37.1501040" lon="-3.6656370">
        <ele>647.2</ele>
        <time>2019-06-24T14:15:14Z</time>
      </trkpt>
      <trkpt lat="37.1501470" lon="-3.6657110">
        <ele>647.1</ele>
        <time>2019-06-24T14:15:15Z</time>
      </trkpt>
      <trkpt lat="37.1501900" lon="-3.6657810">
        <ele>647.0</ele>
        <time>2019-06-24T14:15:16Z</time>
      </trkpt>
      <trkpt lat="37.1502310" lon="-3.6658490">
        <ele>647.0</ele>
        <time>2019-06-24T14:15:17Z</time>
      </trkpt>
      <trkpt lat="37.1502710" lon="-3.6659100">
        <ele>647.0</ele>
        <time>2019-06-24T14:15:18Z</time>
      </trkpt>
      <trkpt lat="37.1503080" lon="-3.6659660">
        <ele>646.9</ele>
        <time>2019-06-24T14:15:19Z</time>
      </trkpt>
      <trkpt lat="37.1503410" lon="-3.6660150">
        <ele>646.9</ele>
        <time>2019-06-24T14:15:20Z</time>
      </trkpt>
      <trkpt lat="37.1503710" lon="-3.6660630">
        <ele>646.9</ele>
        <time>2019-06-24T14:15:21Z</time>
      </trkpt>
      <trkpt lat="37.1503890" lon="-3.6661110">
        <ele>646.9</ele>
        <time>2019-06-24T14:15:22Z</time>
      </trkpt>
      <trkpt lat="37.1503850" lon="-3.6661630">
        <ele>646.9</ele>
        <time>2019-06-24T14:15:23Z</time>
      </trkpt>
      <trkpt lat="37.1503640" lon="-3.6662140">
        <ele>647.0</ele>
        <time>2019-06-24T14:15:24Z</time>
      </trkpt>
      <trkpt lat="37.1503350" lon="-3.6662600">
        <ele>647.1</ele>
        <time>2019-06-24T14:15:25Z</time>
      </trkpt>
      <trkpt lat="37.1503020" lon="-3.6663100">
        <ele>647.2</ele>
        <time>2019-06-24T14:15:26Z</time>
      </trkpt>
      <trkpt lat="37.1502710" lon="-3.6663590">
        <ele>647.3</ele>
        <time>2019-06-24T14:15:27Z</time>
      </trkpt>
      <trkpt lat="37.1502360" lon="-3.6664140">
        <ele>647.4</ele>
        <time>2019-06-24T14:15:28Z</time>
      </trkpt>
      <trkpt lat="37.1501980" lon="-3.6664700">
        <ele>647.6</ele>
        <time>2019-06-24T14:15:29Z</time>
      </trkpt>
      <trkpt lat="37.1501590" lon="-3.6665290">
        <ele>647.8</ele>
        <time>2019-06-24T14:15:30Z</time>
      </trkpt>
      <trkpt lat="37.1501220" lon="-3.6665910">
        <ele>647.9</ele>
        <time>2019-06-24T14:15:31Z</time>
      </trkpt>
      <trkpt lat="37.1500820" lon="-3.6666540">
        <ele>648.0</ele>
        <time>2019-06-24T14:15:32Z</time>
      </trkpt>
      <trkpt lat="37.1500390" lon="-3.6667210">
        <ele>648.1</ele>
        <time>2019-06-24T14:15:33Z</time>
      </trkpt>
      <trkpt lat="37.1499960" lon="-3.6667850">
        <ele>648.2</ele>
        <time>2019-06-24T14:15:34Z</time>
      </trkpt>
      <trkpt lat="37.1499500" lon="-3.6668560">
        <ele>648.3</ele>
        <time>2019-06-24T14:15:35Z</time>
      </trkpt>
      <trkpt lat="37.1499040" lon="-3.6669260">
        <ele>648.3</ele>
        <time>2019-06-24T14:15:36Z</time>
      </trkpt>
      <trkpt lat="37.1498580" lon="-3.6669920">
        <ele>648.4</ele>
        <time>2019-06-24T14:15:37Z</time>
      </trkpt>
      <trkpt lat="37.1498160" lon="-3.6670620">
        <ele>648.4</ele>
        <time>2019-06-24T14:15:38Z</time>
      </trkpt>
      <trkpt lat="37.1497780" lon="-3.6671330">
        <ele>648.5</ele>
        <time>2019-06-24T14:15:39Z</time>
      </trkpt>
      <trkpt lat="37.1497370" lon="-3.6672060">
        <ele>648.5</ele>
        <time>2019-06-24T14:15:40Z</time>
      </trkpt>
      <trkpt lat="37.1496940" lon="-3.6672780">
        <ele>648.7</ele>
        <time>2019-06-24T14:15:41Z</time>
      </trkpt>
      <trkpt lat="37.1496550" lon="-3.6673470">
        <ele>648.8</ele>
        <time>2019-06-24T14:15:42Z</time>
      </trkpt>
      <trkpt lat="37.1496150" lon="-3.6674200">
        <ele>648.8</ele>
        <time>2019-06-24T14:15:43Z</time>
      </trkpt>
      <trkpt lat="37.1495750" lon="-3.6674940">
        <ele>648.9</ele>
        <time>2019-06-24T14:15:44Z</time>
      </trkpt>
      <trkpt lat="37.1495350" lon="-3.6675690">
        <ele>649.0</ele>
        <time>2019-06-24T14:15:45Z</time>
      </trkpt>
      <trkpt lat="37.1494940" lon="-3.6676450">
        <ele>649.0</ele>
        <time>2019-06-24T14:15:46Z</time>
      </trkpt>
      <trkpt lat="37.1494530" lon="-3.6677180">
        <ele>649.1</ele>
        <time>2019-06-24T14:15:47Z</time>
      </trkpt>
      <trkpt lat="37.1494120" lon="-3.6677900">
        <ele>649.1</ele>
        <time>2019-06-24T14:15:48Z</time>
      </trkpt>
      <trkpt lat="37.1493700" lon="-3.6678630">
        <ele>649.1</ele>
        <time>2019-06-24T14:15:49Z</time>
      </trkpt>
      <trkpt lat="37.1493320" lon="-3.6679350">
        <ele>649.1</ele>
        <time>2019-06-24T14:15:50Z</time>
      </trkpt>
      <trkpt lat="37.1492940" lon="-3.6680050">
        <ele>649.2</ele>
        <time>2019-06-24T14:15:51Z</time>
      </trkpt>
      <trkpt lat="37.1492560" lon="-3.6680760">
        <ele>649.2</ele>
        <time>2019-06-24T14:15:52Z</time>
      </trkpt>
      <trkpt lat="37.1492180" lon="-3.6681440">
        <ele>649.2</ele>
        <time>2019-06-24T14:15:53Z</time>
      </trkpt>
      <trkpt lat="37.1491820" lon="-3.6682120">
        <ele>649.3</ele>
        <time>2019-06-24T14:15:54Z</time>
      </trkpt>
      <trkpt lat="37.1491470" lon="-3.6682800">
        <ele>649.4</ele>
        <time>2019-06-24T14:15:55Z</time>
      </trkpt>
      <trkpt lat="37.1491070" lon="-3.6683480">
        <ele>649.4</ele>
        <time>2019-06-24T14:15:56Z</time>
      </trkpt>
      <trkpt lat="37.1490670" lon="-3.6684220">
        <ele>649.4</ele>
        <time>2019-06-24T14:15:57Z</time>
      </trkpt>
      <trkpt lat="37.1490280" lon="-3.6684900">
        <ele>649.5</ele>
        <time>2019-06-24T14:15:58Z</time>
      </trkpt>
      <trkpt lat="37.1489900" lon="-3.6685600">
        <ele>649.5</ele>
        <time>2019-06-24T14:15:59Z</time>
      </trkpt>
      <trkpt lat="37.1489500" lon="-3.6686270">
        <ele>649.5</ele>
        <time>2019-06-24T14:16:00Z</time>
      </trkpt>
      <trkpt lat="37.1489090" lon="-3.6686940">
        <ele>649.6</ele>
        <time>2019-06-24T14:16:01Z</time>
      </trkpt>
      <trkpt lat="37.1488720" lon="-3.6687550">
        <ele>649.6</ele>
        <time>2019-06-24T14:16:02Z</time>
      </trkpt>
      <trkpt lat="37.1488370" lon="-3.6688130">
        <ele>649.7</ele>
        <time>2019-06-24T14:16:03Z</time>
      </trkpt>
      <trkpt lat="37.1488100" lon="-3.6688660">
        <ele>649.7</ele>
        <time>2019-06-24T14:16:04Z</time>
      </trkpt>
      <trkpt lat="37.1487950" lon="-3.6689330">
        <ele>649.8</ele>
        <time>2019-06-24T14:16:05Z</time>
      </trkpt>
      <trkpt lat="37.1487910" lon="-3.6690050">
        <ele>649.8</ele>
        <time>2019-06-24T14:16:06Z</time>
      </trkpt>
      <trkpt lat="37.1487860" lon="-3.6690850">
        <ele>649.7</ele>
        <time>2019-06-24T14:16:07Z</time>
      </trkpt>
      <trkpt lat="37.1487780" lon="-3.6691640">
        <ele>649.6</ele>
        <time>2019-06-24T14:16:08Z</time>
      </trkpt>
      <trkpt lat="37.1487660" lon="-3.6692460">
        <ele>649.5</ele>
        <time>2019-06-24T14:16:09Z</time>
      </trkpt>
      <trkpt lat="37.1487530" lon="-3.6693270">
        <ele>649.4</ele>
        <time>2019-06-24T14:16:10Z</time>
      </trkpt>
      <trkpt lat="37.1487500" lon="-3.6693950">
        <ele>649.3</ele>
        <time>2019-06-24T14:16:11Z</time>
      </trkpt>
      <trkpt lat="37.1487680" lon="-3.6694740">
        <ele>649.2</ele>
        <time>2019-06-24T14:16:12Z</time>
      </trkpt>
      <trkpt lat="37.1488190" lon="-3.6695300">
        <ele>649.0</ele>
        <time>2019-06-24T14:16:13Z</time>
      </trkpt>
      <trkpt lat="37.1488790" lon="-3.6695820">
        <ele>648.8</ele>
        <time>2019-06-24T14:16:14Z</time>
      </trkpt>
      <trkpt lat="37.1489370" lon="-3.6696460">
        <ele>648.6</ele>
        <time>2019-06-24T14:16:15Z</time>
      </trkpt>
      <trkpt lat="37.1490000" lon="-3.6697040">
        <ele>648.5</ele>
        <time>2019-06-24T14:16:16Z</time>
      </trkpt>
      <trkpt lat="37.1490580" lon="-3.6697690">
        <ele>648.3</ele>
        <time>2019-06-24T14:16:17Z</time>
      </trkpt>
      <trkpt lat="37.1491110" lon="-3.6698390">
        <ele>648.3</ele>
        <time>2019-06-24T14:16:18Z</time>
      </trkpt>
      <trkpt lat="37.1491640" lon="-3.6699080">
        <ele>648.3</ele>
        <time>2019-06-24T14:16:19Z</time>
      </trkpt>
      <trkpt lat="37.1492140" lon="-3.6699810">
        <ele>648.3</ele>
        <time>2019-06-24T14:16:20Z</time>
      </trkpt>
      <trkpt lat="37.1492650" lon="-3.6700540">
        <ele>648.4</ele>
        <time>2019-06-24T14:16:21Z</time>
      </trkpt>
      <trkpt lat="37.1493170" lon="-3.6701280">
        <ele>648.5</ele>
        <time>2019-06-24T14:16:22Z</time>
      </trkpt>
      <trkpt lat="37.1493680" lon="-3.6702040">
        <ele>648.6</ele>
        <time>2019-06-24T14:16:23Z</time>
      </trkpt>
      <trkpt lat="37.1494200" lon="-3.6702780">
        <ele>648.6</ele>
        <time>2019-06-24T14:16:24Z</time>
      </trkpt>
      <trkpt lat="37.1494700" lon="-3.6703540">
        <ele>648.7</ele>
        <time>2019-06-24T14:16:25Z</time>
      </trkpt>
      <trkpt lat="37.1495240" lon="-3.6704290">
        <ele>648.9</ele>
        <time>2019-06-24T14:16:26Z</time>
      </trkpt>
      <trkpt lat="37.1495760" lon="-3.6705050">
        <ele>649.1</ele>
        <time>2019-06-24T14:16:27Z</time>
      </trkpt>
      <trkpt lat="37.1496290" lon="-3.6705770">
        <ele>649.2</ele>
        <time>2019-06-24T14:16:28Z</time>
      </trkpt>
      <trkpt lat="37.1496900" lon="-3.6706470">
        <ele>649.4</ele>
        <time>2019-06-24T14:16:29Z</time>
      </trkpt>
      <trkpt lat="37.1497510" lon="-3.6707130">
        <ele>649.3</ele>
        <time>2019-06-24T14:16:30Z</time>
      </trkpt>
      <trkpt lat="37.1498140" lon="-3.6707800">
        <ele>649.2</ele>
        <time>2019-06-24T14:16:31Z</time>
      </trkpt>
      <trkpt lat="37.1498650" lon="-3.6708540">
        <ele>649.1</ele>
        <time>2019-06-24T14:16:32Z</time>
      </trkpt>
      <trkpt lat="37.1498970" lon="-3.6709400">
        <ele>649.0</ele>
        <time>2019-06-24T14:16:33Z</time>
      </trkpt>
      <trkpt lat="37.1499030" lon="-3.6710310">
        <ele>648.8</ele>
        <time>2019-06-24T14:16:34Z</time>
      </trkpt>
      <trkpt lat="37.1498930" lon="-3.6711190">
        <ele>648.6</ele>
        <time>2019-06-24T14:16:35Z</time>
      </trkpt>
      <trkpt lat="37.1498580" lon="-3.6712010">
        <ele>648.3</ele>
        <time>2019-06-24T14:16:36Z</time>
      </trkpt>
      <trkpt lat="37.1498120" lon="-3.6712770">
        <ele>648.0</ele>
        <time>2019-06-24T14:16:37Z</time>
      </trkpt>
      <trkpt lat="37.1497680" lon="-3.6713570">
        <ele>647.7</ele>
        <time>2019-06-24T14:16:38Z</time>
      </trkpt>
      <trkpt lat="37.1497290" lon="-3.6714430">
        <ele>647.4</ele>
        <time>2019-06-24T14:16:39Z</time>
      </trkpt>
      <trkpt lat="37.1496900" lon="-3.6715270">
        <ele>647.1</ele>
        <time>2019-06-24T14:16:40Z</time>
      </trkpt>
      <trkpt lat="37.1496470" lon="-3.6716100">
        <ele>646.9</ele>
        <time>2019-06-24T14:16:41Z</time>
      </trkpt>
      <trkpt lat="37.1496040" lon="-3.6716920">
        <ele>646.8</ele>
        <time>2019-06-24T14:16:42Z</time>
      </trkpt>
      <trkpt lat="37.1495610" lon="-3.6717780">
        <ele>646.6</ele>
        <time>2019-06-24T14:16:43Z</time>
      </trkpt>
      <trkpt lat="37.1495190" lon="-3.6718640">
        <ele>646.4</ele>
        <time>2019-06-24T14:16:44Z</time>
      </trkpt>
      <trkpt lat="37.1494750" lon="-3.6719490">
        <ele>646.2</ele>
        <time>2019-06-24T14:16:45Z</time>
      </trkpt>
      <trkpt lat="37.1494300" lon="-3.6720350">
        <ele>646.1</ele>
        <time>2019-06-24T14:16:46Z</time>
      </trkpt>
      <trkpt lat="37.1493850" lon="-3.6721190">
        <ele>646.0</ele>
        <time>2019-06-24T14:16:47Z</time>
      </trkpt>
      <trkpt lat="37.1493410" lon="-3.6722040">
        <ele>645.9</ele>
        <time>2019-06-24T14:16:48Z</time>
      </trkpt>
      <trkpt lat="37.1492990" lon="-3.6722900">
        <ele>646.0</ele>
        <time>2019-06-24T14:16:49Z</time>
      </trkpt>
      <trkpt lat="37.1492570" lon="-3.6723760">
        <ele>646.2</ele>
        <time>2019-06-24T14:16:50Z</time>
      </trkpt>
      <trkpt lat="37.1492150" lon="-3.6724600">
        <ele>646.3</ele>
        <time>2019-06-24T14:16:51Z</time>
      </trkpt>
      <trkpt lat="37.1491690" lon="-3.6725410">
        <ele>646.4</ele>
        <time>2019-06-24T14:16:52Z</time>
      </trkpt>
      <trkpt lat="37.1491200" lon="-3.6726190">
        <ele>646.5</ele>
        <time>2019-06-24T14:16:53Z</time>
      </trkpt>
      <trkpt lat="37.1490690" lon="-3.6726960">
        <ele>646.6</ele>
        <time>2019-06-24T14:16:54Z</time>
      </trkpt>
      <trkpt lat="37.1490200" lon="-3.6727730">
        <ele>646.7</ele>
        <time>2019-06-24T14:16:55Z</time>
      </trkpt>
      <trkpt lat="37.1489700" lon="-3.6728490">
        <ele>646.8</ele>
        <time>2019-06-24T14:16:56Z</time>
      </trkpt>
      <trkpt lat="37.1489240" lon="-3.6729260">
        <ele>646.9</ele>
        <time>2019-06-24T14:16:57Z</time>
      </trkpt>
      <trkpt lat="37.1488730" lon="-3.6730020">
        <ele>647.0</ele>
        <time>2019-06-24T14:16:58Z</time>
      </trkpt>
      <trkpt lat="37.1488220" lon="-3.6730750">
        <ele>647.0</ele>
        <time>2019-06-24T14:16:59Z</time>
      </trkpt>
      <trkpt lat="37.1487730" lon="-3.6731490">
        <ele>647.1</ele>
        <time>2019-06-24T14:17:00Z</time>
      </trkpt>
      <trkpt lat="37.1487240" lon="-3.6732230">
        <ele>647.2</ele>
        <time>2019-06-24T14:17:01Z</time>
      </trkpt>
      <trkpt lat="37.1486770" lon="-3.6732990">
        <ele>647.3</ele>
        <time>2019-06-24T14:17:02Z</time>
      </trkpt>
      <trkpt lat="37.1486300" lon="-3.6733740">
        <ele>647.4</ele>
        <time>2019-06-24T14:17:03Z</time>
      </trkpt>
      <trkpt lat="37.1485820" lon="-3.6734480">
        <ele>647.5</ele>
        <time>2019-06-24T14:17:04Z</time>
      </trkpt>
      <trkpt lat="37.1485310" lon="-3.6735200">
        <ele>647.6</ele>
        <time>2019-06-24T14:17:05Z</time>
      </trkpt>
      <trkpt lat="37.1484790" lon="-3.6735900">
        <ele>647.7</ele>
        <time>2019-06-24T14:17:06Z</time>
      </trkpt>
      <trkpt lat="37.1484260" lon="-3.6736600">
        <ele>647.9</ele>
        <time>2019-06-24T14:17:07Z</time>
      </trkpt>
      <trkpt lat="37.1483710" lon="-3.6737280">
        <ele>648.0</ele>
        <time>2019-06-24T14:17:08Z</time>
      </trkpt>
      <trkpt lat="37.1483150" lon="-3.6737950">
        <ele>648.1</ele>
        <time>2019-06-24T14:17:09Z</time>
      </trkpt>
      <trkpt lat="37.1482600" lon="-3.6738570">
        <ele>648.3</ele>
        <time>2019-06-24T14:17:10Z</time>
      </trkpt>
      <trkpt lat="37.1482070" lon="-3.6739220">
        <ele>648.4</ele>
        <time>2019-06-24T14:17:11Z</time>
      </trkpt>
      <trkpt lat="37.1481510" lon="-3.6739870">
        <ele>648.5</ele>
        <time>2019-06-24T14:17:12Z</time>
      </trkpt>
      <trkpt lat="37.1480960" lon="-3.6740540">
        <ele>648.6</ele>
        <time>2019-06-24T14:17:13Z</time>
      </trkpt>
      <trkpt lat="37.1480390" lon="-3.6741220">
        <ele>648.7</ele>
        <time>2019-06-24T14:17:14Z</time>
      </trkpt>
      <trkpt lat="37.1479810" lon="-3.6741870">
        <ele>648.7</ele>
        <time>2019-06-24T14:17:15Z</time>
      </trkpt>
      <trkpt lat="37.1479230" lon="-3.6742500">
        <ele>648.8</ele>
        <time>2019-06-24T14:17:16Z</time>
      </trkpt>
      <trkpt lat="37.1478660" lon="-3.6743120">
        <ele>648.9</ele>
        <time>2019-06-24T14:17:17Z</time>
      </trkpt>
      <trkpt lat="37.1478100" lon="-3.6743750">
        <ele>649.0</ele>
        <time>2019-06-24T14:17:18Z</time>
      </trkpt>
      <trkpt lat="37.1477530" lon="-3.6744390">
        <ele>649.1</ele>
        <time>2019-06-24T14:17:19Z</time>
      </trkpt>
      <trkpt lat="37.1476960" lon="-3.6744990">
        <ele>649.2</ele>
        <time>2019-06-24T14:17:20Z</time>
      </trkpt>
      <trkpt lat="37.1476440" lon="-3.6745590">
        <ele>649.4</ele>
        <time>2019-06-24T14:17:21Z</time>
      </trkpt>
      <trkpt lat="37.1475920" lon="-3.6746230">
        <ele>649.6</ele>
        <time>2019-06-24T14:17:22Z</time>
      </trkpt>
      <trkpt lat="37.1475420" lon="-3.6746880">
        <ele>649.8</ele>
        <time>2019-06-24T14:17:23Z</time>
      </trkpt>
      <trkpt lat="37.1474930" lon="-3.6747540">
        <ele>650.1</ele>
        <time>2019-06-24T14:17:24Z</time>
      </trkpt>
      <trkpt lat="37.1474460" lon="-3.6748210">
        <ele>650.3</ele>
        <time>2019-06-24T14:17:25Z</time>
      </trkpt>
      <trkpt lat="37.1473980" lon="-3.6748860">
        <ele>650.5</ele>
        <time>2019-06-24T14:17:26Z</time>
      </trkpt>
      <trkpt lat="37.1473520" lon="-3.6749500">
        <ele>650.6</ele>
        <time>2019-06-24T14:17:27Z</time>
      </trkpt>
      <trkpt lat="37.1473050" lon="-3.6750130">
        <ele>650.7</ele>
        <time>2019-06-24T14:17:28Z</time>
      </trkpt>
      <trkpt lat="37.1472600" lon="-3.6750750">
        <ele>650.8</ele>
        <time>2019-06-24T14:17:29Z</time>
      </trkpt>
      <trkpt lat="37.1472170" lon="-3.6751340">
        <ele>650.9</ele>
        <time>2019-06-24T14:17:30Z</time>
      </trkpt>
      <trkpt lat="37.1471780" lon="-3.6751870">
        <ele>651.1</ele>
        <time>2019-06-24T14:17:31Z</time>
      </trkpt>
      <trkpt lat="37.1471490" lon="-3.6752210">
        <ele>651.1</ele>
        <time>2019-06-24T14:17:32Z</time>
      </trkpt>
      <trkpt lat="37.1471370" lon="-3.6752530">
        <ele>651.1</ele>
        <time>2019-06-24T14:17:33Z</time>
      </trkpt>
      <trkpt lat="37.1471340" lon="-3.6752950">
        <ele>651.2</ele>
        <time>2019-06-24T14:17:34Z</time>
      </trkpt>
      <trkpt lat="37.1471430" lon="-3.6753450">
        <ele>651.2</ele>
        <time>2019-06-24T14:17:35Z</time>
      </trkpt>
      <trkpt lat="37.1471650" lon="-3.6753960">
        <ele>651.2</ele>
        <time>2019-06-24T14:17:36Z</time>
      </trkpt>
      <trkpt lat="37.1471980" lon="-3.6754430">
        <ele>651.0</ele>
        <time>2019-06-24T14:17:37Z</time>
      </trkpt>
      <trkpt lat="37.1472370" lon="-3.6754870">
        <ele>650.9</ele>
        <time>2019-06-24T14:17:38Z</time>
      </trkpt>
      <trkpt lat="37.1472760" lon="-3.6755350">
        <ele>650.8</ele>
        <time>2019-06-24T14:17:39Z</time>
      </trkpt>
      <trkpt lat="37.1473170" lon="-3.6755880">
        <ele>650.8</ele>
        <time>2019-06-24T14:17:40Z</time>
      </trkpt>
      <trkpt lat="37.1473570" lon="-3.6756450">
        <ele>650.7</ele>
        <time>2019-06-24T14:17:41Z</time>
      </trkpt>
      <trkpt lat="37.1474000" lon="-3.6757050">
        <ele>650.6</ele>
        <time>2019-06-24T14:17:42Z</time>
      </trkpt>
      <trkpt lat="37.1474430" lon="-3.6757650">
        <ele>650.6</ele>
        <time>2019-06-24T14:17:43Z</time>
      </trkpt>
      <trkpt lat="37.1474860" lon="-3.6758280">
        <ele>650.6</ele>
        <time>2019-06-24T14:17:44Z</time>
      </trkpt>
      <trkpt lat="37.1475300" lon="-3.6758920">
        <ele>650.7</ele>
        <time>2019-06-24T14:17:45Z</time>
      </trkpt>
      <trkpt lat="37.1475740" lon="-3.6759570">
        <ele>650.7</ele>
        <time>2019-06-24T14:17:46Z</time>
      </trkpt>
      <trkpt lat="37.1476190" lon="-3.6760220">
        <ele>650.8</ele>
        <time>2019-06-24T14:17:47Z</time>
      </trkpt>
      <trkpt lat="37.1476660" lon="-3.6760880">
        <ele>650.8</ele>
        <time>2019-06-24T14:17:48Z</time>
      </trkpt>
      <trkpt lat="37.1477130" lon="-3.6761540">
        <ele>650.9</ele>
        <time>2019-06-24T14:17:49Z</time>
      </trkpt>
      <trkpt lat="37.1477600" lon="-3.6762200">
        <ele>650.9</ele>
        <time>2019-06-24T14:17:50Z</time>
      </trkpt>
      <trkpt lat="37.1478080" lon="-3.6762890">
        <ele>651.0</ele>
        <time>2019-06-24T14:17:51Z</time>
      </trkpt>
      <trkpt lat="37.1478540" lon="-3.6763600">
        <ele>651.1</ele>
        <time>2019-06-24T14:17:52Z</time>
      </trkpt>
      <trkpt lat="37.1478990" lon="-3.6764330">
        <ele>651.2</ele>
        <time>2019-06-24T14:17:53Z</time>
      </trkpt>
      <trkpt lat="37.1479450" lon="-3.6765060">
        <ele>651.3</ele>
        <time>2019-06-24T14:17:54Z</time>
      </trkpt>
      <trkpt lat="37.1479910" lon="-3.6765780">
        <ele>651.3</ele>
        <time>2019-06-24T14:17:55Z</time>
      </trkpt>
      <trkpt lat="37.1480370" lon="-3.6766500">
        <ele>651.3</ele>
        <time>2019-06-24T14:17:56Z</time>
      </trkpt>
      <trkpt lat="37.1480840" lon="-3.6767190">
        <ele>651.4</ele>
        <time>2019-06-24T14:17:57Z</time>
      </trkpt>
      <trkpt lat="37.1481310" lon="-3.6767880">
        <ele>651.4</ele>
        <time>2019-06-24T14:17:58Z</time>
      </trkpt>
      <trkpt lat="37.1481760" lon="-3.6768580">
        <ele>651.6</ele>
        <time>2019-06-24T14:17:59Z</time>
      </trkpt>
      <trkpt lat="37.1482210" lon="-3.6769300">
        <ele>651.7</ele>
        <time>2019-06-24T14:18:00Z</time>
      </trkpt>
      <trkpt lat="37.1482640" lon="-3.6770020">
        <ele>651.8</ele>
        <time>2019-06-24T14:18:01Z</time>
      </trkpt>
      <trkpt lat="37.1483030" lon="-3.6770790">
        <ele>651.8</ele>
        <time>2019-06-24T14:18:02Z</time>
      </trkpt>
      <trkpt lat="37.1483420" lon="-3.6771560">
        <ele>651.8</ele>
        <time>2019-06-24T14:18:03Z</time>
      </trkpt>
      <trkpt lat="37.1483820" lon="-3.6772300">
        <ele>651.9</ele>
        <time>2019-06-24T14:18:04Z</time>
      </trkpt>
      <trkpt lat="37.1484230" lon="-3.6773070">
        <ele>651.9</ele>
        <time>2019-06-24T14:18:05Z</time>
      </trkpt>
      <trkpt lat="37.1484620" lon="-3.6773840">
        <ele>651.9</ele>
        <time>2019-06-24T14:18:06Z</time>
      </trkpt>
      <trkpt lat="37.1485000" lon="-3.6774620">
        <ele>651.9</ele>
        <time>2019-06-24T14:18:07Z</time>
      </trkpt>
      <trkpt lat="37.1485370" lon="-3.6775400">
        <ele>651.9</ele>
        <time>2019-06-24T14:18:08Z</time>
      </trkpt>
      <trkpt lat="37.1485750" lon="-3.6776170">
        <ele>651.9</ele>
        <time>2019-06-24T14:18:09Z</time>
      </trkpt>
      <trkpt lat="37.1486140" lon="-3.6776840">
        <ele>651.9</ele>
        <time>2019-06-24T14:18:10Z</time>
      </trkpt>
      <trkpt lat="37.1486500" lon="-3.6777310">
        <ele>651.9</ele>
        <time>2019-06-24T14:18:11Z</time>
      </trkpt>
      <trkpt lat="37.1486760" lon="-3.6777700">
        <ele>651.8</ele>
        <time>2019-06-24T14:18:12Z</time>
      </trkpt>
      <trkpt lat="37.1486870" lon="-3.6778110">
        <ele>651.8</ele>
        <time>2019-06-24T14:18:13Z</time>
      </trkpt>
      <trkpt lat="37.1486810" lon="-3.6778520">
        <ele>651.8</ele>
        <time>2019-06-24T14:18:14Z</time>
      </trkpt>
      <trkpt lat="37.1486640" lon="-3.6778860">
        <ele>651.8</ele>
        <time>2019-06-24T14:18:15Z</time>
      </trkpt>
      <trkpt lat="37.1486400" lon="-3.6779260">
        <ele>651.9</ele>
        <time>2019-06-24T14:18:16Z</time>
      </trkpt>
      <trkpt lat="37.1486050" lon="-3.6779770">
        <ele>651.9</ele>
        <time>2019-06-24T14:18:17Z</time>
      </trkpt>
      <trkpt lat="37.1485690" lon="-3.6780280">
        <ele>651.9</ele>
        <time>2019-06-24T14:18:18Z</time>
      </trkpt>
      <trkpt lat="37.1485300" lon="-3.6780860">
        <ele>651.9</ele>
        <time>2019-06-24T14:18:19Z</time>
      </trkpt>
      <trkpt lat="37.1484920" lon="-3.6781460">
        <ele>651.9</ele>
        <time>2019-06-24T14:18:20Z</time>
      </trkpt>
      <trkpt lat="37.1484540" lon="-3.6782080">
        <ele>651.9</ele>
        <time>2019-06-24T14:18:21Z</time>
      </trkpt>
      <trkpt lat="37.1484150" lon="-3.6782700">
        <ele>651.9</ele>
        <time>2019-06-24T14:18:22Z</time>
      </trkpt>
      <trkpt lat="37.1483770" lon="-3.6783330">
        <ele>651.9</ele>
        <time>2019-06-24T14:18:23Z</time>
      </trkpt>
      <trkpt lat="37.1483340" lon="-3.6783920">
        <ele>652.0</ele>
        <time>2019-06-24T14:18:24Z</time>
      </trkpt>
      <trkpt lat="37.1482930" lon="-3.6784510">
        <ele>652.0</ele>
        <time>2019-06-24T14:18:25Z</time>
      </trkpt>
      <trkpt lat="37.1482530" lon="-3.6785110">
        <ele>652.0</ele>
        <time>2019-06-24T14:18:26Z</time>
      </trkpt>
      <trkpt lat="37.1482130" lon="-3.6785690">
        <ele>652.0</ele>
        <time>2019-06-24T14:18:27Z</time>
      </trkpt>
      <trkpt lat="37.1481770" lon="-3.6786260">
        <ele>652.1</ele>
        <time>2019-06-24T14:18:28Z</time>
      </trkpt>
      <trkpt lat="37.1481420" lon="-3.6786820">
        <ele>652.1</ele>
        <time>2019-06-24T14:18:29Z</time>
      </trkpt>
      <trkpt lat="37.1481060" lon="-3.6787370">
        <ele>652.2</ele>
        <time>2019-06-24T14:18:30Z</time>
      </trkpt>
      <trkpt lat="37.1480690" lon="-3.6787880">
        <ele>652.3</ele>
        <time>2019-06-24T14:18:31Z</time>
      </trkpt>
      <trkpt lat="37.1480340" lon="-3.6788370">
        <ele>652.5</ele>
        <time>2019-06-24T14:18:32Z</time>
      </trkpt>
      <trkpt lat="37.1480020" lon="-3.6788890">
        <ele>652.8</ele>
        <time>2019-06-24T14:18:33Z</time>
      </trkpt>
      <trkpt lat="37.1479790" lon="-3.6789440">
        <ele>653.1</ele>
        <time>2019-06-24T14:18:34Z</time>
      </trkpt>
      <trkpt lat="37.1479590" lon="-3.6789970">
        <ele>653.5</ele>
        <time>2019-06-24T14:18:35Z</time>
      </trkpt>
      <trkpt lat="37.1479330" lon="-3.6790390">
        <ele>653.8</ele>
        <time>2019-06-24T14:18:36Z</time>
      </trkpt>
      <trkpt lat="37.1479040" lon="-3.6790700">
        <ele>654.1</ele>
        <time>2019-06-24T14:18:37Z</time>
      </trkpt>
      <trkpt lat="37.1478720" lon="-3.6791010">
        <ele>654.4</ele>
        <time>2019-06-24T14:18:38Z</time>
      </trkpt>
      <trkpt lat="37.1478400" lon="-3.6791360">
        <ele>654.6</ele>
        <time>2019-06-24T14:18:39Z</time>
      </trkpt>
      <trkpt lat="37.1478080" lon="-3.6791760">
        <ele>654.7</ele>
        <time>2019-06-24T14:18:40Z</time>
      </trkpt>
      <trkpt lat="37.1477770" lon="-3.6792190">
        <ele>654.9</ele>
        <time>2019-06-24T14:18:41Z</time>
      </trkpt>
      <trkpt lat="37.1477430" lon="-3.6792590">
        <ele>655.0</ele>
        <time>2019-06-24T14:18:42Z</time>
      </trkpt>
      <trkpt lat="37.1477040" lon="-3.6793000">
        <ele>655.2</ele>
        <time>2019-06-24T14:18:43Z</time>
      </trkpt>
      <trkpt lat="37.1476640" lon="-3.6793450">
        <ele>655.4</ele>
        <time>2019-06-24T14:18:44Z</time>
      </trkpt>
      <trkpt lat="37.1476230" lon="-3.6793940">
        <ele>655.6</ele>
        <time>2019-06-24T14:18:45Z</time>
      </trkpt>
      <trkpt lat="37.1475810" lon="-3.6794450">
        <ele>655.8</ele>
        <time>2019-06-24T14:18:46Z</time>
      </trkpt>
      <trkpt lat="37.1475380" lon="-3.6794970">
        <ele>656.0</ele>
        <time>2019-06-24T14:18:47Z</time>
      </trkpt>
      <trkpt lat="37.1474960" lon="-3.6795500">
        <ele>656.2</ele>
        <time>2019-06-24T14:18:48Z</time>
      </trkpt>
      <trkpt lat="37.1474520" lon="-3.6796040">
        <ele>656.3</ele>
        <time>2019-06-24T14:18:49Z</time>
      </trkpt>
      <trkpt lat="37.1474070" lon="-3.6796570">
        <ele>656.5</ele>
        <time>2019-06-24T14:18:50Z</time>
      </trkpt>
      <trkpt lat="37.1473600" lon="-3.6797110">
        <ele>656.8</ele>
        <time>2019-06-24T14:18:51Z</time>
      </trkpt>
      <trkpt lat="37.1473120" lon="-3.6797660">
        <ele>657.1</ele>
        <time>2019-06-24T14:18:52Z</time>
      </trkpt>
      <trkpt lat="37.1472630" lon="-3.6798210">
        <ele>657.4</ele>
        <time>2019-06-24T14:18:53Z</time>
      </trkpt>
      <trkpt lat="37.1472140" lon="-3.6798760">
        <ele>657.7</ele>
        <time>2019-06-24T14:18:54Z</time>
      </trkpt>
      <trkpt lat="37.1471640" lon="-3.6799310">
        <ele>658.0</ele>
        <time>2019-06-24T14:18:55Z</time>
      </trkpt>
      <trkpt lat="37.1471120" lon="-3.6799850">
        <ele>658.4</ele>
        <time>2019-06-24T14:18:56Z</time>
      </trkpt>
      <trkpt lat="37.1470590" lon="-3.6800420">
        <ele>658.8</ele>
        <time>2019-06-24T14:18:57Z</time>
      </trkpt>
      <trkpt lat="37.1470050" lon="-3.6800990">
        <ele>659.2</ele>
        <time>2019-06-24T14:18:58Z</time>
      </trkpt>
      <trkpt lat="37.1469510" lon="-3.6801570">
        <ele>659.5</ele>
        <time>2019-06-24T14:18:59Z</time>
      </trkpt>
      <trkpt lat="37.1468970" lon="-3.6802130">
        <ele>659.7</ele>
        <time>2019-06-24T14:19:00Z</time>
      </trkpt>
      <trkpt lat="37.1468430" lon="-3.6802690">
        <ele>660.0</ele>
        <time>2019-06-24T14:19:01Z</time>
      </trkpt>
      <trkpt lat="37.1467900" lon="-3.6803250">
        <ele>660.2</ele>
        <time>2019-06-24T14:19:02Z</time>
      </trkpt>
      <trkpt lat="37.1467380" lon="-3.6803800">
        <ele>660.6</ele>
        <time>2019-06-24T14:19:03Z</time>
      </trkpt>
      <trkpt lat="37.1466850" lon="-3.6804340">
        <ele>661.1</ele>
        <time>2019-06-24T14:19:04Z</time>
      </trkpt>
      <trkpt lat="37.1466320" lon="-3.6804860">
        <ele>661.6</ele>
        <time>2019-06-24T14:19:05Z</time>
      </trkpt>
      <trkpt lat="37.1465830" lon="-3.6805370">
        <ele>662.1</ele>
        <time>2019-06-24T14:19:06Z</time>
      </trkpt>
      <trkpt lat="37.1465400" lon="-3.6806050">
        <ele>662.7</ele>
        <time>2019-06-24T14:19:07Z</time>
      </trkpt>
      <trkpt lat="37.1465270" lon="-3.6806640">
        <ele>663.1</ele>
        <time>2019-06-24T14:19:08Z</time>
      </trkpt>
      <trkpt lat="37.1465320" lon="-3.6807070">
        <ele>663.8</ele>
        <time>2019-06-24T14:19:09Z</time>
      </trkpt>
      <trkpt lat="37.1465510" lon="-3.6807330">
        <ele>663.9</ele>
        <time>2019-06-24T14:19:10Z</time>
      </trkpt>
      <trkpt lat="37.1465800" lon="-3.6807570">
        <ele>664.0</ele>
        <time>2019-06-24T14:19:11Z</time>
      </trkpt>
      <trkpt lat="37.1466080" lon="-3.6807790">
        <ele>664.1</ele>
        <time>2019-06-24T14:19:12Z</time>
      </trkpt>
      <trkpt lat="37.1466380" lon="-3.6808020">
        <ele>664.1</ele>
        <time>2019-06-24T14:19:13Z</time>
      </trkpt>
      <trkpt lat="37.1466660" lon="-3.6808290">
        <ele>664.2</ele>
        <time>2019-06-24T14:19:14Z</time>
      </trkpt>
      <trkpt lat="37.1466990" lon="-3.6808520">
        <ele>664.4</ele>
        <time>2019-06-24T14:19:15Z</time>
      </trkpt>
      <trkpt lat="37.1467340" lon="-3.6808810">
        <ele>664.3</ele>
        <time>2019-06-24T14:19:16Z</time>
      </trkpt>
      <trkpt lat="37.1467660" lon="-3.6809100">
        <ele>664.2</ele>
        <time>2019-06-24T14:19:17Z</time>
      </trkpt>
      <trkpt lat="37.1467990" lon="-3.6809370">
        <ele>664.0</ele>
        <time>2019-06-24T14:19:18Z</time>
      </trkpt>
      <trkpt lat="37.1468360" lon="-3.6809610">
        <ele>663.9</ele>
        <time>2019-06-24T14:19:19Z</time>
      </trkpt>
      <trkpt lat="37.1468730" lon="-3.6809870">
        <ele>663.7</ele>
        <time>2019-06-24T14:19:20Z</time>
      </trkpt>
      <trkpt lat="37.1469130" lon="-3.6810110">
        <ele>663.5</ele>
        <time>2019-06-24T14:19:21Z</time>
      </trkpt>
      <trkpt lat="37.1469560" lon="-3.6810370">
        <ele>663.3</ele>
        <time>2019-06-24T14:19:22Z</time>
      </trkpt>
      <trkpt lat="37.1470020" lon="-3.6810690">
        <ele>663.0</ele>
        <time>2019-06-24T14:19:23Z</time>
      </trkpt>
      <trkpt lat="37.1470520" lon="-3.6811010">
        <ele>662.8</ele>
        <time>2019-06-24T14:19:24Z</time>
      </trkpt>
      <trkpt lat="37.1471040" lon="-3.6811370">
        <ele>662.6</ele>
        <time>2019-06-24T14:19:25Z</time>
      </trkpt>
      <trkpt lat="37.1471570" lon="-3.6811820">
        <ele>662.4</ele>
        <time>2019-06-24T14:19:26Z</time>
      </trkpt>
      <trkpt lat="37.1472130" lon="-3.6812250">
        <ele>662.2</ele>
        <time>2019-06-24T14:19:27Z</time>
      </trkpt>
      <trkpt lat="37.1472670" lon="-3.6812760">
        <ele>662.0</ele>
        <time>2019-06-24T14:19:28Z</time>
      </trkpt>
      <trkpt lat="37.1473200" lon="-3.6813310">
        <ele>661.9</ele>
        <time>2019-06-24T14:19:29Z</time>
      </trkpt>
      <trkpt lat="37.1473760" lon="-3.6813830">
        <ele>661.8</ele>
        <time>2019-06-24T14:19:30Z</time>
      </trkpt>
      <trkpt lat="37.1474350" lon="-3.6814360">
        <ele>661.7</ele>
        <time>2019-06-24T14:19:31Z</time>
      </trkpt>
      <trkpt lat="37.1474950" lon="-3.6814910">
        <ele>661.6</ele>
        <time>2019-06-24T14:19:32Z</time>
      </trkpt>
      <trkpt lat="37.1475570" lon="-3.6815500">
        <ele>661.5</ele>
        <time>2019-06-24T14:19:33Z</time>
      </trkpt>
      <trkpt lat="37.1476200" lon="-3.6816060">
        <ele>661.3</ele>
        <time>2019-06-24T14:19:34Z</time>
      </trkpt>
      <trkpt lat="37.1476840" lon="-3.6816660">
        <ele>661.1</ele>
        <time>2019-06-24T14:19:35Z</time>
      </trkpt>
      <trkpt lat="37.1477490" lon="-3.6817270">
        <ele>660.9</ele>
        <time>2019-06-24T14:19:36Z</time>
      </trkpt>
      <trkpt lat="37.1478150" lon="-3.6817860">
        <ele>660.7</ele>
        <time>2019-06-24T14:19:37Z</time>
      </trkpt>
      <trkpt lat="37.1478790" lon="-3.6818470">
        <ele>660.3</ele>
        <time>2019-06-24T14:19:38Z</time>
      </trkpt>
      <trkpt lat="37.1479470" lon="-3.6819030">
        <ele>660.1</ele>
        <time>2019-06-24T14:19:39Z</time>
      </trkpt>
      <trkpt lat="37.1480150" lon="-3.6819610">
        <ele>659.9</ele>
        <time>2019-06-24T14:19:40Z</time>
      </trkpt>
      <trkpt lat="37.1480800" lon="-3.6820210">
        <ele>659.8</ele>
        <time>2019-06-24T14:19:41Z</time>
      </trkpt>
      <trkpt lat="37.1481420" lon="-3.6820830">
        <ele>659.7</ele>
        <time>2019-06-24T14:19:42Z</time>
      </trkpt>
      <trkpt lat="37.1482030" lon="-3.6821460">
        <ele>659.6</ele>
        <time>2019-06-24T14:19:43Z</time>
      </trkpt>
      <trkpt lat="37.1482630" lon="-3.6822050">
        <ele>659.6</ele>
        <time>2019-06-24T14:19:44Z</time>
      </trkpt>
      <trkpt lat="37.1483250" lon="-3.6822610">
        <ele>659.6</ele>
        <time>2019-06-24T14:19:45Z</time>
      </trkpt>
      <trkpt lat="37.1483860" lon="-3.6823140">
        <ele>659.5</ele>
        <time>2019-06-24T14:19:46Z</time>
      </trkpt>
      <trkpt lat="37.1484420" lon="-3.6823710">
        <ele>659.5</ele>
        <time>2019-06-24T14:19:47Z</time>
      </trkpt>
      <trkpt lat="37.1484970" lon="-3.6824300">
        <ele>659.5</ele>
        <time>2019-06-24T14:19:48Z</time>
      </trkpt>
      <trkpt lat="37.1485530" lon="-3.6824850">
        <ele>659.5</ele>
        <time>2019-06-24T14:19:49Z</time>
      </trkpt>
      <trkpt lat="37.1486080" lon="-3.6825400">
        <ele>659.6</ele>
        <time>2019-06-24T14:19:50Z</time>
      </trkpt>
      <trkpt lat="37.1486640" lon="-3.6825930">
        <ele>659.6</ele>
        <time>2019-06-24T14:19:51Z</time>
      </trkpt>
      <trkpt lat="37.1487190" lon="-3.6826460">
        <ele>659.6</ele>
        <time>2019-06-24T14:19:52Z</time>
      </trkpt>
      <trkpt lat="37.1487720" lon="-3.6827000">
        <ele>659.6</ele>
        <time>2019-06-24T14:19:53Z</time>
      </trkpt>
      <trkpt lat="37.1488240" lon="-3.6827540">
        <ele>659.7</ele>
        <time>2019-06-24T14:19:54Z</time>
      </trkpt>
      <trkpt lat="37.1488790" lon="-3.6828080">
        <ele>659.7</ele>
        <time>2019-06-24T14:19:55Z</time>
      </trkpt>
      <trkpt lat="37.1489310" lon="-3.6828620">
        <ele>659.7</ele>
        <time>2019-06-24T14:19:56Z</time>
      </trkpt>
      <trkpt lat="37.1489800" lon="-3.6829160">
        <ele>659.8</ele>
        <time>2019-06-24T14:19:57Z</time>
      </trkpt>
      <trkpt lat="37.1490280" lon="-3.6829700">
        <ele>659.8</ele>
        <time>2019-06-24T14:19:58Z</time>
      </trkpt>
      <trkpt lat="37.1490740" lon="-3.6830250">
        <ele>659.8</ele>
        <time>2019-06-24T14:19:59Z</time>
      </trkpt>
      <trkpt lat="37.1491220" lon="-3.6830810">
        <ele>659.9</ele>
        <time>2019-06-24T14:20:00Z</time>
      </trkpt>
      <trkpt lat="37.1491670" lon="-3.6831380">
        <ele>660.0</ele>
        <time>2019-06-24T14:20:01Z</time>
      </trkpt>
      <trkpt lat="37.1492090" lon="-3.6831970">
        <ele>660.0</ele>
        <time>2019-06-24T14:20:02Z</time>
      </trkpt>
      <trkpt lat="37.1492510" lon="-3.6832550">
        <ele>660.1</ele>
        <time>2019-06-24T14:20:03Z</time>
      </trkpt>
      <trkpt lat="37.1492910" lon="-3.6833140">
        <ele>660.2</ele>
        <time>2019-06-24T14:20:04Z</time>
      </trkpt>
      <trkpt lat="37.1493290" lon="-3.6833730">
        <ele>660.3</ele>
        <time>2019-06-24T14:20:05Z</time>
      </trkpt>
      <trkpt lat="37.1493680" lon="-3.6834310">
        <ele>660.7</ele>
        <time>2019-06-24T14:20:06Z</time>
      </trkpt>
      <trkpt lat="37.1494060" lon="-3.6834900">
        <ele>661.0</ele>
        <time>2019-06-24T14:20:07Z</time>
      </trkpt>
      <trkpt lat="37.1494410" lon="-3.6835530">
        <ele>661.4</ele>
        <time>2019-06-24T14:20:08Z</time>
      </trkpt>
      <trkpt lat="37.1494690" lon="-3.6836200">
        <ele>661.7</ele>
        <time>2019-06-24T14:20:09Z</time>
      </trkpt>
      <trkpt lat="37.1494930" lon="-3.6836890">
        <ele>661.9</ele>
        <time>2019-06-24T14:20:10Z</time>
      </trkpt>
      <trkpt lat="37.1495140" lon="-3.6837590">
        <ele>662.1</ele>
        <time>2019-06-24T14:20:11Z</time>
      </trkpt>
      <trkpt lat="37.1495320" lon="-3.6838290">
        <ele>662.2</ele>
        <time>2019-06-24T14:20:12Z</time>
      </trkpt>
      <trkpt lat="37.1495510" lon="-3.6839000">
        <ele>662.4</ele>
        <time>2019-06-24T14:20:13Z</time>
      </trkpt>
      <trkpt lat="37.1495700" lon="-3.6839670">
        <ele>662.6</ele>
        <time>2019-06-24T14:20:14Z</time>
      </trkpt>
      <trkpt lat="37.1495900" lon="-3.6840330">
        <ele>662.8</ele>
        <time>2019-06-24T14:20:15Z</time>
      </trkpt>
      <trkpt lat="37.1496140" lon="-3.6840960">
        <ele>663.0</ele>
        <time>2019-06-24T14:20:16Z</time>
      </trkpt>
      <trkpt lat="37.1496410" lon="-3.6841630">
        <ele>663.2</ele>
        <time>2019-06-24T14:20:17Z</time>
      </trkpt>
      <trkpt lat="37.1496720" lon="-3.6842230">
        <ele>663.3</ele>
        <time>2019-06-24T14:20:18Z</time>
      </trkpt>
      <trkpt lat="37.1497080" lon="-3.6842800">
        <ele>663.5</ele>
        <time>2019-06-24T14:20:19Z</time>
      </trkpt>
      <trkpt lat="37.1497430" lon="-3.6843390">
        <ele>663.6</ele>
        <time>2019-06-24T14:20:20Z</time>
      </trkpt>
      <trkpt lat="37.1497710" lon="-3.6843980">
        <ele>663.8</ele>
        <time>2019-06-24T14:20:21Z</time>
      </trkpt>
      <trkpt lat="37.1497990" lon="-3.6844560">
        <ele>663.9</ele>
        <time>2019-06-24T14:20:22Z</time>
      </trkpt>
      <trkpt lat="37.1498220" lon="-3.6845020">
        <ele>664.0</ele>
        <time>2019-06-24T14:20:23Z</time>
      </trkpt>
      <trkpt lat="37.1498440" lon="-3.6845520">
        <ele>664.2</ele>
        <time>2019-06-24T14:20:24Z</time>
      </trkpt>
      <trkpt lat="37.1498610" lon="-3.6846070">
        <ele>664.3</ele>
        <time>2019-06-24T14:20:25Z</time>
      </trkpt>
      <trkpt lat="37.1498830" lon="-3.6846610">
        <ele>664.5</ele>
        <time>2019-06-24T14:20:26Z</time>
      </trkpt>
      <trkpt lat="37.1499010" lon="-3.6847210">
        <ele>664.7</ele>
        <time>2019-06-24T14:20:27Z</time>
      </trkpt>
      <trkpt lat="37.1499180" lon="-3.6847870">
        <ele>665.0</ele>
        <time>2019-06-24T14:20:28Z</time>
      </trkpt>
      <trkpt lat="37.1499330" lon="-3.6848530">
        <ele>665.3</ele>
        <time>2019-06-24T14:20:29Z</time>
      </trkpt>
      <trkpt lat="37.1499490" lon="-3.6849180">
        <ele>665.5</ele>
        <time>2019-06-24T14:20:30Z</time>
      </trkpt>
      <trkpt lat="37.1499650" lon="-3.6849840">
        <ele>665.8</ele>
        <time>2019-06-24T14:20:31Z</time>
      </trkpt>
      <trkpt lat="37.1499770" lon="-3.6850500">
        <ele>665.9</ele>
        <time>2019-06-24T14:20:32Z</time>
      </trkpt>
      <trkpt lat="37.1499850" lon="-3.6851200">
        <ele>666.1</ele>
        <time>2019-06-24T14:20:33Z</time>
      </trkpt>
      <trkpt lat="37.1499950" lon="-3.6851910">
        <ele>666.2</ele>
        <time>2019-06-24T14:20:34Z</time>
      </trkpt>
      <trkpt lat="37.1500050" lon="-3.6852590">
        <ele>666.3</ele>
        <time>2019-06-24T14:20:35Z</time>
      </trkpt>
      <trkpt lat="37.1500220" lon="-3.6853310">
        <ele>666.4</ele>
        <time>2019-06-24T14:20:36Z</time>
      </trkpt>
      <trkpt lat="37.1500440" lon="-3.6853840">
        <ele>666.5</ele>
        <time>2019-06-24T14:20:37Z</time>
      </trkpt>
      <trkpt lat="37.1500550" lon="-3.6854480">
        <ele>666.7</ele>
        <time>2019-06-24T14:20:38Z</time>
      </trkpt>
      <trkpt lat="37.1500670" lon="-3.6855150">
        <ele>666.9</ele>
        <time>2019-06-24T14:20:39Z</time>
      </trkpt>
      <trkpt lat="37.1500770" lon="-3.6855860">
        <ele>667.2</ele>
        <time>2019-06-24T14:20:40Z</time>
      </trkpt>
      <trkpt lat="37.1500840" lon="-3.6856600">
        <ele>667.6</ele>
        <time>2019-06-24T14:20:41Z</time>
      </trkpt>
      <trkpt lat="37.1500880" lon="-3.6857320">
        <ele>668.0</ele>
        <time>2019-06-24T14:20:42Z</time>
      </trkpt>
      <trkpt lat="37.1501000" lon="-3.6858030">
        <ele>668.5</ele>
        <time>2019-06-24T14:20:43Z</time>
      </trkpt>
      <trkpt lat="37.1501190" lon="-3.6858630">
        <ele>668.5</ele>
        <time>2019-06-24T14:20:44Z</time>
      </trkpt>
      <trkpt lat="37.1501410" lon="-3.6859220">
        <ele>668.6</ele>
        <time>2019-06-24T14:20:45Z</time>
      </trkpt>
      <trkpt lat="37.1501700" lon="-3.6859750">
        <ele>668.7</ele>
        <time>2019-06-24T14:20:46Z</time>
      </trkpt>
      <trkpt lat="37.1502010" lon="-3.6860260">
        <ele>668.8</ele>
        <time>2019-06-24T14:20:47Z</time>
      </trkpt>
      <trkpt lat="37.1502370" lon="-3.6860570">
        <ele>669.0</ele>
        <time>2019-06-24T14:20:48Z</time>
      </trkpt>
      <trkpt lat="37.1502690" lon="-3.6860800">
        <ele>669.2</ele>
        <time>2019-06-24T14:20:49Z</time>
      </trkpt>
      <trkpt lat="37.1502990" lon="-3.6861040">
        <ele>669.3</ele>
        <time>2019-06-24T14:20:50Z</time>
      </trkpt>
      <trkpt lat="37.1503200" lon="-3.6861370">
        <ele>669.4</ele>
        <time>2019-06-24T14:20:51Z</time>
      </trkpt>
      <trkpt lat="37.1503320" lon="-3.6861770">
        <ele>669.6</ele>
        <time>2019-06-24T14:20:52Z</time>
      </trkpt>
      <trkpt lat="37.1503330" lon="-3.6862150">
        <ele>671.4</ele>
        <time>2019-06-24T14:20:53Z</time>
      </trkpt>
      <trkpt lat="37.1503220" lon="-3.6862530">
        <ele>671.6</ele>
        <time>2019-06-24T14:20:54Z</time>
      </trkpt>
      <trkpt lat="37.1503040" lon="-3.6862910">
        <ele>671.7</ele>
        <time>2019-06-24T14:20:55Z</time>
      </trkpt>
      <trkpt lat="37.1502830" lon="-3.6863310">
        <ele>671.9</ele>
        <time>2019-06-24T14:20:56Z</time>
      </trkpt>
      <trkpt lat="37.1502650" lon="-3.6863740">
        <ele>672.0</ele>
        <time>2019-06-24T14:20:57Z</time>
      </trkpt>
      <trkpt lat="37.1502570" lon="-3.6864180">
        <ele>672.1</ele>
        <time>2019-06-24T14:20:58Z</time>
      </trkpt>
      <trkpt lat="37.1502580" lon="-3.6864670">
        <ele>672.2</ele>
        <time>2019-06-24T14:20:59Z</time>
      </trkpt>
      <trkpt lat="37.1502680" lon="-3.6865190">
        <ele>672.3</ele>
        <time>2019-06-24T14:21:00Z</time>
      </trkpt>
      <trkpt lat="37.1502930" lon="-3.6865690">
        <ele>672.5</ele>
        <time>2019-06-24T14:21:01Z</time>
      </trkpt>
      <trkpt lat="37.1503230" lon="-3.6866230">
        <ele>672.6</ele>
        <time>2019-06-24T14:21:02Z</time>
      </trkpt>
      <trkpt lat="37.1503520" lon="-3.6866770">
        <ele>672.8</ele>
        <time>2019-06-24T14:21:03Z</time>
      </trkpt>
      <trkpt lat="37.1503790" lon="-3.6867270">
        <ele>672.9</ele>
        <time>2019-06-24T14:21:04Z</time>
      </trkpt>
      <trkpt lat="37.1504090" lon="-3.6867800">
        <ele>673.0</ele>
        <time>2019-06-24T14:21:05Z</time>
      </trkpt>
      <trkpt lat="37.1504400" lon="-3.6868280">
        <ele>673.1</ele>
        <time>2019-06-24T14:21:06Z</time>
      </trkpt>
      <trkpt lat="37.1504700" lon="-3.6868740">
        <ele>673.2</ele>
        <time>2019-06-24T14:21:07Z</time>
      </trkpt>
      <trkpt lat="37.1505010" lon="-3.6869200">
        <ele>673.2</ele>
        <time>2019-06-24T14:21:08Z</time>
      </trkpt>
      <trkpt lat="37.1505350" lon="-3.6869630">
        <ele>673.3</ele>
        <time>2019-06-24T14:21:09Z</time>
      </trkpt>
      <trkpt lat="37.1505720" lon="-3.6870070">
        <ele>673.2</ele>
        <time>2019-06-24T14:21:10Z</time>
      </trkpt>
      <trkpt lat="37.1506080" lon="-3.6870560">
        <ele>673.2</ele>
        <time>2019-06-24T14:21:11Z</time>
      </trkpt>
      <trkpt lat="37.1506400" lon="-3.6871100">
        <ele>673.1</ele>
        <time>2019-06-24T14:21:12Z</time>
      </trkpt>
      <trkpt lat="37.1506640" lon="-3.6871770">
        <ele>673.0</ele>
        <time>2019-06-24T14:21:13Z</time>
      </trkpt>
      <trkpt lat="37.1506810" lon="-3.6872560">
        <ele>672.8</ele>
        <time>2019-06-24T14:21:14Z</time>
      </trkpt>
      <trkpt lat="37.1506890" lon="-3.6873510">
        <ele>672.5</ele>
        <time>2019-06-24T14:21:15Z</time>
      </trkpt>
      <trkpt lat="37.1506860" lon="-3.6874490">
        <ele>672.2</ele>
        <time>2019-06-24T14:21:16Z</time>
      </trkpt>
      <trkpt lat="37.1506770" lon="-3.6875610">
        <ele>671.9</ele>
        <time>2019-06-24T14:21:17Z</time>
      </trkpt>
      <trkpt lat="37.1506700" lon="-3.6876880">
        <ele>671.4</ele>
        <time>2019-06-24T14:21:18Z</time>
      </trkpt>
      <trkpt lat="37.1506710" lon="-3.6878140">
        <ele>670.7</ele>
        <time>2019-06-24T14:21:19Z</time>
      </trkpt>
      <trkpt lat="37.1506690" lon="-3.6879390">
        <ele>669.9</ele>
        <time>2019-06-24T14:21:20Z</time>
      </trkpt>
      <trkpt lat="37.1506660" lon="-3.6880670">
        <ele>669.0</ele>
        <time>2019-06-24T14:21:21Z</time>
      </trkpt>
      <trkpt lat="37.1506640" lon="-3.6881940">
        <ele>668.1</ele>
        <time>2019-06-24T14:21:22Z</time>
      </trkpt>
      <trkpt lat="37.1506640" lon="-3.6883230">
        <ele>667.4</ele>
        <time>2019-06-24T14:21:23Z</time>
      </trkpt>
      <trkpt lat="37.1506630" lon="-3.6884490">
        <ele>666.7</ele>
        <time>2019-06-24T14:21:24Z</time>
      </trkpt>
      <trkpt lat="37.1506650" lon="-3.6885690">
        <ele>666.2</ele>
        <time>2019-06-24T14:21:25Z</time>
      </trkpt>
      <trkpt lat="37.1506700" lon="-3.6886800">
        <ele>665.8</ele>
        <time>2019-06-24T14:21:26Z</time>
      </trkpt>
      <trkpt lat="37.1506740" lon="-3.6887790">
        <ele>665.6</ele>
        <time>2019-06-24T14:21:27Z</time>
      </trkpt>
      <trkpt lat="37.1506780" lon="-3.6888660">
        <ele>665.5</ele>
        <time>2019-06-24T14:21:28Z</time>
      </trkpt>
      <trkpt lat="37.1506830" lon="-3.6889490">
        <ele>665.5</ele>
        <time>2019-06-24T14:21:29Z</time>
      </trkpt>
      <trkpt lat="37.1506910" lon="-3.6890280">
        <ele>665.5</ele>
        <time>2019-06-24T14:21:30Z</time>
      </trkpt>
      <trkpt lat="37.1507030" lon="-3.6891080">
        <ele>665.6</ele>
        <time>2019-06-24T14:21:31Z</time>
      </trkpt>
      <trkpt lat="37.1507250" lon="-3.6891820">
        <ele>665.7</ele>
        <time>2019-06-24T14:21:32Z</time>
      </trkpt>
      <trkpt lat="37.1507640" lon="-3.6892400">
        <ele>665.8</ele>
        <time>2019-06-24T14:21:33Z</time>
      </trkpt>
      <trkpt lat="37.1508100" lon="-3.6892760">
        <ele>665.9</ele>
        <time>2019-06-24T14:21:34Z</time>
      </trkpt>
      <trkpt lat="37.1508610" lon="-3.6892950">
        <ele>666.0</ele>
        <time>2019-06-24T14:21:35Z</time>
      </trkpt>
      <trkpt lat="37.1509140" lon="-3.6892960">
        <ele>666.1</ele>
        <time>2019-06-24T14:21:36Z</time>
      </trkpt>
      <trkpt lat="37.1509670" lon="-3.6892920">
        <ele>666.1</ele>
        <time>2019-06-24T14:21:37Z</time>
      </trkpt>
      <trkpt lat="37.1510210" lon="-3.6892910">
        <ele>666.2</ele>
        <time>2019-06-24T14:21:38Z</time>
      </trkpt>
      <trkpt lat="37.1510750" lon="-3.6892930">
        <ele>666.3</ele>
        <time>2019-06-24T14:21:39Z</time>
      </trkpt>
      <trkpt lat="37.1511270" lon="-3.6893050">
        <ele>666.4</ele>
        <time>2019-06-24T14:21:40Z</time>
      </trkpt>
      <trkpt lat="37.1511760" lon="-3.6893230">
        <ele>666.5</ele>
        <time>2019-06-24T14:21:41Z</time>
      </trkpt>
      <trkpt lat="37.1512240" lon="-3.6893470">
        <ele>666.6</ele>
        <time>2019-06-24T14:21:42Z</time>
      </trkpt>
      <trkpt lat="37.1512700" lon="-3.6893750">
        <ele>666.8</ele>
        <time>2019-06-24T14:21:43Z</time>
      </trkpt>
      <trkpt lat="37.1513120" lon="-3.6894090">
        <ele>666.9</ele>
        <time>2019-06-24T14:21:44Z</time>
      </trkpt>
      <trkpt lat="37.1513490" lon="-3.6894510">
        <ele>666.7</ele>
        <time>2019-06-24T14:21:45Z</time>
      </trkpt>
      <trkpt lat="37.1513810" lon="-3.6894990">
        <ele>666.5</ele>
        <time>2019-06-24T14:21:46Z</time>
      </trkpt>
      <trkpt lat="37.1514110" lon="-3.6895490">
        <ele>666.3</ele>
        <time>2019-06-24T14:21:47Z</time>
      </trkpt>
      <trkpt lat="37.1514450" lon="-3.6896030">
        <ele>666.2</ele>
        <time>2019-06-24T14:21:48Z</time>
      </trkpt>
      <trkpt lat="37.1514770" lon="-3.6896600">
        <ele>666.2</ele>
        <time>2019-06-24T14:21:49Z</time>
      </trkpt>
      <trkpt lat="37.1515130" lon="-3.6897190">
        <ele>666.1</ele>
        <time>2019-06-24T14:21:50Z</time>
      </trkpt>
      <trkpt lat="37.1515490" lon="-3.6897790">
        <ele>666.1</ele>
        <time>2019-06-24T14:21:51Z</time>
      </trkpt>
      <trkpt lat="37.1515860" lon="-3.6898410">
        <ele>666.1</ele>
        <time>2019-06-24T14:21:52Z</time>
      </trkpt>
      <trkpt lat="37.1516250" lon="-3.6899050">
        <ele>666.0</ele>
        <time>2019-06-24T14:21:53Z</time>
      </trkpt>
      <trkpt lat="37.1516630" lon="-3.6899690">
        <ele>665.9</ele>
        <time>2019-06-24T14:21:54Z</time>
      </trkpt>
      <trkpt lat="37.1517060" lon="-3.6900300">
        <ele>665.8</ele>
        <time>2019-06-24T14:21:55Z</time>
      </trkpt>
      <trkpt lat="37.1517500" lon="-3.6900900">
        <ele>665.6</ele>
        <time>2019-06-24T14:21:56Z</time>
      </trkpt>
      <trkpt lat="37.1517940" lon="-3.6901500">
        <ele>665.5</ele>
        <time>2019-06-24T14:21:57Z</time>
      </trkpt>
      <trkpt lat="37.1518410" lon="-3.6902120">
        <ele>665.3</ele>
        <time>2019-06-24T14:21:58Z</time>
      </trkpt>
      <trkpt lat="37.1518910" lon="-3.6902740">
        <ele>665.0</ele>
        <time>2019-06-24T14:21:59Z</time>
      </trkpt>
      <trkpt lat="37.1519400" lon="-3.6903370">
        <ele>664.8</ele>
        <time>2019-06-24T14:22:00Z</time>
      </trkpt>
      <trkpt lat="37.1519900" lon="-3.6904020">
        <ele>664.6</ele>
        <time>2019-06-24T14:22:01Z</time>
      </trkpt>
      <trkpt lat="37.1520400" lon="-3.6904670">
        <ele>664.5</ele>
        <time>2019-06-24T14:22:02Z</time>
      </trkpt>
      <trkpt lat="37.1520870" lon="-3.6905340">
        <ele>664.5</ele>
        <time>2019-06-24T14:22:03Z</time>
      </trkpt>
      <trkpt lat="37.1521320" lon="-3.6906000">
        <ele>664.5</ele>
        <time>2019-06-24T14:22:04Z</time>
      </trkpt>
      <trkpt lat="37.1521760" lon="-3.6906640">
        <ele>664.5</ele>
        <time>2019-06-24T14:22:05Z</time>
      </trkpt>
      <trkpt lat="37.1522180" lon="-3.6907280">
        <ele>664.5</ele>
        <time>2019-06-24T14:22:06Z</time>
      </trkpt>
      <trkpt lat="37.1522610" lon="-3.6907890">
        <ele>664.4</ele>
        <time>2019-06-24T14:22:07Z</time>
      </trkpt>
      <trkpt lat="37.1522990" lon="-3.6908490">
        <ele>664.4</ele>
        <time>2019-06-24T14:22:08Z</time>
      </trkpt>
      <trkpt lat="37.1523390" lon="-3.6909090">
        <ele>664.4</ele>
        <time>2019-06-24T14:22:09Z</time>
      </trkpt>
      <trkpt lat="37.1523790" lon="-3.6909690">
        <ele>664.4</ele>
        <time>2019-06-24T14:22:10Z</time>
      </trkpt>
      <trkpt lat="37.1524210" lon="-3.6910250">
        <ele>664.4</ele>
        <time>2019-06-24T14:22:11Z</time>
      </trkpt>
      <trkpt lat="37.1524650" lon="-3.6910790">
        <ele>664.4</ele>
        <time>2019-06-24T14:22:12Z</time>
      </trkpt>
      <trkpt lat="37.1525110" lon="-3.6911320">
        <ele>664.3</ele>
        <time>2019-06-24T14:22:13Z</time>
      </trkpt>
      <trkpt lat="37.1525560" lon="-3.6911860">
        <ele>664.2</ele>
        <time>2019-06-24T14:22:14Z</time>
      </trkpt>
      <trkpt lat="37.1526030" lon="-3.6912390">
        <ele>664.0</ele>
        <time>2019-06-24T14:22:15Z</time>
      </trkpt>
      <trkpt lat="37.1526520" lon="-3.6912920">
        <ele>663.6</ele>
        <time>2019-06-24T14:22:16Z</time>
      </trkpt>
      <trkpt lat="37.1527050" lon="-3.6913360">
        <ele>663.4</ele>
        <time>2019-06-24T14:22:17Z</time>
      </trkpt>
      <trkpt lat="37.1527560" lon="-3.6913690">
        <ele>663.3</ele>
        <time>2019-06-24T14:22:18Z</time>
      </trkpt>
      <trkpt lat="37.1527980" lon="-3.6913890">
        <ele>663.1</ele>
        <time>2019-06-24T14:22:19Z</time>
      </trkpt>
      <trkpt lat="37.1528330" lon="-3.6913890">
        <ele>663.0</ele>
        <time>2019-06-24T14:22:20Z</time>
      </trkpt>
      <trkpt lat="37.1528610" lon="-3.6913670">
        <ele>662.8</ele>
        <time>2019-06-24T14:22:21Z</time>
      </trkpt>
      <trkpt lat="37.1528780" lon="-3.6913270">
        <ele>662.7</ele>
        <time>2019-06-24T14:22:22Z</time>
      </trkpt>
      <trkpt lat="37.1528840" lon="-3.6912730">
        <ele>662.4</ele>
        <time>2019-06-24T14:22:23Z</time>
      </trkpt>
      <trkpt lat="37.1528870" lon="-3.6912130">
        <ele>662.2</ele>
        <time>2019-06-24T14:22:24Z</time>
      </trkpt>
      <trkpt lat="37.1528920" lon="-3.6911480">
        <ele>661.8</ele>
        <time>2019-06-24T14:22:25Z</time>
      </trkpt>
      <trkpt lat="37.1529010" lon="-3.6910800">
        <ele>661.4</ele>
        <time>2019-06-24T14:22:26Z</time>
      </trkpt>
      <trkpt lat="37.1529200" lon="-3.6910050">
        <ele>661.0</ele>
        <time>2019-06-24T14:22:27Z</time>
      </trkpt>
      <trkpt lat="37.1529420" lon="-3.6909240">
        <ele>660.5</ele>
        <time>2019-06-24T14:22:28Z</time>
      </trkpt>
      <trkpt lat="37.1529640" lon="-3.6908390">
        <ele>660.1</ele>
        <time>2019-06-24T14:22:29Z</time>
      </trkpt>
      <trkpt lat="37.1529920" lon="-3.6907480">
        <ele>659.8</ele>
        <time>2019-06-24T14:22:30Z</time>
      </trkpt>
      <trkpt lat="37.1530190" lon="-3.6906520">
        <ele>659.6</ele>
        <time>2019-06-24T14:22:31Z</time>
      </trkpt>
      <trkpt lat="37.1530500" lon="-3.6905510">
        <ele>659.7</ele>
        <time>2019-06-24T14:22:32Z</time>
      </trkpt>
      <trkpt lat="37.1530880" lon="-3.6904480">
        <ele>660.0</ele>
        <time>2019-06-24T14:22:33Z</time>
      </trkpt>
      <trkpt lat="37.1531330" lon="-3.6903410">
        <ele>660.5</ele>
        <time>2019-06-24T14:22:34Z</time>
      </trkpt>
      <trkpt lat="37.1531790" lon="-3.6902320">
        <ele>661.1</ele>
        <time>2019-06-24T14:22:35Z</time>
      </trkpt>
      <trkpt lat="37.1532270" lon="-3.6901220">
        <ele>661.8</ele>
        <time>2019-06-24T14:22:36Z</time>
      </trkpt>
      <trkpt lat="37.1532710" lon="-3.6900100">
        <ele>662.7</ele>
        <time>2019-06-24T14:22:37Z</time>
      </trkpt>
      <trkpt lat="37.1533160" lon="-3.6899020">
        <ele>663.6</ele>
        <time>2019-06-24T14:22:38Z</time>
      </trkpt>
      <trkpt lat="37.1533600" lon="-3.6897980">
        <ele>664.4</ele>
        <time>2019-06-24T14:22:39Z</time>
      </trkpt>
      <trkpt lat="37.1534000" lon="-3.6896990">
        <ele>664.9</ele>
        <time>2019-06-24T14:22:40Z</time>
      </trkpt>
      <trkpt lat="37.1534370" lon="-3.6896070">
        <ele>665.4</ele>
        <time>2019-06-24T14:22:41Z</time>
      </trkpt>
      <trkpt lat="37.1534680" lon="-3.6895190">
        <ele>665.9</ele>
        <time>2019-06-24T14:22:42Z</time>
      </trkpt>
      <trkpt lat="37.1534980" lon="-3.6894360">
        <ele>666.4</ele>
        <time>2019-06-24T14:22:43Z</time>
      </trkpt>
      <trkpt lat="37.1535270" lon="-3.6893580">
        <ele>667.0</ele>
        <time>2019-06-24T14:22:44Z</time>
      </trkpt>
      <trkpt lat="37.1535540" lon="-3.6892830">
        <ele>667.6</ele>
        <time>2019-06-24T14:22:45Z</time>
      </trkpt>
      <trkpt lat="37.1535790" lon="-3.6892110">
        <ele>668.2</ele>
        <time>2019-06-24T14:22:46Z</time>
      </trkpt>
      <trkpt lat="37.1536010" lon="-3.6891430">
        <ele>668.7</ele>
        <time>2019-06-24T14:22:47Z</time>
      </trkpt>
      <trkpt lat="37.1536230" lon="-3.6890790">
        <ele>669.0</ele>
        <time>2019-06-24T14:22:48Z</time>
      </trkpt>
      <trkpt lat="37.1536430" lon="-3.6890190">
        <ele>669.2</ele>
        <time>2019-06-24T14:22:49Z</time>
      </trkpt>
      <trkpt lat="37.1536590" lon="-3.6889630">
        <ele>669.4</ele>
        <time>2019-06-24T14:22:50Z</time>
      </trkpt>
      <trkpt lat="37.1536760" lon="-3.6889090">
        <ele>669.4</ele>
        <time>2019-06-24T14:22:51Z</time>
      </trkpt>
      <trkpt lat="37.1536930" lon="-3.6888560">
        <ele>669.4</ele>
        <time>2019-06-24T14:22:52Z</time>
      </trkpt>
      <trkpt lat="37.1537100" lon="-3.6888060">
        <ele>669.4</ele>
        <time>2019-06-24T14:22:53Z</time>
      </trkpt>
      <trkpt lat="37.1537280" lon="-3.6887560">
        <ele>669.2</ele>
        <time>2019-06-24T14:22:54Z</time>
      </trkpt>
      <trkpt lat="37.1537420" lon="-3.6887050">
        <ele>669.0</ele>
        <time>2019-06-24T14:22:55Z</time>
      </trkpt>
      <trkpt lat="37.1537590" lon="-3.6886530">
        <ele>668.6</ele>
        <time>2019-06-24T14:22:56Z</time>
      </trkpt>
      <trkpt lat="37.1537750" lon="-3.6886000">
        <ele>668.2</ele>
        <time>2019-06-24T14:22:57Z</time>
      </trkpt>
      <trkpt lat="37.1537870" lon="-3.6885460">
        <ele>667.5</ele>
        <time>2019-06-24T14:22:58Z</time>
      </trkpt>
      <trkpt lat="37.1537870" lon="-3.6885030">
        <ele>667.0</ele>
        <time>2019-06-24T14:22:59Z</time>
      </trkpt>
      <trkpt lat="37.1537710" lon="-3.6884590">
        <ele>666.4</ele>
        <time>2019-06-24T14:23:00Z</time>
      </trkpt>
      <trkpt lat="37.1537650" lon="-3.6884090">
        <ele>665.6</ele>
        <time>2019-06-24T14:23:01Z</time>
      </trkpt>
      <trkpt lat="37.1537660" lon="-3.6883530">
        <ele>664.7</ele>
        <time>2019-06-24T14:23:02Z</time>
      </trkpt>
      <trkpt lat="37.1537790" lon="-3.6882870">
        <ele>663.7</ele>
        <time>2019-06-24T14:23:03Z</time>
      </trkpt>
      <trkpt lat="37.1538050" lon="-3.6882030">
        <ele>662.1</ele>
        <time>2019-06-24T14:23:04Z</time>
      </trkpt>
      <trkpt lat="37.1538430" lon="-3.6881040">
        <ele>660.3</ele>
        <time>2019-06-24T14:23:05Z</time>
      </trkpt>
      <trkpt lat="37.1538910" lon="-3.6879910">
        <ele>658.4</ele>
        <time>2019-06-24T14:23:06Z</time>
      </trkpt>
      <trkpt lat="37.1539440" lon="-3.6878710">
        <ele>656.7</ele>
        <time>2019-06-24T14:23:07Z</time>
      </trkpt>
      <trkpt lat="37.1539970" lon="-3.6877550">
        <ele>655.4</ele>
        <time>2019-06-24T14:23:08Z</time>
      </trkpt>
      <trkpt lat="37.1540510" lon="-3.6876430">
        <ele>654.2</ele>
        <time>2019-06-24T14:23:09Z</time>
      </trkpt>
      <trkpt lat="37.1541060" lon="-3.6875330">
        <ele>652.8</ele>
        <time>2019-06-24T14:23:10Z</time>
      </trkpt>
      <trkpt lat="37.1541570" lon="-3.6874310">
        <ele>651.3</ele>
        <time>2019-06-24T14:23:11Z</time>
      </trkpt>
      <trkpt lat="37.1542050" lon="-3.6873390">
        <ele>649.8</ele>
        <time>2019-06-24T14:23:12Z</time>
      </trkpt>
      <trkpt lat="37.1542510" lon="-3.6872530">
        <ele>648.4</ele>
        <time>2019-06-24T14:23:13Z</time>
      </trkpt>
      <trkpt lat="37.1542900" lon="-3.6871650">
        <ele>647.2</ele>
        <time>2019-06-24T14:23:14Z</time>
      </trkpt>
      <trkpt lat="37.1543210" lon="-3.6870770">
        <ele>646.2</ele>
        <time>2019-06-24T14:23:15Z</time>
      </trkpt>
      <trkpt lat="37.1543430" lon="-3.6870020">
        <ele>645.6</ele>
        <time>2019-06-24T14:23:16Z</time>
      </trkpt>
      <trkpt lat="37.1543690" lon="-3.6869320">
        <ele>645.0</ele>
        <time>2019-06-24T14:23:17Z</time>
      </trkpt>
      <trkpt lat="37.1543990" lon="-3.6868690">
        <ele>644.7</ele>
        <time>2019-06-24T14:23:18Z</time>
      </trkpt>
      <trkpt lat="37.1544180" lon="-3.6868230">
        <ele>644.5</ele>
        <time>2019-06-24T14:23:19Z</time>
      </trkpt>
      <trkpt lat="37.1544250" lon="-3.6867880">
        <ele>644.3</ele>
        <time>2019-06-24T14:23:20Z</time>
      </trkpt>
      <trkpt lat="37.1544210" lon="-3.6867520">
        <ele>644.1</ele>
        <time>2019-06-24T14:23:21Z</time>
      </trkpt>
      <trkpt lat="37.1543990" lon="-3.6867170">
        <ele>644.1</ele>
        <time>2019-06-24T14:23:22Z</time>
      </trkpt>
      <trkpt lat="37.1543660" lon="-3.6866880">
        <ele>644.1</ele>
        <time>2019-06-24T14:23:23Z</time>
      </trkpt>
      <trkpt lat="37.1543270" lon="-3.6866530">
        <ele>644.1</ele>
        <time>2019-06-24T14:23:24Z</time>
      </trkpt>
      <trkpt lat="37.1542830" lon="-3.6866210">
        <ele>644.2</ele>
        <time>2019-06-24T14:23:25Z</time>
      </trkpt>
      <trkpt lat="37.1542380" lon="-3.6865810">
        <ele>644.3</ele>
        <time>2019-06-24T14:23:26Z</time>
      </trkpt>
      <trkpt lat="37.1541900" lon="-3.6865360">
        <ele>644.3</ele>
        <time>2019-06-24T14:23:27Z</time>
      </trkpt>
      <trkpt lat="37.1541430" lon="-3.6864960">
        <ele>644.4</ele>
        <time>2019-06-24T14:23:28Z</time>
      </trkpt>
      <trkpt lat="37.1540950" lon="-3.6864560">
        <ele>644.6</ele>
        <time>2019-06-24T14:23:29Z</time>
      </trkpt>
      <trkpt lat="37.1540450" lon="-3.6864140">
        <ele>644.7</ele>
        <time>2019-06-24T14:23:30Z</time>
      </trkpt>
      <trkpt lat="37.1539940" lon="-3.6863740">
        <ele>645.0</ele>
        <time>2019-06-24T14:23:31Z</time>
      </trkpt>
      <trkpt lat="37.1539420" lon="-3.6863370">
        <ele>645.3</ele>
        <time>2019-06-24T14:23:32Z</time>
      </trkpt>
      <trkpt lat="37.1538920" lon="-3.6863000">
        <ele>645.5</ele>
        <time>2019-06-24T14:23:33Z</time>
      </trkpt>
      <trkpt lat="37.1538400" lon="-3.6862670">
        <ele>645.7</ele>
        <time>2019-06-24T14:23:34Z</time>
      </trkpt>
      <trkpt lat="37.1537880" lon="-3.6862380">
        <ele>645.9</ele>
        <time>2019-06-24T14:23:35Z</time>
      </trkpt>
      <trkpt lat="37.1537340" lon="-3.6862120">
        <ele>646.2</ele>
        <time>2019-06-24T14:23:36Z</time>
      </trkpt>
      <trkpt lat="37.1536840" lon="-3.6861900">
        <ele>646.4</ele>
        <time>2019-06-24T14:23:37Z</time>
      </trkpt>
      <trkpt lat="37.1536330" lon="-3.6861650">
        <ele>646.6</ele>
        <time>2019-06-24T14:23:38Z</time>
      </trkpt>
      <trkpt lat="37.1535840" lon="-3.6861430">
        <ele>646.9</ele>
        <time>2019-06-24T14:23:39Z</time>
      </trkpt>
      <trkpt lat="37.1535350" lon="-3.6861250">
        <ele>647.2</ele>
        <time>2019-06-24T14:23:40Z</time>
      </trkpt>
      <trkpt lat="37.1534870" lon="-3.6861050">
        <ele>647.6</ele>
        <time>2019-06-24T14:23:41Z</time>
      </trkpt>
      <trkpt lat="37.1534380" lon="-3.6860790">
        <ele>647.9</ele>
        <time>2019-06-24T14:23:42Z</time>
      </trkpt>
      <trkpt lat="37.1533910" lon="-3.6860560">
        <ele>648.1</ele>
        <time>2019-06-24T14:23:43Z</time>
      </trkpt>
      <trkpt lat="37.1533460" lon="-3.6860330">
        <ele>648.3</ele>
        <time>2019-06-24T14:23:44Z</time>
      </trkpt>
      <trkpt lat="37.1532970" lon="-3.6860060">
        <ele>648.5</ele>
        <time>2019-06-24T14:23:45Z</time>
      </trkpt>
      <trkpt lat="37.1532480" lon="-3.6859810">
        <ele>648.7</ele>
        <time>2019-06-24T14:23:46Z</time>
      </trkpt>
      <trkpt lat="37.1531970" lon="-3.6859580">
        <ele>649.0</ele>
        <time>2019-06-24T14:23:47Z</time>
      </trkpt>
      <trkpt lat="37.1531460" lon="-3.6859370">
        <ele>649.2</ele>
        <time>2019-06-24T14:23:48Z</time>
      </trkpt>
      <trkpt lat="37.1530950" lon="-3.6859170">
        <ele>649.4</ele>
        <time>2019-06-24T14:23:49Z</time>
      </trkpt>
      <trkpt lat="37.1530460" lon="-3.6858940">
        <ele>649.6</ele>
        <time>2019-06-24T14:23:50Z</time>
      </trkpt>
      <trkpt lat="37.1530010" lon="-3.6858700">
        <ele>649.8</ele>
        <time>2019-06-24T14:23:51Z</time>
      </trkpt>
      <trkpt lat="37.1529590" lon="-3.6858440">
        <ele>650.0</ele>
        <time>2019-06-24T14:23:52Z</time>
      </trkpt>
      <trkpt lat="37.1529120" lon="-3.6858120">
        <ele>650.2</ele>
        <time>2019-06-24T14:23:53Z</time>
      </trkpt>
      <trkpt lat="37.1528650" lon="-3.6857800">
        <ele>650.4</ele>
        <time>2019-06-24T14:23:54Z</time>
      </trkpt>
      <trkpt lat="37.1528150" lon="-3.6857460">
        <ele>650.6</ele>
        <time>2019-06-24T14:23:55Z</time>
      </trkpt>
      <trkpt lat="37.1527640" lon="-3.6857100">
        <ele>650.8</ele>
        <time>2019-06-24T14:23:56Z</time>
      </trkpt>
      <trkpt lat="37.1527140" lon="-3.6856730">
        <ele>651.0</ele>
        <time>2019-06-24T14:23:57Z</time>
      </trkpt>
      <trkpt lat="37.1526620" lon="-3.6856350">
        <ele>651.2</ele>
        <time>2019-06-24T14:23:58Z</time>
      </trkpt>
      <trkpt lat="37.1526110" lon="-3.6855960">
        <ele>651.4</ele>
        <time>2019-06-24T14:23:59Z</time>
      </trkpt>
      <trkpt lat="37.1525600" lon="-3.6855600">
        <ele>651.6</ele>
        <time>2019-06-24T14:24:00Z</time>
      </trkpt>
      <trkpt lat="37.1525080" lon="-3.6855300">
        <ele>651.8</ele>
        <time>2019-06-24T14:24:01Z</time>
      </trkpt>
      <trkpt lat="37.1524560" lon="-3.6855010">
        <ele>652.0</ele>
        <time>2019-06-24T14:24:02Z</time>
      </trkpt>
      <trkpt lat="37.1524040" lon="-3.6854800">
        <ele>652.1</ele>
        <time>2019-06-24T14:24:03Z</time>
      </trkpt>
      <trkpt lat="37.1523520" lon="-3.6854590">
        <ele>652.2</ele>
        <time>2019-06-24T14:24:04Z</time>
      </trkpt>
      <trkpt lat="37.1523000" lon="-3.6854400">
        <ele>652.4</ele>
        <time>2019-06-24T14:24:05Z</time>
      </trkpt>
      <trkpt lat="37.1522460" lon="-3.6854190">
        <ele>652.5</ele>
        <time>2019-06-24T14:24:06Z</time>
      </trkpt>
      <trkpt lat="37.1521910" lon="-3.6853940">
        <ele>652.6</ele>
        <time>2019-06-24T14:24:07Z</time>
      </trkpt>
      <trkpt lat="37.1521380" lon="-3.6853610">
        <ele>652.8</ele>
        <time>2019-06-24T14:24:08Z</time>
      </trkpt>
      <trkpt lat="37.1520850" lon="-3.6853230">
        <ele>652.9</ele>
        <time>2019-06-24T14:24:09Z</time>
      </trkpt>
      <trkpt lat="37.1520350" lon="-3.6852820">
        <ele>653.0</ele>
        <time>2019-06-24T14:24:10Z</time>
      </trkpt>
      <trkpt lat="37.1519840" lon="-3.6852430">
        <ele>653.1</ele>
        <time>2019-06-24T14:24:11Z</time>
      </trkpt>
      <trkpt lat="37.1519360" lon="-3.6852030">
        <ele>653.1</ele>
        <time>2019-06-24T14:24:12Z</time>
      </trkpt>
      <trkpt lat="37.1518880" lon="-3.6851630">
        <ele>653.2</ele>
        <time>2019-06-24T14:24:13Z</time>
      </trkpt>
      <trkpt lat="37.1518360" lon="-3.6851220">
        <ele>653.2</ele>
        <time>2019-06-24T14:24:14Z</time>
      </trkpt>
      <trkpt lat="37.1517810" lon="-3.6850840">
        <ele>653.1</ele>
        <time>2019-06-24T14:24:15Z</time>
      </trkpt>
      <trkpt lat="37.1517210" lon="-3.6850500">
        <ele>653.0</ele>
        <time>2019-06-24T14:24:16Z</time>
      </trkpt>
      <trkpt lat="37.1516580" lon="-3.6850200">
        <ele>653.0</ele>
        <time>2019-06-24T14:24:17Z</time>
      </trkpt>
      <trkpt lat="37.1515950" lon="-3.6849880">
        <ele>652.9</ele>
        <time>2019-06-24T14:24:18Z</time>
      </trkpt>
      <trkpt lat="37.1515340" lon="-3.6849560">
        <ele>652.9</ele>
        <time>2019-06-24T14:24:19Z</time>
      </trkpt>
      <trkpt lat="37.1514740" lon="-3.6849230">
        <ele>652.8</ele>
        <time>2019-06-24T14:24:20Z</time>
      </trkpt>
      <trkpt lat="37.1514150" lon="-3.6848920">
        <ele>652.8</ele>
        <time>2019-06-24T14:24:21Z</time>
      </trkpt>
      <trkpt lat="37.1513720" lon="-3.6848720">
        <ele>652.8</ele>
        <time>2019-06-24T14:24:22Z</time>
      </trkpt>
      <trkpt lat="37.1513430" lon="-3.6848640">
        <ele>652.8</ele>
        <time>2019-06-24T14:24:23Z</time>
      </trkpt>
      <trkpt lat="37.1513310" lon="-3.6848610">
        <ele>652.8</ele>
        <time>2019-06-24T14:24:24Z</time>
      </trkpt>
      <trkpt lat="37.1512930" lon="-3.6847950">
        <ele>652.8</ele>
        <time>2019-06-24T17:23:15Z</time>
      </trkpt>
      <trkpt lat="37.1512800" lon="-3.6847800">
        <ele>652.9</ele>
        <time>2019-06-24T17:23:16Z</time>
      </trkpt>
      <trkpt lat="37.1512580" lon="-3.6847650">
        <ele>652.9</ele>
        <time>2019-06-24T17:23:17Z</time>
      </trkpt>
      <trkpt lat="37.1512230" lon="-3.6847480">
        <ele>652.9</ele>
        <time>2019-06-24T17:23:18Z</time>
      </trkpt>
      <trkpt lat="37.1511820" lon="-3.6847270">
        <ele>653.0</ele>
        <time>2019-06-24T17:23:19Z</time>
      </trkpt>
      <trkpt lat="37.1511420" lon="-3.6847140">
        <ele>653.1</ele>
        <time>2019-06-24T17:23:20Z</time>
      </trkpt>
      <trkpt lat="37.1510980" lon="-3.6846960">
        <ele>653.2</ele>
        <time>2019-06-24T17:23:21Z</time>
      </trkpt>
      <trkpt lat="37.1510510" lon="-3.6846800">
        <ele>653.3</ele>
        <time>2019-06-24T17:23:22Z</time>
      </trkpt>
      <trkpt lat="37.1509990" lon="-3.6846620">
        <ele>653.4</ele>
        <time>2019-06-24T17:23:23Z</time>
      </trkpt>
      <trkpt lat="37.1509460" lon="-3.6846400">
        <ele>653.4</ele>
        <time>2019-06-24T17:23:24Z</time>
      </trkpt>
      <trkpt lat="37.1508940" lon="-3.6846120">
        <ele>653.5</ele>
        <time>2019-06-24T17:23:25Z</time>
      </trkpt>
      <trkpt lat="37.1508430" lon="-3.6845830">
        <ele>653.7</ele>
        <time>2019-06-24T17:23:26Z</time>
      </trkpt>
      <trkpt lat="37.1507910" lon="-3.6845430">
        <ele>653.9</ele>
        <time>2019-06-24T17:23:27Z</time>
      </trkpt>
      <trkpt lat="37.1507380" lon="-3.6844990">
        <ele>654.1</ele>
        <time>2019-06-24T17:23:28Z</time>
      </trkpt>
      <trkpt lat="37.1506860" lon="-3.6844500">
        <ele>654.3</ele>
        <time>2019-06-24T17:23:29Z</time>
      </trkpt>
      <trkpt lat="37.1506280" lon="-3.6844070">
        <ele>654.5</ele>
        <time>2019-06-24T17:23:30Z</time>
      </trkpt>
      <trkpt lat="37.1505700" lon="-3.6843670">
        <ele>654.7</ele>
        <time>2019-06-24T17:23:31Z</time>
      </trkpt>
      <trkpt lat="37.1505140" lon="-3.6843230">
        <ele>654.9</ele>
        <time>2019-06-24T17:23:32Z</time>
      </trkpt>
      <trkpt lat="37.1504610" lon="-3.6842770">
        <ele>655.1</ele>
        <time>2019-06-24T17:23:33Z</time>
      </trkpt>
      <trkpt lat="37.1504100" lon="-3.6842340">
        <ele>655.3</ele>
        <time>2019-06-24T17:23:34Z</time>
      </trkpt>
      <trkpt lat="37.1503610" lon="-3.6841930">
        <ele>655.6</ele>
        <time>2019-06-24T17:23:35Z</time>
      </trkpt>
      <trkpt lat="37.1503180" lon="-3.6841530">
        <ele>655.8</ele>
        <time>2019-06-24T17:23:36Z</time>
      </trkpt>
      <trkpt lat="37.1502800" lon="-3.6841190">
        <ele>656.0</ele>
        <time>2019-06-24T17:23:37Z</time>
      </trkpt>
      <trkpt lat="37.1502440" lon="-3.6840920">
        <ele>656.3</ele>
        <time>2019-06-24T17:23:38Z</time>
      </trkpt>
      <trkpt lat="37.1502100" lon="-3.6840700">
        <ele>656.5</ele>
        <time>2019-06-24T17:23:39Z</time>
      </trkpt>
      <trkpt lat="37.1501770" lon="-3.6840500">
        <ele>656.7</ele>
        <time>2019-06-24T17:23:40Z</time>
      </trkpt>
      <trkpt lat="37.1501450" lon="-3.6840280">
        <ele>656.9</ele>
        <time>2019-06-24T17:23:41Z</time>
      </trkpt>
      <trkpt lat="37.1501110" lon="-3.6840020">
        <ele>657.1</ele>
        <time>2019-06-24T17:23:42Z</time>
      </trkpt>
      <trkpt lat="37.1500750" lon="-3.6839760">
        <ele>657.3</ele>
        <time>2019-06-24T17:23:43Z</time>
      </trkpt>
      <trkpt lat="37.1500360" lon="-3.6839500">
        <ele>657.5</ele>
        <time>2019-06-24T17:23:44Z</time>
      </trkpt>
      <trkpt lat="37.1499980" lon="-3.6839290">
        <ele>657.7</ele>
        <time>2019-06-24T17:23:45Z</time>
      </trkpt>
      <trkpt lat="37.1499590" lon="-3.6839090">
        <ele>657.8</ele>
        <time>2019-06-24T17:23:46Z</time>
      </trkpt>
      <trkpt lat="37.1499230" lon="-3.6838860">
        <ele>658.0</ele>
        <time>2019-06-24T17:23:47Z</time>
      </trkpt>
      <trkpt lat="37.1498890" lon="-3.6838640">
        <ele>658.1</ele>
        <time>2019-06-24T17:23:48Z</time>
      </trkpt>
      <trkpt lat="37.1498570" lon="-3.6838460">
        <ele>658.3</ele>
        <time>2019-06-24T17:23:49Z</time>
      </trkpt>
      <trkpt lat="37.1498270" lon="-3.6838280">
        <ele>658.5</ele>
        <time>2019-06-24T17:23:50Z</time>
      </trkpt>
      <trkpt lat="37.1497990" lon="-3.6838150">
        <ele>658.7</ele>
        <time>2019-06-24T17:23:51Z</time>
      </trkpt>
      <trkpt lat="37.1497720" lon="-3.6838020">
        <ele>658.8</ele>
        <time>2019-06-24T17:23:52Z</time>
      </trkpt>
      <trkpt lat="37.1497440" lon="-3.6837820">
        <ele>659.0</ele>
        <time>2019-06-24T17:23:53Z</time>
      </trkpt>
      <trkpt lat="37.1497170" lon="-3.6837580">
        <ele>659.3</ele>
        <time>2019-06-24T17:23:54Z</time>
      </trkpt>
      <trkpt lat="37.1496930" lon="-3.6837350">
        <ele>659.5</ele>
        <time>2019-06-24T17:23:55Z</time>
      </trkpt>
      <trkpt lat="37.1496690" lon="-3.6837060">
        <ele>659.7</ele>
        <time>2019-06-24T17:23:56Z</time>
      </trkpt>
      <trkpt lat="37.1496440" lon="-3.6836770">
        <ele>660.0</ele>
        <time>2019-06-24T17:23:57Z</time>
      </trkpt>
      <trkpt lat="37.1496180" lon="-3.6836520">
        <ele>660.3</ele>
        <time>2019-06-24T17:23:58Z</time>
      </trkpt>
      <trkpt lat="37.1495890" lon="-3.6836320">
        <ele>660.6</ele>
        <time>2019-06-24T17:23:59Z</time>
      </trkpt>
      <trkpt lat="37.1495630" lon="-3.6836080">
        <ele>660.9</ele>
        <time>2019-06-24T17:24:00Z</time>
      </trkpt>
      <trkpt lat="37.1495360" lon="-3.6835770">
        <ele>661.3</ele>
        <time>2019-06-24T17:24:01Z</time>
      </trkpt>
      <trkpt lat="37.1495080" lon="-3.6835460">
        <ele>661.5</ele>
        <time>2019-06-24T17:24:02Z</time>
      </trkpt>
      <trkpt lat="37.1494800" lon="-3.6835110">
        <ele>661.3</ele>
        <time>2019-06-24T17:24:03Z</time>
      </trkpt>
      <trkpt lat="37.1494530" lon="-3.6834740">
        <ele>661.1</ele>
        <time>2019-06-24T17:24:04Z</time>
      </trkpt>
      <trkpt lat="37.1494270" lon="-3.6834340">
        <ele>660.9</ele>
        <time>2019-06-24T17:24:05Z</time>
      </trkpt>
      <trkpt lat="37.1494010" lon="-3.6833940">
        <ele>660.6</ele>
        <time>2019-06-24T17:24:06Z</time>
      </trkpt>
      <trkpt lat="37.1493730" lon="-3.6833560">
        <ele>660.4</ele>
        <time>2019-06-24T17:24:07Z</time>
      </trkpt>
      <trkpt lat="37.1493480" lon="-3.6833170">
        <ele>660.3</ele>
        <time>2019-06-24T17:24:08Z</time>
      </trkpt>
      <trkpt lat="37.1493200" lon="-3.6832730">
        <ele>660.2</ele>
        <time>2019-06-24T17:24:09Z</time>
      </trkpt>
      <trkpt lat="37.1492890" lon="-3.6832280">
        <ele>660.1</ele>
        <time>2019-06-24T17:24:10Z</time>
      </trkpt>
      <trkpt lat="37.1492560" lon="-3.6831840">
        <ele>660.1</ele>
        <time>2019-06-24T17:24:11Z</time>
      </trkpt>
      <trkpt lat="37.1492190" lon="-3.6831400">
        <ele>660.0</ele>
        <time>2019-06-24T17:24:12Z</time>
      </trkpt>
      <trkpt lat="37.1491800" lon="-3.6830950">
        <ele>660.0</ele>
        <time>2019-06-24T17:24:13Z</time>
      </trkpt>
      <trkpt lat="37.1491400" lon="-3.6830480">
        <ele>659.9</ele>
        <time>2019-06-24T17:24:14Z</time>
      </trkpt>
      <trkpt lat="37.1490980" lon="-3.6829980">
        <ele>659.9</ele>
        <time>2019-06-24T17:24:15Z</time>
      </trkpt>
      <trkpt lat="37.1490540" lon="-3.6829480">
        <ele>659.8</ele>
        <time>2019-06-24T17:24:16Z</time>
      </trkpt>
      <trkpt lat="37.1490080" lon="-3.6828950">
        <ele>659.8</ele>
        <time>2019-06-24T17:24:17Z</time>
      </trkpt>
      <trkpt lat="37.1489600" lon="-3.6828460">
        <ele>659.7</ele>
        <time>2019-06-24T17:24:18Z</time>
      </trkpt>
      <trkpt lat="37.1489110" lon="-3.6827960">
        <ele>659.7</ele>
        <time>2019-06-24T17:24:19Z</time>
      </trkpt>
      <trkpt lat="37.1488600" lon="-3.6827460">
        <ele>659.7</ele>
        <time>2019-06-24T17:24:20Z</time>
      </trkpt>
      <trkpt lat="37.1488080" lon="-3.6826950">
        <ele>659.6</ele>
        <time>2019-06-24T17:24:21Z</time>
      </trkpt>
      <trkpt lat="37.1487560" lon="-3.6826410">
        <ele>659.6</ele>
        <time>2019-06-24T17:24:22Z</time>
      </trkpt>
      <trkpt lat="37.1487040" lon="-3.6825830">
        <ele>659.6</ele>
        <time>2019-06-24T17:24:23Z</time>
      </trkpt>
      <trkpt lat="37.1486500" lon="-3.6825260">
        <ele>659.6</ele>
        <time>2019-06-24T17:24:24Z</time>
      </trkpt>
      <trkpt lat="37.1485940" lon="-3.6824730">
        <ele>659.6</ele>
        <time>2019-06-24T17:24:25Z</time>
      </trkpt>
      <trkpt lat="37.1485360" lon="-3.6824230">
        <ele>659.5</ele>
        <time>2019-06-24T17:24:26Z</time>
      </trkpt>
      <trkpt lat="37.1484780" lon="-3.6823710">
        <ele>659.5</ele>
        <time>2019-06-24T17:24:27Z</time>
      </trkpt>
      <trkpt lat="37.1484190" lon="-3.6823190">
        <ele>659.5</ele>
        <time>2019-06-24T17:24:28Z</time>
      </trkpt>
      <trkpt lat="37.1483610" lon="-3.6822640">
        <ele>659.5</ele>
        <time>2019-06-24T17:24:29Z</time>
      </trkpt>
      <trkpt lat="37.1483040" lon="-3.6822080">
        <ele>659.6</ele>
        <time>2019-06-24T17:24:30Z</time>
      </trkpt>
      <trkpt lat="37.1482470" lon="-3.6821510">
        <ele>659.6</ele>
        <time>2019-06-24T17:24:31Z</time>
      </trkpt>
      <trkpt lat="37.1481900" lon="-3.6820960">
        <ele>659.7</ele>
        <time>2019-06-24T17:24:32Z</time>
      </trkpt>
      <trkpt lat="37.1481320" lon="-3.6820410">
        <ele>659.7</ele>
        <time>2019-06-24T17:24:33Z</time>
      </trkpt>
      <trkpt lat="37.1480730" lon="-3.6819860">
        <ele>659.8</ele>
        <time>2019-06-24T17:24:34Z</time>
      </trkpt>
      <trkpt lat="37.1480140" lon="-3.6819330">
        <ele>659.9</ele>
        <time>2019-06-24T17:24:35Z</time>
      </trkpt>
      <trkpt lat="37.1479550" lon="-3.6818800">
        <ele>660.1</ele>
        <time>2019-06-24T17:24:36Z</time>
      </trkpt>
      <trkpt lat="37.1478940" lon="-3.6818280">
        <ele>660.3</ele>
        <time>2019-06-24T17:24:37Z</time>
      </trkpt>
      <trkpt lat="37.1478350" lon="-3.6817740">
        <ele>660.6</ele>
        <time>2019-06-24T17:24:38Z</time>
      </trkpt>
      <trkpt lat="37.1477760" lon="-3.6817200">
        <ele>660.8</ele>
        <time>2019-06-24T17:24:39Z</time>
      </trkpt>
      <trkpt lat="37.1477180" lon="-3.6816650">
        <ele>661.0</ele>
        <time>2019-06-24T17:24:40Z</time>
      </trkpt>
      <trkpt lat="37.1476600" lon="-3.6816110">
        <ele>661.2</ele>
        <time>2019-06-24T17:24:41Z</time>
      </trkpt>
      <trkpt lat="37.1476010" lon="-3.6815580">
        <ele>661.4</ele>
        <time>2019-06-24T17:24:42Z</time>
      </trkpt>
      <trkpt lat="37.1475430" lon="-3.6815080">
        <ele>661.5</ele>
        <time>2019-06-24T17:24:43Z</time>
      </trkpt>
      <trkpt lat="37.1474850" lon="-3.6814590">
        <ele>661.6</ele>
        <time>2019-06-24T17:24:44Z</time>
      </trkpt>
      <trkpt lat="37.1474270" lon="-3.6814130">
        <ele>661.7</ele>
        <time>2019-06-24T17:24:45Z</time>
      </trkpt>
      <trkpt lat="37.1473730" lon="-3.6813690">
        <ele>661.9</ele>
        <time>2019-06-24T17:24:46Z</time>
      </trkpt>
      <trkpt lat="37.1473200" lon="-3.6813230">
        <ele>662.0</ele>
        <time>2019-06-24T17:24:47Z</time>
      </trkpt>
      <trkpt lat="37.1472700" lon="-3.6812810">
        <ele>662.1</ele>
        <time>2019-06-24T17:24:48Z</time>
      </trkpt>
      <trkpt lat="37.1472160" lon="-3.6812420">
        <ele>662.3</ele>
        <time>2019-06-24T17:24:49Z</time>
      </trkpt>
      <trkpt lat="37.1471610" lon="-3.6812070">
        <ele>662.5</ele>
        <time>2019-06-24T17:24:50Z</time>
      </trkpt>
      <trkpt lat="37.1471100" lon="-3.6811730">
        <ele>662.6</ele>
        <time>2019-06-24T17:24:51Z</time>
      </trkpt>
      <trkpt lat="37.1470610" lon="-3.6811410">
        <ele>662.9</ele>
        <time>2019-06-24T17:24:52Z</time>
      </trkpt>
      <trkpt lat="37.1470170" lon="-3.6811090">
        <ele>663.1</ele>
        <time>2019-06-24T17:24:53Z</time>
      </trkpt>
      <trkpt lat="37.1469740" lon="-3.6810790">
        <ele>663.3</ele>
        <time>2019-06-24T17:24:54Z</time>
      </trkpt>
      <trkpt lat="37.1469310" lon="-3.6810520">
        <ele>663.5</ele>
        <time>2019-06-24T17:24:55Z</time>
      </trkpt>
      <trkpt lat="37.1468890" lon="-3.6810220">
        <ele>663.7</ele>
        <time>2019-06-24T17:24:56Z</time>
      </trkpt>
      <trkpt lat="37.1468470" lon="-3.6809880">
        <ele>663.9</ele>
        <time>2019-06-24T17:24:57Z</time>
      </trkpt>
      <trkpt lat="37.1468020" lon="-3.6809580">
        <ele>664.1</ele>
        <time>2019-06-24T17:24:58Z</time>
      </trkpt>
      <trkpt lat="37.1467560" lon="-3.6809210">
        <ele>664.2</ele>
        <time>2019-06-24T17:24:59Z</time>
      </trkpt>
      <trkpt lat="37.1467040" lon="-3.6808840">
        <ele>664.4</ele>
        <time>2019-06-24T17:25:00Z</time>
      </trkpt>
      <trkpt lat="37.1466430" lon="-3.6808490">
        <ele>664.2</ele>
        <time>2019-06-24T17:25:01Z</time>
      </trkpt>
      <trkpt lat="37.1465830" lon="-3.6808170">
        <ele>664.1</ele>
        <time>2019-06-24T17:25:02Z</time>
      </trkpt>
      <trkpt lat="37.1465310" lon="-3.6807970">
        <ele>663.9</ele>
        <time>2019-06-24T17:25:03Z</time>
      </trkpt>
      <trkpt lat="37.1464930" lon="-3.6807630">
        <ele>663.8</ele>
        <time>2019-06-24T17:25:04Z</time>
      </trkpt>
      <trkpt lat="37.1464800" lon="-3.6807190">
        <ele>663.6</ele>
        <time>2019-06-24T17:25:05Z</time>
      </trkpt>
      <trkpt lat="37.1464960" lon="-3.6806780">
        <ele>663.3</ele>
        <time>2019-06-24T17:25:06Z</time>
      </trkpt>
      <trkpt lat="37.1465350" lon="-3.6806400">
        <ele>662.8</ele>
        <time>2019-06-24T17:25:07Z</time>
      </trkpt>
      <trkpt lat="37.1465850" lon="-3.6805980">
        <ele>662.3</ele>
        <time>2019-06-24T17:25:08Z</time>
      </trkpt>
      <trkpt lat="37.1466410" lon="-3.6805470">
        <ele>661.8</ele>
        <time>2019-06-24T17:25:09Z</time>
      </trkpt>
      <trkpt lat="37.1466980" lon="-3.6804870">
        <ele>661.2</ele>
        <time>2019-06-24T17:25:10Z</time>
      </trkpt>
      <trkpt lat="37.1467580" lon="-3.6804220">
        <ele>660.7</ele>
        <time>2019-06-24T17:25:11Z</time>
      </trkpt>
      <trkpt lat="37.1468190" lon="-3.6803550">
        <ele>660.2</ele>
        <time>2019-06-24T17:25:12Z</time>
      </trkpt>
      <trkpt lat="37.1468830" lon="-3.6802870">
        <ele>659.9</ele>
        <time>2019-06-24T17:25:13Z</time>
      </trkpt>
      <trkpt lat="37.1469490" lon="-3.6802150">
        <ele>659.6</ele>
        <time>2019-06-24T17:25:14Z</time>
      </trkpt>
      <trkpt lat="37.1470160" lon="-3.6801410">
        <ele>659.3</ele>
        <time>2019-06-24T17:25:15Z</time>
      </trkpt>
      <trkpt lat="37.1470830" lon="-3.6800660">
        <ele>658.7</ele>
        <time>2019-06-24T17:25:16Z</time>
      </trkpt>
      <trkpt lat="37.1471500" lon="-3.6799900">
        <ele>658.2</ele>
        <time>2019-06-24T17:25:17Z</time>
      </trkpt>
      <trkpt lat="37.1472180" lon="-3.6799150">
        <ele>657.7</ele>
        <time>2019-06-24T17:25:18Z</time>
      </trkpt>
      <trkpt lat="37.1472860" lon="-3.6798380">
        <ele>657.3</ele>
        <time>2019-06-24T17:25:19Z</time>
      </trkpt>
      <trkpt lat="37.1473540" lon="-3.6797600">
        <ele>656.9</ele>
        <time>2019-06-24T17:25:20Z</time>
      </trkpt>
      <trkpt lat="37.1474200" lon="-3.6796800">
        <ele>656.5</ele>
        <time>2019-06-24T17:25:21Z</time>
      </trkpt>
      <trkpt lat="37.1474890" lon="-3.6796010">
        <ele>656.2</ele>
        <time>2019-06-24T17:25:22Z</time>
      </trkpt>
      <trkpt lat="37.1475600" lon="-3.6795230">
        <ele>656.0</ele>
        <time>2019-06-24T17:25:23Z</time>
      </trkpt>
      <trkpt lat="37.1476280" lon="-3.6794450">
        <ele>655.7</ele>
        <time>2019-06-24T17:25:24Z</time>
      </trkpt>
      <trkpt lat="37.1476950" lon="-3.6793680">
        <ele>655.3</ele>
        <time>2019-06-24T17:25:25Z</time>
      </trkpt>
      <trkpt lat="37.1477640" lon="-3.6792960">
        <ele>655.0</ele>
        <time>2019-06-24T17:25:26Z</time>
      </trkpt>
      <trkpt lat="37.1478310" lon="-3.6792230">
        <ele>654.7</ele>
        <time>2019-06-24T17:25:27Z</time>
      </trkpt>
      <trkpt lat="37.1478950" lon="-3.6791440">
        <ele>654.3</ele>
        <time>2019-06-24T17:25:28Z</time>
      </trkpt>
      <trkpt lat="37.1479520" lon="-3.6790520">
        <ele>653.7</ele>
        <time>2019-06-24T17:25:29Z</time>
      </trkpt>
      <trkpt lat="37.1480110" lon="-3.6789540">
        <ele>653.0</ele>
        <time>2019-06-24T17:25:30Z</time>
      </trkpt>
      <trkpt lat="37.1480770" lon="-3.6788570">
        <ele>652.5</ele>
        <time>2019-06-24T17:25:31Z</time>
      </trkpt>
      <trkpt lat="37.1481400" lon="-3.6787610">
        <ele>652.2</ele>
        <time>2019-06-24T17:25:32Z</time>
      </trkpt>
      <trkpt lat="37.1482040" lon="-3.6786650">
        <ele>652.1</ele>
        <time>2019-06-24T17:25:33Z</time>
      </trkpt>
      <trkpt lat="37.1482690" lon="-3.6785680">
        <ele>652.0</ele>
        <time>2019-06-24T17:25:34Z</time>
      </trkpt>
      <trkpt lat="37.1483340" lon="-3.6784710">
        <ele>652.0</ele>
        <time>2019-06-24T17:25:35Z</time>
      </trkpt>
      <trkpt lat="37.1483980" lon="-3.6783740">
        <ele>652.0</ele>
        <time>2019-06-24T17:25:36Z</time>
      </trkpt>
      <trkpt lat="37.1484620" lon="-3.6782780">
        <ele>651.9</ele>
        <time>2019-06-24T17:25:37Z</time>
      </trkpt>
      <trkpt lat="37.1485230" lon="-3.6781850">
        <ele>651.9</ele>
        <time>2019-06-24T17:25:38Z</time>
      </trkpt>
      <trkpt lat="37.1485820" lon="-3.6780920">
        <ele>651.9</ele>
        <time>2019-06-24T17:25:39Z</time>
      </trkpt>
      <trkpt lat="37.1486320" lon="-3.6780130">
        <ele>651.9</ele>
        <time>2019-06-24T17:25:40Z</time>
      </trkpt>
      <trkpt lat="37.1486630" lon="-3.6779510">
        <ele>651.9</ele>
        <time>2019-06-24T17:25:41Z</time>
      </trkpt>
      <trkpt lat="37.1486760" lon="-3.6779170">
        <ele>651.8</ele>
        <time>2019-06-24T17:25:42Z</time>
      </trkpt>
      <trkpt lat="37.1486800" lon="-3.6779010">
        <ele>651.8</ele>
        <time>2019-06-24T17:25:43Z</time>
      </trkpt>
      <trkpt lat="37.1486810" lon="-3.6778880">
        <ele>651.8</ele>
        <time>2019-06-24T17:25:44Z</time>
      </trkpt>
      <trkpt lat="37.1486780" lon="-3.6778720">
        <ele>651.8</ele>
        <time>2019-06-24T17:25:45Z</time>
      </trkpt>
      <trkpt lat="37.1486690" lon="-3.6778550">
        <ele>651.8</ele>
        <time>2019-06-24T17:25:46Z</time>
      </trkpt>
      <trkpt lat="37.1486550" lon="-3.6778320">
        <ele>651.8</ele>
        <time>2019-06-24T17:25:47Z</time>
      </trkpt>
      <trkpt lat="37.1486330" lon="-3.6777960">
        <ele>651.8</ele>
        <time>2019-06-24T17:25:48Z</time>
      </trkpt>
      <trkpt lat="37.1486100" lon="-3.6777510">
        <ele>651.9</ele>
        <time>2019-06-24T17:25:49Z</time>
      </trkpt>
      <trkpt lat="37.1485830" lon="-3.6777000">
        <ele>651.9</ele>
        <time>2019-06-24T17:25:50Z</time>
      </trkpt>
      <trkpt lat="37.1485550" lon="-3.6776390">
        <ele>651.9</ele>
        <time>2019-06-24T17:25:51Z</time>
      </trkpt>
      <trkpt lat="37.1485210" lon="-3.6775720">
        <ele>651.9</ele>
        <time>2019-06-24T17:25:52Z</time>
      </trkpt>
      <trkpt lat="37.1484870" lon="-3.6774960">
        <ele>651.9</ele>
        <time>2019-06-24T17:25:53Z</time>
      </trkpt>
      <trkpt lat="37.1484500" lon="-3.6774200">
        <ele>651.9</ele>
        <time>2019-06-24T17:25:54Z</time>
      </trkpt>
      <trkpt lat="37.1484110" lon="-3.6773440">
        <ele>651.9</ele>
        <time>2019-06-24T17:25:55Z</time>
      </trkpt>
      <trkpt lat="37.1483720" lon="-3.6772670">
        <ele>651.9</ele>
        <time>2019-06-24T17:25:56Z</time>
      </trkpt>
      <trkpt lat="37.1483310" lon="-3.6771930">
        <ele>651.9</ele>
        <time>2019-06-24T17:25:57Z</time>
      </trkpt>
      <trkpt lat="37.1482880" lon="-3.6771210">
        <ele>651.8</ele>
        <time>2019-06-24T17:25:58Z</time>
      </trkpt>
      <trkpt lat="37.1482430" lon="-3.6770490">
        <ele>651.8</ele>
        <time>2019-06-24T17:25:59Z</time>
      </trkpt>
      <trkpt lat="37.1481980" lon="-3.6769790">
        <ele>651.7</ele>
        <time>2019-06-24T17:26:00Z</time>
      </trkpt>
      <trkpt lat="37.1481510" lon="-3.6769070">
        <ele>651.6</ele>
        <time>2019-06-24T17:26:01Z</time>
      </trkpt>
      <trkpt lat="37.1481050" lon="-3.6768340">
        <ele>651.5</ele>
        <time>2019-06-24T17:26:02Z</time>
      </trkpt>
      <trkpt lat="37.1480600" lon="-3.6767610">
        <ele>651.4</ele>
        <time>2019-06-24T17:26:03Z</time>
      </trkpt>
      <trkpt lat="37.1480130" lon="-3.6766890">
        <ele>651.4</ele>
        <time>2019-06-24T17:26:04Z</time>
      </trkpt>
      <trkpt lat="37.1479640" lon="-3.6766190">
        <ele>651.3</ele>
        <time>2019-06-24T17:26:05Z</time>
      </trkpt>
      <trkpt lat="37.1479140" lon="-3.6765470">
        <ele>651.3</ele>
        <time>2019-06-24T17:26:06Z</time>
      </trkpt>
      <trkpt lat="37.1478640" lon="-3.6764740">
        <ele>651.2</ele>
        <time>2019-06-24T17:26:07Z</time>
      </trkpt>
      <trkpt lat="37.1478150" lon="-3.6764010">
        <ele>651.1</ele>
        <time>2019-06-24T17:26:08Z</time>
      </trkpt>
      <trkpt lat="37.1477650" lon="-3.6763270">
        <ele>651.0</ele>
        <time>2019-06-24T17:26:09Z</time>
      </trkpt>
      <trkpt lat="37.1477150" lon="-3.6762520">
        <ele>650.9</ele>
        <time>2019-06-24T17:26:10Z</time>
      </trkpt>
      <trkpt lat="37.1476650" lon="-3.6761780">
        <ele>650.9</ele>
        <time>2019-06-24T17:26:11Z</time>
      </trkpt>
      <trkpt lat="37.1476150" lon="-3.6761050">
        <ele>650.8</ele>
        <time>2019-06-24T17:26:12Z</time>
      </trkpt>
      <trkpt lat="37.1475660" lon="-3.6760310">
        <ele>650.7</ele>
        <time>2019-06-24T17:26:13Z</time>
      </trkpt>
      <trkpt lat="37.1475160" lon="-3.6759580">
        <ele>650.7</ele>
        <time>2019-06-24T17:26:14Z</time>
      </trkpt>
      <trkpt lat="37.1474650" lon="-3.6758820">
        <ele>650.6</ele>
        <time>2019-06-24T17:26:15Z</time>
      </trkpt>
      <trkpt lat="37.1474160" lon="-3.6758140">
        <ele>650.6</ele>
        <time>2019-06-24T17:26:16Z</time>
      </trkpt>
      <trkpt lat="37.1473620" lon="-3.6757480">
        <ele>650.6</ele>
        <time>2019-06-24T17:26:17Z</time>
      </trkpt>
      <trkpt lat="37.1473020" lon="-3.6756870">
        <ele>650.7</ele>
        <time>2019-06-24T17:26:18Z</time>
      </trkpt>
      <trkpt lat="37.1472340" lon="-3.6756450">
        <ele>650.8</ele>
        <time>2019-06-24T17:26:19Z</time>
      </trkpt>
      <trkpt lat="37.1471620" lon="-3.6756130">
        <ele>651.1</ele>
        <time>2019-06-24T17:26:20Z</time>
      </trkpt>
      <trkpt lat="37.1470900" lon="-3.6755900">
        <ele>651.6</ele>
        <time>2019-06-24T17:26:21Z</time>
      </trkpt>
      <trkpt lat="37.1470190" lon="-3.6755650">
        <ele>651.8</ele>
        <time>2019-06-24T17:26:22Z</time>
      </trkpt>
      <trkpt lat="37.1469590" lon="-3.6755170">
        <ele>652.0</ele>
        <time>2019-06-24T17:26:23Z</time>
      </trkpt>
      <trkpt lat="37.1469260" lon="-3.6754470">
        <ele>652.1</ele>
        <time>2019-06-24T17:26:24Z</time>
      </trkpt>
      <trkpt lat="37.1469280" lon="-3.6753720">
        <ele>652.1</ele>
        <time>2019-06-24T17:26:25Z</time>
      </trkpt>
      <trkpt lat="37.1469610" lon="-3.6753060">
        <ele>651.8</ele>
        <time>2019-06-24T17:26:26Z</time>
      </trkpt>
      <trkpt lat="37.1470160" lon="-3.6752700">
        <ele>651.6</ele>
        <time>2019-06-24T17:26:27Z</time>
      </trkpt>
      <trkpt lat="37.1470800" lon="-3.6752550">
        <ele>651.3</ele>
        <time>2019-06-24T17:26:28Z</time>
      </trkpt>
      <trkpt lat="37.1471440" lon="-3.6752290">
        <ele>651.1</ele>
        <time>2019-06-24T17:26:29Z</time>
      </trkpt>
      <trkpt lat="37.1471970" lon="-3.6751790">
        <ele>651.0</ele>
        <time>2019-06-24T17:26:30Z</time>
      </trkpt>
      <trkpt lat="37.1472460" lon="-3.6751130">
        <ele>650.9</ele>
        <time>2019-06-24T17:26:31Z</time>
      </trkpt>
      <trkpt lat="37.1472940" lon="-3.6750430">
        <ele>650.8</ele>
        <time>2019-06-24T17:26:32Z</time>
      </trkpt>
      <trkpt lat="37.1473440" lon="-3.6749720">
        <ele>650.6</ele>
        <time>2019-06-24T17:26:33Z</time>
      </trkpt>
      <trkpt lat="37.1473950" lon="-3.6749000">
        <ele>650.5</ele>
        <time>2019-06-24T17:26:34Z</time>
      </trkpt>
      <trkpt lat="37.1474480" lon="-3.6748270">
        <ele>650.3</ele>
        <time>2019-06-24T17:26:35Z</time>
      </trkpt>
      <trkpt lat="37.1475030" lon="-3.6747550">
        <ele>650.0</ele>
        <time>2019-06-24T17:26:36Z</time>
      </trkpt>
      <trkpt lat="37.1475600" lon="-3.6746840">
        <ele>649.8</ele>
        <time>2019-06-24T17:26:37Z</time>
      </trkpt>
      <trkpt lat="37.1476210" lon="-3.6746130">
        <ele>649.5</ele>
        <time>2019-06-24T17:26:38Z</time>
      </trkpt>
      <trkpt lat="37.1476820" lon="-3.6745430">
        <ele>649.3</ele>
        <time>2019-06-24T17:26:39Z</time>
      </trkpt>
      <trkpt lat="37.1477410" lon="-3.6744690">
        <ele>649.2</ele>
        <time>2019-06-24T17:26:40Z</time>
      </trkpt>
      <trkpt lat="37.1478020" lon="-3.6743980">
        <ele>649.1</ele>
        <time>2019-06-24T17:26:41Z</time>
      </trkpt>
      <trkpt lat="37.1478660" lon="-3.6743290">
        <ele>648.9</ele>
        <time>2019-06-24T17:26:42Z</time>
      </trkpt>
      <trkpt lat="37.1479290" lon="-3.6742580">
        <ele>648.8</ele>
        <time>2019-06-24T17:26:43Z</time>
      </trkpt>
      <trkpt lat="37.1479920" lon="-3.6741870">
        <ele>648.7</ele>
        <time>2019-06-24T17:26:44Z</time>
      </trkpt>
      <trkpt lat="37.1480550" lon="-3.6741160">
        <ele>648.6</ele>
        <time>2019-06-24T17:26:45Z</time>
      </trkpt>
      <trkpt lat="37.1481190" lon="-3.6740480">
        <ele>648.6</ele>
        <time>2019-06-24T17:26:46Z</time>
      </trkpt>
      <trkpt lat="37.1481840" lon="-3.6739780">
        <ele>648.5</ele>
        <time>2019-06-24T17:26:47Z</time>
      </trkpt>
      <trkpt lat="37.1482440" lon="-3.6739070">
        <ele>648.3</ele>
        <time>2019-06-24T17:26:48Z</time>
      </trkpt>
      <trkpt lat="37.1483010" lon="-3.6738470">
        <ele>648.2</ele>
        <time>2019-06-24T17:26:49Z</time>
      </trkpt>
      <trkpt lat="37.1483500" lon="-3.6737990">
        <ele>648.1</ele>
        <time>2019-06-24T17:26:50Z</time>
      </trkpt>
      <trkpt lat="37.1483870" lon="-3.6737570">
        <ele>648.0</ele>
        <time>2019-06-24T17:26:51Z</time>
      </trkpt>
      <trkpt lat="37.1484070" lon="-3.6737170">
        <ele>647.9</ele>
        <time>2019-06-24T17:26:52Z</time>
      </trkpt>
      <trkpt lat="37.1484250" lon="-3.6736780">
        <ele>647.9</ele>
        <time>2019-06-24T17:26:53Z</time>
      </trkpt>
      <trkpt lat="37.1484540" lon="-3.6736380">
        <ele>647.8</ele>
        <time>2019-06-24T17:26:54Z</time>
      </trkpt>
      <trkpt lat="37.1484850" lon="-3.6735960">
        <ele>647.7</ele>
        <time>2019-06-24T17:26:55Z</time>
      </trkpt>
      <trkpt lat="37.1485190" lon="-3.6735470">
        <ele>647.6</ele>
        <time>2019-06-24T17:26:56Z</time>
      </trkpt>
      <trkpt lat="37.1485550" lon="-3.6734950">
        <ele>647.5</ele>
        <time>2019-06-24T17:26:57Z</time>
      </trkpt>
      <trkpt lat="37.1485930" lon="-3.6734390">
        <ele>647.4</ele>
        <time>2019-06-24T17:26:58Z</time>
      </trkpt>
      <trkpt lat="37.1486330" lon="-3.6733810">
        <ele>647.4</ele>
        <time>2019-06-24T17:26:59Z</time>
      </trkpt>
      <trkpt lat="37.1486720" lon="-3.6733220">
        <ele>647.3</ele>
        <time>2019-06-24T17:27:00Z</time>
      </trkpt>
      <trkpt lat="37.1487130" lon="-3.6732590">
        <ele>647.2</ele>
        <time>2019-06-24T17:27:01Z</time>
      </trkpt>
      <trkpt lat="37.1487570" lon="-3.6731970">
        <ele>647.1</ele>
        <time>2019-06-24T17:27:02Z</time>
      </trkpt>
      <trkpt lat="37.1488020" lon="-3.6731340">
        <ele>647.1</ele>
        <time>2019-06-24T17:27:03Z</time>
      </trkpt>
      <trkpt lat="37.1488470" lon="-3.6730670">
        <ele>647.0</ele>
        <time>2019-06-24T17:27:04Z</time>
      </trkpt>
      <trkpt lat="37.1488920" lon="-3.6730000">
        <ele>646.9</ele>
        <time>2019-06-24T17:27:05Z</time>
      </trkpt>
      <trkpt lat="37.1489360" lon="-3.6729300">
        <ele>646.9</ele>
        <time>2019-06-24T17:27:06Z</time>
      </trkpt>
      <trkpt lat="37.1489810" lon="-3.6728590">
        <ele>646.8</ele>
        <time>2019-06-24T17:27:07Z</time>
      </trkpt>
      <trkpt lat="37.1490250" lon="-3.6727880">
        <ele>646.7</ele>
        <time>2019-06-24T17:27:08Z</time>
      </trkpt>
      <trkpt lat="37.1490680" lon="-3.6727160">
        <ele>646.6</ele>
        <time>2019-06-24T17:27:09Z</time>
      </trkpt>
      <trkpt lat="37.1491120" lon="-3.6726450">
        <ele>646.5</ele>
        <time>2019-06-24T17:27:10Z</time>
      </trkpt>
      <trkpt lat="37.1491560" lon="-3.6725730">
        <ele>646.4</ele>
        <time>2019-06-24T17:27:11Z</time>
      </trkpt>
      <trkpt lat="37.1491970" lon="-3.6724970">
        <ele>646.3</ele>
        <time>2019-06-24T17:27:12Z</time>
      </trkpt>
      <trkpt lat="37.1492370" lon="-3.6724200">
        <ele>646.2</ele>
        <time>2019-06-24T17:27:13Z</time>
      </trkpt>
      <trkpt lat="37.1492760" lon="-3.6723430">
        <ele>646.1</ele>
        <time>2019-06-24T17:27:14Z</time>
      </trkpt>
      <trkpt lat="37.1493170" lon="-3.6722660">
        <ele>645.9</ele>
        <time>2019-06-24T17:27:15Z</time>
      </trkpt>
      <trkpt lat="37.1493530" lon="-3.6721870">
        <ele>646.0</ele>
        <time>2019-06-24T17:27:16Z</time>
      </trkpt>
      <trkpt lat="37.1493900" lon="-3.6721100">
        <ele>646.1</ele>
        <time>2019-06-24T17:27:17Z</time>
      </trkpt>
      <trkpt lat="37.1494260" lon="-3.6720330">
        <ele>646.2</ele>
        <time>2019-06-24T17:27:18Z</time>
      </trkpt>
      <trkpt lat="37.1494620" lon="-3.6719570">
        <ele>646.3</ele>
        <time>2019-06-24T17:27:19Z</time>
      </trkpt>
      <trkpt lat="37.1494990" lon="-3.6718820">
        <ele>646.4</ele>
        <time>2019-06-24T17:27:20Z</time>
      </trkpt>
      <trkpt lat="37.1495370" lon="-3.6718090">
        <ele>646.6</ele>
        <time>2019-06-24T17:27:21Z</time>
      </trkpt>
      <trkpt lat="37.1495800" lon="-3.6717380">
        <ele>646.8</ele>
        <time>2019-06-24T17:27:22Z</time>
      </trkpt>
      <trkpt lat="37.1496160" lon="-3.6716630">
        <ele>646.9</ele>
        <time>2019-06-24T17:27:23Z</time>
      </trkpt>
      <trkpt lat="37.1496540" lon="-3.6715870">
        <ele>647.0</ele>
        <time>2019-06-24T17:27:24Z</time>
      </trkpt>
      <trkpt lat="37.1496910" lon="-3.6715130">
        <ele>647.2</ele>
        <time>2019-06-24T17:27:25Z</time>
      </trkpt>
      <trkpt lat="37.1497250" lon="-3.6714370">
        <ele>647.4</ele>
        <time>2019-06-24T17:27:26Z</time>
      </trkpt>
      <trkpt lat="37.1497640" lon="-3.6713630">
        <ele>647.7</ele>
        <time>2019-06-24T17:27:27Z</time>
      </trkpt>
      <trkpt lat="37.1498010" lon="-3.6712900">
        <ele>648.0</ele>
        <time>2019-06-24T17:27:28Z</time>
      </trkpt>
      <trkpt lat="37.1498370" lon="-3.6712150">
        <ele>648.3</ele>
        <time>2019-06-24T17:27:29Z</time>
      </trkpt>
      <trkpt lat="37.1498700" lon="-3.6711360">
        <ele>648.6</ele>
        <time>2019-06-24T17:27:30Z</time>
      </trkpt>
      <trkpt lat="37.1498820" lon="-3.6710530">
        <ele>648.8</ele>
        <time>2019-06-24T17:27:31Z</time>
      </trkpt>
      <trkpt lat="37.1498690" lon="-3.6709750">
        <ele>649.0</ele>
        <time>2019-06-24T17:27:32Z</time>
      </trkpt>
      <trkpt lat="37.1498340" lon="-3.6709090">
        <ele>649.1</ele>
        <time>2019-06-24T17:27:33Z</time>
      </trkpt>
      <trkpt lat="37.1497920" lon="-3.6708540">
        <ele>649.1</ele>
        <time>2019-06-24T17:27:34Z</time>
      </trkpt>
      <trkpt lat="37.1497450" lon="-3.6708010">
        <ele>649.2</ele>
        <time>2019-06-24T17:27:35Z</time>
      </trkpt>
      <trkpt lat="37.1496970" lon="-3.6707490">
        <ele>649.3</ele>
        <time>2019-06-24T17:27:36Z</time>
      </trkpt>
      <trkpt lat="37.1496510" lon="-3.6706970">
        <ele>649.4</ele>
        <time>2019-06-24T17:27:37Z</time>
      </trkpt>
      <trkpt lat="37.1496040" lon="-3.6706420">
        <ele>649.3</ele>
        <time>2019-06-24T17:27:38Z</time>
      </trkpt>
      <trkpt lat="37.1495590" lon="-3.6705840">
        <ele>649.1</ele>
        <time>2019-06-24T17:27:39Z</time>
      </trkpt>
      <trkpt lat="37.1495180" lon="-3.6705260">
        <ele>649.0</ele>
        <time>2019-06-24T17:27:40Z</time>
      </trkpt>
      <trkpt lat="37.1494770" lon="-3.6704710">
        <ele>648.9</ele>
        <time>2019-06-24T17:27:41Z</time>
      </trkpt>
      <trkpt lat="37.1494350" lon="-3.6704190">
        <ele>648.8</ele>
        <time>2019-06-24T17:27:42Z</time>
      </trkpt>
      <trkpt lat="37.1493970" lon="-3.6703640">
        <ele>648.7</ele>
        <time>2019-06-24T17:27:43Z</time>
      </trkpt>
      <trkpt lat="37.1493600" lon="-3.6703050">
        <ele>648.6</ele>
        <time>2019-06-24T17:27:44Z</time>
      </trkpt>
      <trkpt lat="37.1493240" lon="-3.6702500">
        <ele>648.6</ele>
        <time>2019-06-24T17:27:45Z</time>
      </trkpt>
      <trkpt lat="37.1492830" lon="-3.6701900">
        <ele>648.5</ele>
        <time>2019-06-24T17:27:46Z</time>
      </trkpt>
      <trkpt lat="37.1492410" lon="-3.6701290">
        <ele>648.4</ele>
        <time>2019-06-24T17:27:47Z</time>
      </trkpt>
      <trkpt lat="37.1491990" lon="-3.6700690">
        <ele>648.3</ele>
        <time>2019-06-24T17:27:48Z</time>
      </trkpt>
      <trkpt lat="37.1491580" lon="-3.6700080">
        <ele>648.3</ele>
        <time>2019-06-24T17:27:49Z</time>
      </trkpt>
      <trkpt lat="37.1491160" lon="-3.6699450">
        <ele>648.3</ele>
        <time>2019-06-24T17:27:50Z</time>
      </trkpt>
      <trkpt lat="37.1490730" lon="-3.6698840">
        <ele>648.3</ele>
        <time>2019-06-24T17:27:51Z</time>
      </trkpt>
      <trkpt lat="37.1490270" lon="-3.6698280">
        <ele>648.4</ele>
        <time>2019-06-24T17:27:52Z</time>
      </trkpt>
      <trkpt lat="37.1489770" lon="-3.6697820">
        <ele>648.5</ele>
        <time>2019-06-24T17:27:53Z</time>
      </trkpt>
      <trkpt lat="37.1489230" lon="-3.6697370">
        <ele>648.6</ele>
        <time>2019-06-24T17:27:54Z</time>
      </trkpt>
      <trkpt lat="37.1488710" lon="-3.6696890">
        <ele>648.7</ele>
        <time>2019-06-24T17:27:55Z</time>
      </trkpt>
      <trkpt lat="37.1488190" lon="-3.6696400">
        <ele>648.9</ele>
        <time>2019-06-24T17:27:56Z</time>
      </trkpt>
      <trkpt lat="37.1487740" lon="-3.6695830">
        <ele>649.1</ele>
        <time>2019-06-24T17:27:57Z</time>
      </trkpt>
      <trkpt lat="37.1487490" lon="-3.6695140">
        <ele>649.2</ele>
        <time>2019-06-24T17:27:58Z</time>
      </trkpt>
      <trkpt lat="37.1487450" lon="-3.6694380">
        <ele>649.3</ele>
        <time>2019-06-24T17:27:59Z</time>
      </trkpt>
      <trkpt lat="37.1487560" lon="-3.6693650">
        <ele>649.4</ele>
        <time>2019-06-24T17:28:00Z</time>
      </trkpt>
      <trkpt lat="37.1487720" lon="-3.6692930">
        <ele>649.5</ele>
        <time>2019-06-24T17:28:01Z</time>
      </trkpt>
      <trkpt lat="37.1487870" lon="-3.6692200">
        <ele>649.6</ele>
        <time>2019-06-24T17:28:02Z</time>
      </trkpt>
      <trkpt lat="37.1488010" lon="-3.6691480">
        <ele>649.7</ele>
        <time>2019-06-24T17:28:03Z</time>
      </trkpt>
      <trkpt lat="37.1488080" lon="-3.6690780">
        <ele>649.7</ele>
        <time>2019-06-24T17:28:04Z</time>
      </trkpt>
      <trkpt lat="37.1488150" lon="-3.6690140">
        <ele>649.8</ele>
        <time>2019-06-24T17:28:05Z</time>
      </trkpt>
      <trkpt lat="37.1488350" lon="-3.6689570">
        <ele>649.8</ele>
        <time>2019-06-24T17:28:06Z</time>
      </trkpt>
      <trkpt lat="37.1488580" lon="-3.6688930">
        <ele>649.7</ele>
        <time>2019-06-24T17:28:07Z</time>
      </trkpt>
      <trkpt lat="37.1488870" lon="-3.6688300">
        <ele>649.7</ele>
        <time>2019-06-24T17:28:08Z</time>
      </trkpt>
      <trkpt lat="37.1489210" lon="-3.6687660">
        <ele>649.6</ele>
        <time>2019-06-24T17:28:09Z</time>
      </trkpt>
      <trkpt lat="37.1489530" lon="-3.6686980">
        <ele>649.6</ele>
        <time>2019-06-24T17:28:10Z</time>
      </trkpt>
      <trkpt lat="37.1489880" lon="-3.6686310">
        <ele>649.5</ele>
        <time>2019-06-24T17:28:11Z</time>
      </trkpt>
      <trkpt lat="37.1490250" lon="-3.6685640">
        <ele>649.5</ele>
        <time>2019-06-24T17:28:12Z</time>
      </trkpt>
      <trkpt lat="37.1490620" lon="-3.6684930">
        <ele>649.5</ele>
        <time>2019-06-24T17:28:13Z</time>
      </trkpt>
      <trkpt lat="37.1491010" lon="-3.6684230">
        <ele>649.4</ele>
        <time>2019-06-24T17:28:14Z</time>
      </trkpt>
      <trkpt lat="37.1491370" lon="-3.6683510">
        <ele>649.4</ele>
        <time>2019-06-24T17:28:15Z</time>
      </trkpt>
      <trkpt lat="37.1491760" lon="-3.6682790">
        <ele>649.3</ele>
        <time>2019-06-24T17:28:16Z</time>
      </trkpt>
      <trkpt lat="37.1492150" lon="-3.6682050">
        <ele>649.2</ele>
        <time>2019-06-24T17:28:17Z</time>
      </trkpt>
      <trkpt lat="37.1492540" lon="-3.6681300">
        <ele>649.2</ele>
        <time>2019-06-24T17:28:18Z</time>
      </trkpt>
      <trkpt lat="37.1492940" lon="-3.6680570">
        <ele>649.2</ele>
        <time>2019-06-24T17:28:19Z</time>
      </trkpt>
      <trkpt lat="37.1493310" lon="-3.6679850">
        <ele>649.2</ele>
        <time>2019-06-24T17:28:20Z</time>
      </trkpt>
      <trkpt lat="37.1493690" lon="-3.6679130">
        <ele>649.1</ele>
        <time>2019-06-24T17:28:21Z</time>
      </trkpt>
      <trkpt lat="37.1494060" lon="-3.6678420">
        <ele>649.1</ele>
        <time>2019-06-24T17:28:22Z</time>
      </trkpt>
      <trkpt lat="37.1494440" lon="-3.6677710">
        <ele>649.1</ele>
        <time>2019-06-24T17:28:23Z</time>
      </trkpt>
      <trkpt lat="37.1494820" lon="-3.6676990">
        <ele>649.1</ele>
        <time>2019-06-24T17:28:24Z</time>
      </trkpt>
      <trkpt lat="37.1495210" lon="-3.6676260">
        <ele>649.0</ele>
        <time>2019-06-24T17:28:25Z</time>
      </trkpt>
      <trkpt lat="37.1495600" lon="-3.6675510">
        <ele>649.0</ele>
        <time>2019-06-24T17:28:26Z</time>
      </trkpt>
      <trkpt lat="37.1495980" lon="-3.6674740">
        <ele>648.9</ele>
        <time>2019-06-24T17:28:27Z</time>
      </trkpt>
      <trkpt lat="37.1496350" lon="-3.6673960">
        <ele>648.8</ele>
        <time>2019-06-24T17:28:28Z</time>
      </trkpt>
      <trkpt lat="37.1496760" lon="-3.6673230">
        <ele>648.7</ele>
        <time>2019-06-24T17:28:29Z</time>
      </trkpt>
      <trkpt lat="37.1497160" lon="-3.6672480">
        <ele>648.6</ele>
        <time>2019-06-24T17:28:30Z</time>
      </trkpt>
      <trkpt lat="37.1497570" lon="-3.6671740">
        <ele>648.5</ele>
        <time>2019-06-24T17:28:31Z</time>
      </trkpt>
      <trkpt lat="37.1498000" lon="-3.6671010">
        <ele>648.4</ele>
        <time>2019-06-24T17:28:32Z</time>
      </trkpt>
      <trkpt lat="37.1498460" lon="-3.6670290">
        <ele>648.4</ele>
        <time>2019-06-24T17:28:33Z</time>
      </trkpt>
      <trkpt lat="37.1498940" lon="-3.6669560">
        <ele>648.3</ele>
        <time>2019-06-24T17:28:34Z</time>
      </trkpt>
      <trkpt lat="37.1499410" lon="-3.6668820">
        <ele>648.3</ele>
        <time>2019-06-24T17:28:35Z</time>
      </trkpt>
      <trkpt lat="37.1499900" lon="-3.6668100">
        <ele>648.2</ele>
        <time>2019-06-24T17:28:36Z</time>
      </trkpt>
      <trkpt lat="37.1500360" lon="-3.6667370">
        <ele>648.1</ele>
        <time>2019-06-24T17:28:37Z</time>
      </trkpt>
      <trkpt lat="37.1500830" lon="-3.6666640">
        <ele>648.0</ele>
        <time>2019-06-24T17:28:38Z</time>
      </trkpt>
      <trkpt lat="37.1501310" lon="-3.6665930">
        <ele>647.9</ele>
        <time>2019-06-24T17:28:39Z</time>
      </trkpt>
      <trkpt lat="37.1501780" lon="-3.6665240">
        <ele>647.7</ele>
        <time>2019-06-24T17:28:40Z</time>
      </trkpt>
      <trkpt lat="37.1502230" lon="-3.6664550">
        <ele>647.5</ele>
        <time>2019-06-24T17:28:41Z</time>
      </trkpt>
      <trkpt lat="37.1502660" lon="-3.6663870">
        <ele>647.4</ele>
        <time>2019-06-24T17:28:42Z</time>
      </trkpt>
      <trkpt lat="37.1503020" lon="-3.6663170">
        <ele>647.2</ele>
        <time>2019-06-24T17:28:43Z</time>
      </trkpt>
      <trkpt lat="37.1503280" lon="-3.6662560">
        <ele>647.1</ele>
        <time>2019-06-24T17:28:44Z</time>
      </trkpt>
      <trkpt lat="37.1503460" lon="-3.6662120">
        <ele>647.0</ele>
        <time>2019-06-24T17:28:45Z</time>
      </trkpt>
      <trkpt lat="37.1503510" lon="-3.6661730">
        <ele>646.9</ele>
        <time>2019-06-24T17:28:46Z</time>
      </trkpt>
      <trkpt lat="37.1503370" lon="-3.6661380">
        <ele>646.9</ele>
        <time>2019-06-24T17:28:47Z</time>
      </trkpt>
      <trkpt lat="37.1503160" lon="-3.6661070">
        <ele>646.9</ele>
        <time>2019-06-24T17:28:48Z</time>
      </trkpt>
      <trkpt lat="37.1502960" lon="-3.6660680">
        <ele>646.9</ele>
        <time>2019-06-24T17:28:49Z</time>
      </trkpt>
      <trkpt lat="37.1502770" lon="-3.6660260">
        <ele>646.9</ele>
        <time>2019-06-24T17:28:50Z</time>
      </trkpt>
      <trkpt lat="37.1502550" lon="-3.6659830">
        <ele>647.0</ele>
        <time>2019-06-24T17:28:51Z</time>
      </trkpt>
      <trkpt lat="37.1502330" lon="-3.6659390">
        <ele>647.0</ele>
        <time>2019-06-24T17:28:52Z</time>
      </trkpt>
      <trkpt lat="37.1502090" lon="-3.6658860">
        <ele>647.0</ele>
        <time>2019-06-24T17:28:53Z</time>
      </trkpt>
      <trkpt lat="37.1501810" lon="-3.6658250">
        <ele>647.0</ele>
        <time>2019-06-24T17:28:54Z</time>
      </trkpt>
      <trkpt lat="37.1501430" lon="-3.6657600">
        <ele>647.1</ele>
        <time>2019-06-24T17:28:55Z</time>
      </trkpt>
      <trkpt lat="37.1501020" lon="-3.6656930">
        <ele>647.1</ele>
        <time>2019-06-24T17:28:56Z</time>
      </trkpt>
      <trkpt lat="37.1500600" lon="-3.6656220">
        <ele>647.2</ele>
        <time>2019-06-24T17:28:57Z</time>
      </trkpt>
      <trkpt lat="37.1500170" lon="-3.6655510">
        <ele>647.3</ele>
        <time>2019-06-24T17:28:58Z</time>
      </trkpt>
      <trkpt lat="37.1499730" lon="-3.6654780">
        <ele>647.3</ele>
        <time>2019-06-24T17:28:59Z</time>
      </trkpt>
      <trkpt lat="37.1499290" lon="-3.6654040">
        <ele>647.4</ele>
        <time>2019-06-24T17:29:00Z</time>
      </trkpt>
      <trkpt lat="37.1498840" lon="-3.6653290">
        <ele>647.4</ele>
        <time>2019-06-24T17:29:01Z</time>
      </trkpt>
      <trkpt lat="37.1498380" lon="-3.6652500">
        <ele>647.5</ele>
        <time>2019-06-24T17:29:02Z</time>
      </trkpt>
      <trkpt lat="37.1497920" lon="-3.6651680">
        <ele>647.6</ele>
        <time>2019-06-24T17:29:03Z</time>
      </trkpt>
      <trkpt lat="37.1497450" lon="-3.6650790">
        <ele>647.6</ele>
        <time>2019-06-24T17:29:04Z</time>
      </trkpt>
      <trkpt lat="37.1497000" lon="-3.6649850">
        <ele>647.7</ele>
        <time>2019-06-24T17:29:05Z</time>
      </trkpt>
      <trkpt lat="37.1496620" lon="-3.6648820">
        <ele>647.8</ele>
        <time>2019-06-24T17:29:06Z</time>
      </trkpt>
      <trkpt lat="37.1496360" lon="-3.6647730">
        <ele>647.8</ele>
        <time>2019-06-24T17:29:07Z</time>
      </trkpt>
      <trkpt lat="37.1496210" lon="-3.6646580">
        <ele>647.9</ele>
        <time>2019-06-24T17:29:08Z</time>
      </trkpt>
      <trkpt lat="37.1496160" lon="-3.6645390">
        <ele>647.9</ele>
        <time>2019-06-24T17:29:09Z</time>
      </trkpt>
      <trkpt lat="37.1496170" lon="-3.6644160">
        <ele>648.0</ele>
        <time>2019-06-24T17:29:10Z</time>
      </trkpt>
      <trkpt lat="37.1496200" lon="-3.6642930">
        <ele>648.0</ele>
        <time>2019-06-24T17:29:11Z</time>
      </trkpt>
      <trkpt lat="37.1496260" lon="-3.6641670">
        <ele>648.1</ele>
        <time>2019-06-24T17:29:12Z</time>
      </trkpt>
      <trkpt lat="37.1496330" lon="-3.6640430">
        <ele>648.2</ele>
        <time>2019-06-24T17:29:13Z</time>
      </trkpt>
      <trkpt lat="37.1496390" lon="-3.6639200">
        <ele>648.4</ele>
        <time>2019-06-24T17:29:14Z</time>
      </trkpt>
      <trkpt lat="37.1496460" lon="-3.6638010">
        <ele>648.5</ele>
        <time>2019-06-24T17:29:15Z</time>
      </trkpt>
      <trkpt lat="37.1496530" lon="-3.6636840">
        <ele>648.7</ele>
        <time>2019-06-24T17:29:16Z</time>
      </trkpt>
      <trkpt lat="37.1496590" lon="-3.6635690">
        <ele>648.9</ele>
        <time>2019-06-24T17:29:17Z</time>
      </trkpt>
      <trkpt lat="37.1496620" lon="-3.6634570">
        <ele>649.0</ele>
        <time>2019-06-24T17:29:18Z</time>
      </trkpt>
      <trkpt lat="37.1496620" lon="-3.6633430">
        <ele>649.1</ele>
        <time>2019-06-24T17:29:19Z</time>
      </trkpt>
      <trkpt lat="37.1496510" lon="-3.6632280">
        <ele>649.2</ele>
        <time>2019-06-24T17:29:20Z</time>
      </trkpt>
      <trkpt lat="37.1496260" lon="-3.6631190">
        <ele>649.3</ele>
        <time>2019-06-24T17:29:21Z</time>
      </trkpt>
      <trkpt lat="37.1495870" lon="-3.6630150">
        <ele>649.4</ele>
        <time>2019-06-24T17:29:22Z</time>
      </trkpt>
      <trkpt lat="37.1495380" lon="-3.6629200">
        <ele>649.4</ele>
        <time>2019-06-24T17:29:23Z</time>
      </trkpt>
      <trkpt lat="37.1494820" lon="-3.6628350">
        <ele>649.5</ele>
        <time>2019-06-24T17:29:24Z</time>
      </trkpt>
      <trkpt lat="37.1494260" lon="-3.6627580">
        <ele>649.5</ele>
        <time>2019-06-24T17:29:25Z</time>
      </trkpt>
      <trkpt lat="37.1493700" lon="-3.6626850">
        <ele>649.6</ele>
        <time>2019-06-24T17:29:26Z</time>
      </trkpt>
      <trkpt lat="37.1493170" lon="-3.6626160">
        <ele>649.6</ele>
        <time>2019-06-24T17:29:27Z</time>
      </trkpt>
      <trkpt lat="37.1492680" lon="-3.6625480">
        <ele>649.7</ele>
        <time>2019-06-24T17:29:28Z</time>
      </trkpt>
      <trkpt lat="37.1492210" lon="-3.6624820">
        <ele>649.7</ele>
        <time>2019-06-24T17:29:29Z</time>
      </trkpt>
      <trkpt lat="37.1491780" lon="-3.6624150">
        <ele>649.7</ele>
        <time>2019-06-24T17:29:30Z</time>
      </trkpt>
      <trkpt lat="37.1491360" lon="-3.6623450">
        <ele>649.7</ele>
        <time>2019-06-24T17:29:31Z</time>
      </trkpt>
      <trkpt lat="37.1490940" lon="-3.6622750">
        <ele>649.7</ele>
        <time>2019-06-24T17:29:32Z</time>
      </trkpt>
      <trkpt lat="37.1490510" lon="-3.6622040">
        <ele>649.6</ele>
        <time>2019-06-24T17:29:33Z</time>
      </trkpt>
      <trkpt lat="37.1490090" lon="-3.6621300">
        <ele>649.6</ele>
        <time>2019-06-24T17:29:34Z</time>
      </trkpt>
      <trkpt lat="37.1489690" lon="-3.6620510">
        <ele>649.6</ele>
        <time>2019-06-24T17:29:35Z</time>
      </trkpt>
      <trkpt lat="37.1489290" lon="-3.6619710">
        <ele>649.6</ele>
        <time>2019-06-24T17:29:36Z</time>
      </trkpt>
      <trkpt lat="37.1488900" lon="-3.6618910">
        <ele>649.7</ele>
        <time>2019-06-24T17:29:37Z</time>
      </trkpt>
      <trkpt lat="37.1488500" lon="-3.6618100">
        <ele>649.8</ele>
        <time>2019-06-24T17:29:38Z</time>
      </trkpt>
      <trkpt lat="37.1488120" lon="-3.6617290">
        <ele>649.8</ele>
        <time>2019-06-24T17:29:39Z</time>
      </trkpt>
      <trkpt lat="37.1487760" lon="-3.6616490">
        <ele>649.9</ele>
        <time>2019-06-24T17:29:40Z</time>
      </trkpt>
      <trkpt lat="37.1487400" lon="-3.6615710">
        <ele>650.1</ele>
        <time>2019-06-24T17:29:41Z</time>
      </trkpt>
      <trkpt lat="37.1487050" lon="-3.6614930">
        <ele>650.3</ele>
        <time>2019-06-24T17:29:42Z</time>
      </trkpt>
      <trkpt lat="37.1486700" lon="-3.6614150">
        <ele>650.5</ele>
        <time>2019-06-24T17:29:43Z</time>
      </trkpt>
      <trkpt lat="37.1486360" lon="-3.6613360">
        <ele>650.9</ele>
        <time>2019-06-24T17:29:44Z</time>
      </trkpt>
      <trkpt lat="37.1486030" lon="-3.6612560">
        <ele>651.2</ele>
        <time>2019-06-24T17:29:45Z</time>
      </trkpt>
      <trkpt lat="37.1485700" lon="-3.6611760">
        <ele>651.6</ele>
        <time>2019-06-24T17:29:46Z</time>
      </trkpt>
      <trkpt lat="37.1485350" lon="-3.6610970">
        <ele>651.8</ele>
        <time>2019-06-24T17:29:47Z</time>
      </trkpt>
      <trkpt lat="37.1485010" lon="-3.6610170">
        <ele>652.0</ele>
        <time>2019-06-24T17:29:48Z</time>
      </trkpt>
      <trkpt lat="37.1484680" lon="-3.6609360">
        <ele>652.2</ele>
        <time>2019-06-24T17:29:49Z</time>
      </trkpt>
      <trkpt lat="37.1484350" lon="-3.6608520">
        <ele>652.4</ele>
        <time>2019-06-24T17:29:50Z</time>
      </trkpt>
      <trkpt lat="37.1484070" lon="-3.6607660">
        <ele>652.5</ele>
        <time>2019-06-24T17:29:51Z</time>
      </trkpt>
      <trkpt lat="37.1483830" lon="-3.6606750">
        <ele>652.6</ele>
        <time>2019-06-24T17:29:52Z</time>
      </trkpt>
      <trkpt lat="37.1483620" lon="-3.6605800">
        <ele>652.7</ele>
        <time>2019-06-24T17:29:53Z</time>
      </trkpt>
      <trkpt lat="37.1483480" lon="-3.6604820">
        <ele>652.6</ele>
        <time>2019-06-24T17:29:54Z</time>
      </trkpt>
      <trkpt lat="37.1483410" lon="-3.6603830">
        <ele>652.5</ele>
        <time>2019-06-24T17:29:55Z</time>
      </trkpt>
      <trkpt lat="37.1483410" lon="-3.6602840">
        <ele>652.4</ele>
        <time>2019-06-24T17:29:56Z</time>
      </trkpt>
      <trkpt lat="37.1483480" lon="-3.6601860">
        <ele>652.3</ele>
        <time>2019-06-24T17:29:57Z</time>
      </trkpt>
      <trkpt lat="37.1483590" lon="-3.6600890">
        <ele>652.1</ele>
        <time>2019-06-24T17:29:58Z</time>
      </trkpt>
      <trkpt lat="37.1483740" lon="-3.6599910">
        <ele>652.0</ele>
        <time>2019-06-24T17:29:59Z</time>
      </trkpt>
      <trkpt lat="37.1483880" lon="-3.6598920">
        <ele>651.8</ele>
        <time>2019-06-24T17:30:00Z</time>
      </trkpt>
      <trkpt lat="37.1484020" lon="-3.6597930">
        <ele>651.7</ele>
        <time>2019-06-24T17:30:01Z</time>
      </trkpt>
      <trkpt lat="37.1484190" lon="-3.6596940">
        <ele>651.6</ele>
        <time>2019-06-24T17:30:02Z</time>
      </trkpt>
      <trkpt lat="37.1484360" lon="-3.6595940">
        <ele>651.4</ele>
        <time>2019-06-24T17:30:03Z</time>
      </trkpt>
      <trkpt lat="37.1484530" lon="-3.6594950">
        <ele>651.4</ele>
        <time>2019-06-24T17:30:04Z</time>
      </trkpt>
      <trkpt lat="37.1484680" lon="-3.6593940">
        <ele>651.3</ele>
        <time>2019-06-24T17:30:05Z</time>
      </trkpt>
      <trkpt lat="37.1484840" lon="-3.6592950">
        <ele>651.3</ele>
        <time>2019-06-24T17:30:06Z</time>
      </trkpt>
      <trkpt lat="37.1485000" lon="-3.6591940">
        <ele>651.3</ele>
        <time>2019-06-24T17:30:07Z</time>
      </trkpt>
      <trkpt lat="37.1485160" lon="-3.6590940">
        <ele>651.1</ele>
        <time>2019-06-24T17:30:08Z</time>
      </trkpt>
      <trkpt lat="37.1485340" lon="-3.6589920">
        <ele>651.0</ele>
        <time>2019-06-24T17:30:09Z</time>
      </trkpt>
      <trkpt lat="37.1485490" lon="-3.6588910">
        <ele>650.9</ele>
        <time>2019-06-24T17:30:10Z</time>
      </trkpt>
      <trkpt lat="37.1485650" lon="-3.6587900">
        <ele>651.0</ele>
        <time>2019-06-24T17:30:11Z</time>
      </trkpt>
      <trkpt lat="37.1485780" lon="-3.6586890">
        <ele>651.0</ele>
        <time>2019-06-24T17:30:12Z</time>
      </trkpt>
      <trkpt lat="37.1485940" lon="-3.6585900">
        <ele>651.2</ele>
        <time>2019-06-24T17:30:13Z</time>
      </trkpt>
      <trkpt lat="37.1486070" lon="-3.6584910">
        <ele>651.3</ele>
        <time>2019-06-24T17:30:14Z</time>
      </trkpt>
      <trkpt lat="37.1486130" lon="-3.6583920">
        <ele>651.4</ele>
        <time>2019-06-24T17:30:15Z</time>
      </trkpt>
      <trkpt lat="37.1486110" lon="-3.6582930">
        <ele>651.5</ele>
        <time>2019-06-24T17:30:16Z</time>
      </trkpt>
      <trkpt lat="37.1486030" lon="-3.6581960">
        <ele>651.5</ele>
        <time>2019-06-24T17:30:17Z</time>
      </trkpt>
      <trkpt lat="37.1485910" lon="-3.6581000">
        <ele>651.5</ele>
        <time>2019-06-24T17:30:18Z</time>
      </trkpt>
      <trkpt lat="37.1485750" lon="-3.6580030">
        <ele>651.3</ele>
        <time>2019-06-24T17:30:19Z</time>
      </trkpt>
      <trkpt lat="37.1485580" lon="-3.6579060">
        <ele>651.2</ele>
        <time>2019-06-24T17:30:20Z</time>
      </trkpt>
      <trkpt lat="37.1485400" lon="-3.6578070">
        <ele>651.2</ele>
        <time>2019-06-24T17:30:21Z</time>
      </trkpt>
      <trkpt lat="37.1485210" lon="-3.6577070">
        <ele>651.2</ele>
        <time>2019-06-24T17:30:22Z</time>
      </trkpt>
      <trkpt lat="37.1485000" lon="-3.6576060">
        <ele>651.2</ele>
        <time>2019-06-24T17:30:23Z</time>
      </trkpt>
      <trkpt lat="37.1484770" lon="-3.6575060">
        <ele>651.3</ele>
        <time>2019-06-24T17:30:24Z</time>
      </trkpt>
      <trkpt lat="37.1484510" lon="-3.6574050">
        <ele>651.3</ele>
        <time>2019-06-24T17:30:25Z</time>
      </trkpt>
      <trkpt lat="37.1484260" lon="-3.6573030">
        <ele>651.4</ele>
        <time>2019-06-24T17:30:26Z</time>
      </trkpt>
      <trkpt lat="37.1484020" lon="-3.6572020">
        <ele>651.5</ele>
        <time>2019-06-24T17:30:27Z</time>
      </trkpt>
      <trkpt lat="37.1483790" lon="-3.6571010">
        <ele>651.5</ele>
        <time>2019-06-24T17:30:28Z</time>
      </trkpt>
      <trkpt lat="37.1483550" lon="-3.6570010">
        <ele>651.6</ele>
        <time>2019-06-24T17:30:29Z</time>
      </trkpt>
      <trkpt lat="37.1483320" lon="-3.6569020">
        <ele>651.7</ele>
        <time>2019-06-24T17:30:30Z</time>
      </trkpt>
      <trkpt lat="37.1483090" lon="-3.6568040">
        <ele>651.8</ele>
        <time>2019-06-24T17:30:31Z</time>
      </trkpt>
      <trkpt lat="37.1482860" lon="-3.6567090">
        <ele>651.8</ele>
        <time>2019-06-24T17:30:32Z</time>
      </trkpt>
      <trkpt lat="37.1482640" lon="-3.6566160">
        <ele>651.9</ele>
        <time>2019-06-24T17:30:33Z</time>
      </trkpt>
      <trkpt lat="37.1482430" lon="-3.6565240">
        <ele>652.0</ele>
        <time>2019-06-24T17:30:34Z</time>
      </trkpt>
      <trkpt lat="37.1482210" lon="-3.6564360">
        <ele>652.1</ele>
        <time>2019-06-24T17:30:35Z</time>
      </trkpt>
      <trkpt lat="37.1481990" lon="-3.6563490">
        <ele>652.2</ele>
        <time>2019-06-24T17:30:36Z</time>
      </trkpt>
      <trkpt lat="37.1481760" lon="-3.6562640">
        <ele>652.3</ele>
        <time>2019-06-24T17:30:37Z</time>
      </trkpt>
      <trkpt lat="37.1481530" lon="-3.6561820">
        <ele>652.4</ele>
        <time>2019-06-24T17:30:38Z</time>
      </trkpt>
      <trkpt lat="37.1481310" lon="-3.6561020">
        <ele>652.5</ele>
        <time>2019-06-24T17:30:39Z</time>
      </trkpt>
      <trkpt lat="37.1481110" lon="-3.6560290">
        <ele>652.6</ele>
        <time>2019-06-24T17:30:40Z</time>
      </trkpt>
      <trkpt lat="37.1480970" lon="-3.6559770">
        <ele>652.6</ele>
        <time>2019-06-24T17:30:41Z</time>
      </trkpt>
      <trkpt lat="37.1480830" lon="-3.6559430">
        <ele>652.7</ele>
        <time>2019-06-24T17:30:42Z</time>
      </trkpt>
      <trkpt lat="37.1480650" lon="-3.6559140">
        <ele>652.8</ele>
        <time>2019-06-24T17:30:43Z</time>
      </trkpt>
      <trkpt lat="37.1480400" lon="-3.6558800">
        <ele>652.9</ele>
        <time>2019-06-24T17:30:44Z</time>
      </trkpt>
      <trkpt lat="37.1480120" lon="-3.6558340">
        <ele>653.1</ele>
        <time>2019-06-24T17:30:45Z</time>
      </trkpt>
      <trkpt lat="37.1479900" lon="-3.6557820">
        <ele>653.1</ele>
        <time>2019-06-24T17:30:46Z</time>
      </trkpt>
      <trkpt lat="37.1479790" lon="-3.6557220">
        <ele>653.2</ele>
        <time>2019-06-24T17:30:47Z</time>
      </trkpt>
      <trkpt lat="37.1479900" lon="-3.6556630">
        <ele>653.4</ele>
        <time>2019-06-24T17:30:48Z</time>
      </trkpt>
      <trkpt lat="37.1480210" lon="-3.6556180">
        <ele>653.3</ele>
        <time>2019-06-24T17:30:49Z</time>
      </trkpt>
      <trkpt lat="37.1480690" lon="-3.6555910">
        <ele>653.3</ele>
        <time>2019-06-24T17:30:50Z</time>
      </trkpt>
      <trkpt lat="37.1481250" lon="-3.6555730">
        <ele>653.3</ele>
        <time>2019-06-24T17:30:51Z</time>
      </trkpt>
      <trkpt lat="37.1481850" lon="-3.6555470">
        <ele>653.1</ele>
        <time>2019-06-24T17:30:52Z</time>
      </trkpt>
      <trkpt lat="37.1482400" lon="-3.6555080">
        <ele>653.0</ele>
        <time>2019-06-24T17:30:53Z</time>
      </trkpt>
      <trkpt lat="37.1482940" lon="-3.6554620">
        <ele>652.9</ele>
        <time>2019-06-24T17:30:54Z</time>
      </trkpt>
      <trkpt lat="37.1483490" lon="-3.6554120">
        <ele>652.7</ele>
        <time>2019-06-24T17:30:55Z</time>
      </trkpt>
      <trkpt lat="37.1484030" lon="-3.6553570">
        <ele>652.4</ele>
        <time>2019-06-24T17:30:56Z</time>
      </trkpt>
      <trkpt lat="37.1484580" lon="-3.6553010">
        <ele>652.2</ele>
        <time>2019-06-24T17:30:57Z</time>
      </trkpt>
      <trkpt lat="37.1485130" lon="-3.6552440">
        <ele>652.0</ele>
        <time>2019-06-24T17:30:58Z</time>
      </trkpt>
      <trkpt lat="37.1485620" lon="-3.6551940">
        <ele>651.8</ele>
        <time>2019-06-24T17:30:59Z</time>
      </trkpt>
      <trkpt lat="37.1486060" lon="-3.6551500">
        <ele>651.7</ele>
        <time>2019-06-24T17:31:00Z</time>
      </trkpt>
      <trkpt lat="37.1486520" lon="-3.6551040">
        <ele>651.6</ele>
        <time>2019-06-24T17:31:01Z</time>
      </trkpt>
      <trkpt lat="37.1487010" lon="-3.6550580">
        <ele>651.5</ele>
        <time>2019-06-24T17:31:02Z</time>
      </trkpt>
      <trkpt lat="37.1487530" lon="-3.6550080">
        <ele>651.4</ele>
        <time>2019-06-24T17:31:03Z</time>
      </trkpt>
      <trkpt lat="37.1488090" lon="-3.6549570">
        <ele>651.3</ele>
        <time>2019-06-24T17:31:04Z</time>
      </trkpt>
      <trkpt lat="37.1488710" lon="-3.6549050">
        <ele>651.2</ele>
        <time>2019-06-24T17:31:05Z</time>
      </trkpt>
      <trkpt lat="37.1489350" lon="-3.6548460">
        <ele>651.1</ele>
        <time>2019-06-24T17:31:06Z</time>
      </trkpt>
      <trkpt lat="37.1490020" lon="-3.6547810">
        <ele>651.0</ele>
        <time>2019-06-24T17:31:07Z</time>
      </trkpt>
      <trkpt lat="37.1490700" lon="-3.6547150">
        <ele>650.8</ele>
        <time>2019-06-24T17:31:08Z</time>
      </trkpt>
      <trkpt lat="37.1491370" lon="-3.6546460">
        <ele>650.7</ele>
        <time>2019-06-24T17:31:09Z</time>
      </trkpt>
      <trkpt lat="37.1492020" lon="-3.6545710">
        <ele>650.6</ele>
        <time>2019-06-24T17:31:10Z</time>
      </trkpt>
      <trkpt lat="37.1492680" lon="-3.6544970">
        <ele>650.5</ele>
        <time>2019-06-24T17:31:11Z</time>
      </trkpt>
      <trkpt lat="37.1493350" lon="-3.6544240">
        <ele>650.4</ele>
        <time>2019-06-24T17:31:12Z</time>
      </trkpt>
      <trkpt lat="37.1494040" lon="-3.6543520">
        <ele>650.4</ele>
        <time>2019-06-24T17:31:13Z</time>
      </trkpt>
      <trkpt lat="37.1494720" lon="-3.6542790">
        <ele>650.4</ele>
        <time>2019-06-24T17:31:14Z</time>
      </trkpt>
      <trkpt lat="37.1495430" lon="-3.6542070">
        <ele>650.5</ele>
        <time>2019-06-24T17:31:15Z</time>
      </trkpt>
      <trkpt lat="37.1496140" lon="-3.6541340">
        <ele>650.6</ele>
        <time>2019-06-24T17:31:16Z</time>
      </trkpt>
      <trkpt lat="37.1496820" lon="-3.6540590">
        <ele>650.6</ele>
        <time>2019-06-24T17:31:17Z</time>
      </trkpt>
      <trkpt lat="37.1497500" lon="-3.6539820">
        <ele>650.6</ele>
        <time>2019-06-24T17:31:18Z</time>
      </trkpt>
      <trkpt lat="37.1498180" lon="-3.6539060">
        <ele>650.6</ele>
        <time>2019-06-24T17:31:19Z</time>
      </trkpt>
      <trkpt lat="37.1498870" lon="-3.6538290">
        <ele>650.6</ele>
        <time>2019-06-24T17:31:20Z</time>
      </trkpt>
      <trkpt lat="37.1499550" lon="-3.6537520">
        <ele>650.5</ele>
        <time>2019-06-24T17:31:21Z</time>
      </trkpt>
      <trkpt lat="37.1500240" lon="-3.6536750">
        <ele>650.4</ele>
        <time>2019-06-24T17:31:22Z</time>
      </trkpt>
      <trkpt lat="37.1500930" lon="-3.6535980">
        <ele>650.4</ele>
        <time>2019-06-24T17:31:23Z</time>
      </trkpt>
      <trkpt lat="37.1501610" lon="-3.6535210">
        <ele>650.3</ele>
        <time>2019-06-24T17:31:24Z</time>
      </trkpt>
      <trkpt lat="37.1502280" lon="-3.6534430">
        <ele>650.1</ele>
        <time>2019-06-24T17:31:25Z</time>
      </trkpt>
      <trkpt lat="37.1502960" lon="-3.6533670">
        <ele>650.0</ele>
        <time>2019-06-24T17:31:26Z</time>
      </trkpt>
      <trkpt lat="37.1503660" lon="-3.6532910">
        <ele>649.8</ele>
        <time>2019-06-24T17:31:27Z</time>
      </trkpt>
      <trkpt lat="37.1504330" lon="-3.6532130">
        <ele>649.5</ele>
        <time>2019-06-24T17:31:28Z</time>
      </trkpt>
      <trkpt lat="37.1504900" lon="-3.6531320">
        <ele>649.2</ele>
        <time>2019-06-24T17:31:29Z</time>
      </trkpt>
      <trkpt lat="37.1505370" lon="-3.6530420">
        <ele>649.2</ele>
        <time>2019-06-24T17:31:30Z</time>
      </trkpt>
      <trkpt lat="37.1505840" lon="-3.6529520">
        <ele>649.2</ele>
        <time>2019-06-24T17:31:31Z</time>
      </trkpt>
      <trkpt lat="37.1506450" lon="-3.6528750">
        <ele>649.2</ele>
        <time>2019-06-24T17:31:32Z</time>
      </trkpt>
      <trkpt lat="37.1507190" lon="-3.6528190">
        <ele>649.2</ele>
        <time>2019-06-24T17:31:33Z</time>
      </trkpt>
      <trkpt lat="37.1507930" lon="-3.6527630">
        <ele>648.8</ele>
        <time>2019-06-24T17:31:34Z</time>
      </trkpt>
      <trkpt lat="37.1508640" lon="-3.6526970">
        <ele>648.6</ele>
        <time>2019-06-24T17:31:35Z</time>
      </trkpt>
      <trkpt lat="37.1509300" lon="-3.6526200">
        <ele>648.5</ele>
        <time>2019-06-24T17:31:36Z</time>
      </trkpt>
      <trkpt lat="37.1509960" lon="-3.6525420">
        <ele>648.3</ele>
        <time>2019-06-24T17:31:37Z</time>
      </trkpt>
      <trkpt lat="37.1510630" lon="-3.6524640">
        <ele>648.1</ele>
        <time>2019-06-24T17:31:38Z</time>
      </trkpt>
      <trkpt lat="37.1511290" lon="-3.6523850">
        <ele>647.9</ele>
        <time>2019-06-24T17:31:39Z</time>
      </trkpt>
      <trkpt lat="37.1511970" lon="-3.6523070">
        <ele>647.7</ele>
        <time>2019-06-24T17:31:40Z</time>
      </trkpt>
      <trkpt lat="37.1512640" lon="-3.6522250">
        <ele>647.4</ele>
        <time>2019-06-24T17:31:41Z</time>
      </trkpt>
      <trkpt lat="37.1513310" lon="-3.6521420">
        <ele>647.1</ele>
        <time>2019-06-24T17:31:42Z</time>
      </trkpt>
      <trkpt lat="37.1513990" lon="-3.6520580">
        <ele>646.9</ele>
        <time>2019-06-24T17:31:43Z</time>
      </trkpt>
      <trkpt lat="37.1514680" lon="-3.6519750">
        <ele>646.7</ele>
        <time>2019-06-24T17:31:44Z</time>
      </trkpt>
      <trkpt lat="37.1515360" lon="-3.6518880">
        <ele>646.6</ele>
        <time>2019-06-24T17:31:45Z</time>
      </trkpt>
      <trkpt lat="37.1516020" lon="-3.6517980">
        <ele>646.4</ele>
        <time>2019-06-24T17:31:46Z</time>
      </trkpt>
      <trkpt lat="37.1516680" lon="-3.6517050">
        <ele>646.3</ele>
        <time>2019-06-24T17:31:47Z</time>
      </trkpt>
      <trkpt lat="37.1517320" lon="-3.6516100">
        <ele>646.2</ele>
        <time>2019-06-24T17:31:48Z</time>
      </trkpt>
      <trkpt lat="37.1517950" lon="-3.6515130">
        <ele>646.1</ele>
        <time>2019-06-24T17:31:49Z</time>
      </trkpt>
      <trkpt lat="37.1518570" lon="-3.6514140">
        <ele>646.0</ele>
        <time>2019-06-24T17:31:50Z</time>
      </trkpt>
      <trkpt lat="37.1519170" lon="-3.6513130">
        <ele>645.9</ele>
        <time>2019-06-24T17:31:51Z</time>
      </trkpt>
      <trkpt lat="37.1519750" lon="-3.6512090">
        <ele>645.8</ele>
        <time>2019-06-24T17:31:52Z</time>
      </trkpt>
      <trkpt lat="37.1520300" lon="-3.6511040">
        <ele>645.7</ele>
        <time>2019-06-24T17:31:53Z</time>
      </trkpt>
      <trkpt lat="37.1520870" lon="-3.6509990">
        <ele>645.6</ele>
        <time>2019-06-24T17:31:54Z</time>
      </trkpt>
      <trkpt lat="37.1521420" lon="-3.6508920">
        <ele>645.5</ele>
        <time>2019-06-24T17:31:55Z</time>
      </trkpt>
      <trkpt lat="37.1521950" lon="-3.6507840">
        <ele>645.4</ele>
        <time>2019-06-24T17:31:56Z</time>
      </trkpt>
      <trkpt lat="37.1522460" lon="-3.6506750">
        <ele>645.2</ele>
        <time>2019-06-24T17:31:57Z</time>
      </trkpt>
      <trkpt lat="37.1522960" lon="-3.6505640">
        <ele>645.1</ele>
        <time>2019-06-24T17:31:58Z</time>
      </trkpt>
      <trkpt lat="37.1523460" lon="-3.6504530">
        <ele>645.0</ele>
        <time>2019-06-24T17:31:59Z</time>
      </trkpt>
      <trkpt lat="37.1523950" lon="-3.6503400">
        <ele>644.9</ele>
        <time>2019-06-24T17:32:00Z</time>
      </trkpt>
      <trkpt lat="37.1524440" lon="-3.6502280">
        <ele>644.8</ele>
        <time>2019-06-24T17:32:01Z</time>
      </trkpt>
      <trkpt lat="37.1524930" lon="-3.6501160">
        <ele>644.7</ele>
        <time>2019-06-24T17:32:02Z</time>
      </trkpt>
      <trkpt lat="37.1525420" lon="-3.6500060">
        <ele>644.6</ele>
        <time>2019-06-24T17:32:03Z</time>
      </trkpt>
      <trkpt lat="37.1525920" lon="-3.6498970">
        <ele>644.5</ele>
        <time>2019-06-24T17:32:04Z</time>
      </trkpt>
      <trkpt lat="37.1526370" lon="-3.6497860">
        <ele>644.3</ele>
        <time>2019-06-24T17:32:05Z</time>
      </trkpt>
      <trkpt lat="37.1526730" lon="-3.6496710">
        <ele>644.2</ele>
        <time>2019-06-24T17:32:06Z</time>
      </trkpt>
      <trkpt lat="37.1527110" lon="-3.6495560">
        <ele>644.1</ele>
        <time>2019-06-24T17:32:07Z</time>
      </trkpt>
      <trkpt lat="37.1527590" lon="-3.6494490">
        <ele>644.0</ele>
        <time>2019-06-24T17:32:08Z</time>
      </trkpt>
      <trkpt lat="37.1528180" lon="-3.6493460">
        <ele>643.9</ele>
        <time>2019-06-24T17:32:09Z</time>
      </trkpt>
      <trkpt lat="37.1528750" lon="-3.6492410">
        <ele>643.8</ele>
        <time>2019-06-24T17:32:10Z</time>
      </trkpt>
      <trkpt lat="37.1529270" lon="-3.6491320">
        <ele>643.9</ele>
        <time>2019-06-24T17:32:11Z</time>
      </trkpt>
      <trkpt lat="37.1529760" lon="-3.6490220">
        <ele>644.2</ele>
        <time>2019-06-24T17:32:12Z</time>
      </trkpt>
      <trkpt lat="37.1530240" lon="-3.6489110">
        <ele>644.4</ele>
        <time>2019-06-24T17:32:13Z</time>
      </trkpt>
      <trkpt lat="37.1530730" lon="-3.6488010">
        <ele>644.6</ele>
        <time>2019-06-24T17:32:14Z</time>
      </trkpt>
      <trkpt lat="37.1531220" lon="-3.6486890">
        <ele>644.7</ele>
        <time>2019-06-24T17:32:15Z</time>
      </trkpt>
      <trkpt lat="37.1531700" lon="-3.6485760">
        <ele>644.8</ele>
        <time>2019-06-24T17:32:16Z</time>
      </trkpt>
      <trkpt lat="37.1532190" lon="-3.6484630">
        <ele>644.8</ele>
        <time>2019-06-24T17:32:17Z</time>
      </trkpt>
      <trkpt lat="37.1532670" lon="-3.6483490">
        <ele>644.8</ele>
        <time>2019-06-24T17:32:18Z</time>
      </trkpt>
      <trkpt lat="37.1533150" lon="-3.6482340">
        <ele>644.8</ele>
        <time>2019-06-24T17:32:19Z</time>
      </trkpt>
      <trkpt lat="37.1533610" lon="-3.6481180">
        <ele>644.7</ele>
        <time>2019-06-24T17:32:20Z</time>
      </trkpt>
      <trkpt lat="37.1534070" lon="-3.6480000">
        <ele>644.6</ele>
        <time>2019-06-24T17:32:21Z</time>
      </trkpt>
      <trkpt lat="37.1534500" lon="-3.6478820">
        <ele>644.5</ele>
        <time>2019-06-24T17:32:22Z</time>
      </trkpt>
      <trkpt lat="37.1534930" lon="-3.6477630">
        <ele>644.4</ele>
        <time>2019-06-24T17:32:23Z</time>
      </trkpt>
      <trkpt lat="37.1535370" lon="-3.6476440">
        <ele>644.3</ele>
        <time>2019-06-24T17:32:24Z</time>
      </trkpt>
      <trkpt lat="37.1535770" lon="-3.6475220">
        <ele>644.2</ele>
        <time>2019-06-24T17:32:25Z</time>
      </trkpt>
      <trkpt lat="37.1536150" lon="-3.6473990">
        <ele>644.1</ele>
        <time>2019-06-24T17:32:26Z</time>
      </trkpt>
      <trkpt lat="37.1536530" lon="-3.6472750">
        <ele>644.0</ele>
        <time>2019-06-24T17:32:27Z</time>
      </trkpt>
      <trkpt lat="37.1536920" lon="-3.6471510">
        <ele>643.9</ele>
        <time>2019-06-24T17:32:28Z</time>
      </trkpt>
      <trkpt lat="37.1537310" lon="-3.6470260">
        <ele>643.6</ele>
        <time>2019-06-24T17:32:29Z</time>
      </trkpt>
      <trkpt lat="37.1537700" lon="-3.6469000">
        <ele>643.5</ele>
        <time>2019-06-24T17:32:30Z</time>
      </trkpt>
      <trkpt lat="37.1538080" lon="-3.6467740">
        <ele>643.5</ele>
        <time>2019-06-24T17:32:31Z</time>
      </trkpt>
      <trkpt lat="37.1538460" lon="-3.6466480">
        <ele>643.4</ele>
        <time>2019-06-24T17:32:32Z</time>
      </trkpt>
      <trkpt lat="37.1538850" lon="-3.6465220">
        <ele>643.3</ele>
        <time>2019-06-24T17:32:33Z</time>
      </trkpt>
      <trkpt lat="37.1539250" lon="-3.6463990">
        <ele>643.2</ele>
        <time>2019-06-24T17:32:34Z</time>
      </trkpt>
      <trkpt lat="37.1539670" lon="-3.6462750">
        <ele>643.2</ele>
        <time>2019-06-24T17:32:35Z</time>
      </trkpt>
      <trkpt lat="37.1540110" lon="-3.6461540">
        <ele>643.3</ele>
        <time>2019-06-24T17:32:36Z</time>
      </trkpt>
      <trkpt lat="37.1540540" lon="-3.6460330">
        <ele>643.4</ele>
        <time>2019-06-24T17:32:37Z</time>
      </trkpt>
      <trkpt lat="37.1540980" lon="-3.6459090">
        <ele>643.6</ele>
        <time>2019-06-24T17:32:38Z</time>
      </trkpt>
      <trkpt lat="37.1541390" lon="-3.6457830">
        <ele>643.6</ele>
        <time>2019-06-24T17:32:39Z</time>
      </trkpt>
      <trkpt lat="37.1541790" lon="-3.6456580">
        <ele>643.5</ele>
        <time>2019-06-24T17:32:40Z</time>
      </trkpt>
      <trkpt lat="37.1542210" lon="-3.6455320">
        <ele>643.3</ele>
        <time>2019-06-24T17:32:41Z</time>
      </trkpt>
      <trkpt lat="37.1542650" lon="-3.6454060">
        <ele>643.0</ele>
        <time>2019-06-24T17:32:42Z</time>
      </trkpt>
      <trkpt lat="37.1543110" lon="-3.6452820">
        <ele>642.7</ele>
        <time>2019-06-24T17:32:43Z</time>
      </trkpt>
      <trkpt lat="37.1543590" lon="-3.6451600">
        <ele>643.1</ele>
        <time>2019-06-24T17:32:44Z</time>
      </trkpt>
      <trkpt lat="37.1544150" lon="-3.6450410">
        <ele>643.4</ele>
        <time>2019-06-24T17:32:45Z</time>
      </trkpt>
      <trkpt lat="37.1544770" lon="-3.6449270">
        <ele>643.6</ele>
        <time>2019-06-24T17:32:46Z</time>
      </trkpt>
      <trkpt lat="37.1545460" lon="-3.6448200">
        <ele>643.7</ele>
        <time>2019-06-24T17:32:47Z</time>
      </trkpt>
      <trkpt lat="37.1546180" lon="-3.6447180">
        <ele>643.6</ele>
        <time>2019-06-24T17:32:48Z</time>
      </trkpt>
      <trkpt lat="37.1546930" lon="-3.6446180">
        <ele>643.5</ele>
        <time>2019-06-24T17:32:49Z</time>
      </trkpt>
      <trkpt lat="37.1547720" lon="-3.6445220">
        <ele>643.3</ele>
        <time>2019-06-24T17:32:50Z</time>
      </trkpt>
      <trkpt lat="37.1548530" lon="-3.6444300">
        <ele>643.1</ele>
        <time>2019-06-24T17:32:51Z</time>
      </trkpt>
      <trkpt lat="37.1549350" lon="-3.6443410">
        <ele>643.0</ele>
        <time>2019-06-24T17:32:52Z</time>
      </trkpt>
      <trkpt lat="37.1550210" lon="-3.6442570">
        <ele>642.9</ele>
        <time>2019-06-24T17:32:53Z</time>
      </trkpt>
      <trkpt lat="37.1551080" lon="-3.6441720">
        <ele>642.7</ele>
        <time>2019-06-24T17:32:54Z</time>
      </trkpt>
      <trkpt lat="37.1551960" lon="-3.6440900">
        <ele>642.6</ele>
        <time>2019-06-24T17:32:55Z</time>
      </trkpt>
      <trkpt lat="37.1552840" lon="-3.6440090">
        <ele>642.4</ele>
        <time>2019-06-24T17:32:56Z</time>
      </trkpt>
      <trkpt lat="37.1553730" lon="-3.6439280">
        <ele>642.2</ele>
        <time>2019-06-24T17:32:57Z</time>
      </trkpt>
      <trkpt lat="37.1554610" lon="-3.6438480">
        <ele>642.0</ele>
        <time>2019-06-24T17:32:58Z</time>
      </trkpt>
      <trkpt lat="37.1555490" lon="-3.6437680">
        <ele>641.8</ele>
        <time>2019-06-24T17:32:59Z</time>
      </trkpt>
      <trkpt lat="37.1556360" lon="-3.6436880">
        <ele>641.6</ele>
        <time>2019-06-24T17:33:00Z</time>
      </trkpt>
      <trkpt lat="37.1557230" lon="-3.6436090">
        <ele>641.4</ele>
        <time>2019-06-24T17:33:01Z</time>
      </trkpt>
      <trkpt lat="37.1558110" lon="-3.6435300">
        <ele>641.2</ele>
        <time>2019-06-24T17:33:02Z</time>
      </trkpt>
      <trkpt lat="37.1558970" lon="-3.6434510">
        <ele>641.0</ele>
        <time>2019-06-24T17:33:03Z</time>
      </trkpt>
      <trkpt lat="37.1559830" lon="-3.6433710">
        <ele>640.8</ele>
        <time>2019-06-24T17:33:04Z</time>
      </trkpt>
      <trkpt lat="37.1560700" lon="-3.6432920">
        <ele>640.6</ele>
        <time>2019-06-24T17:33:05Z</time>
      </trkpt>
      <trkpt lat="37.1561580" lon="-3.6432110">
        <ele>640.4</ele>
        <time>2019-06-24T17:33:06Z</time>
      </trkpt>
      <trkpt lat="37.1562460" lon="-3.6431320">
        <ele>640.2</ele>
        <time>2019-06-24T17:33:07Z</time>
      </trkpt>
      <trkpt lat="37.1563340" lon="-3.6430530">
        <ele>640.0</ele>
        <time>2019-06-24T17:33:08Z</time>
      </trkpt>
      <trkpt lat="37.1564220" lon="-3.6429730">
        <ele>639.8</ele>
        <time>2019-06-24T17:33:09Z</time>
      </trkpt>
      <trkpt lat="37.1565080" lon="-3.6428910">
        <ele>639.7</ele>
        <time>2019-06-24T17:33:10Z</time>
      </trkpt>
      <trkpt lat="37.1565940" lon="-3.6428110">
        <ele>639.5</ele>
        <time>2019-06-24T17:33:11Z</time>
      </trkpt>
      <trkpt lat="37.1566800" lon="-3.6427310">
        <ele>639.4</ele>
        <time>2019-06-24T17:33:12Z</time>
      </trkpt>
      <trkpt lat="37.1567640" lon="-3.6426500">
        <ele>639.2</ele>
        <time>2019-06-24T17:33:13Z</time>
      </trkpt>
      <trkpt lat="37.1568490" lon="-3.6425710">
        <ele>639.1</ele>
        <time>2019-06-24T17:33:14Z</time>
      </trkpt>
      <trkpt lat="37.1569310" lon="-3.6424870">
        <ele>639.1</ele>
        <time>2019-06-24T17:33:15Z</time>
      </trkpt>
      <trkpt lat="37.1570080" lon="-3.6423980">
        <ele>639.0</ele>
        <time>2019-06-24T17:33:16Z</time>
      </trkpt>
      <trkpt lat="37.1570830" lon="-3.6423060">
        <ele>638.9</ele>
        <time>2019-06-24T17:33:17Z</time>
      </trkpt>
      <trkpt lat="37.1571570" lon="-3.6422120">
        <ele>638.8</ele>
        <time>2019-06-24T17:33:18Z</time>
      </trkpt>
      <trkpt lat="37.1572280" lon="-3.6421180">
        <ele>638.7</ele>
        <time>2019-06-24T17:33:19Z</time>
      </trkpt>
      <trkpt lat="37.1572970" lon="-3.6420220">
        <ele>638.6</ele>
        <time>2019-06-24T17:33:20Z</time>
      </trkpt>
      <trkpt lat="37.1573650" lon="-3.6419240">
        <ele>638.5</ele>
        <time>2019-06-24T17:33:21Z</time>
      </trkpt>
      <trkpt lat="37.1574290" lon="-3.6418250">
        <ele>638.5</ele>
        <time>2019-06-24T17:33:22Z</time>
      </trkpt>
      <trkpt lat="37.1574910" lon="-3.6417230">
        <ele>638.2</ele>
        <time>2019-06-24T17:33:23Z</time>
      </trkpt>
      <trkpt lat="37.1575520" lon="-3.6416210">
        <ele>637.9</ele>
        <time>2019-06-24T17:33:24Z</time>
      </trkpt>
      <trkpt lat="37.1576110" lon="-3.6415170">
        <ele>637.6</ele>
        <time>2019-06-24T17:33:25Z</time>
      </trkpt>
      <trkpt lat="37.1576700" lon="-3.6414150">
        <ele>637.3</ele>
        <time>2019-06-24T17:33:26Z</time>
      </trkpt>
      <trkpt lat="37.1577280" lon="-3.6413130">
        <ele>637.0</ele>
        <time>2019-06-24T17:33:27Z</time>
      </trkpt>
      <trkpt lat="37.1577850" lon="-3.6412110">
        <ele>636.7</ele>
        <time>2019-06-24T17:33:28Z</time>
      </trkpt>
      <trkpt lat="37.1578410" lon="-3.6411110">
        <ele>636.4</ele>
        <time>2019-06-24T17:33:29Z</time>
      </trkpt>
      <trkpt lat="37.1578980" lon="-3.6410110">
        <ele>636.2</ele>
        <time>2019-06-24T17:33:30Z</time>
      </trkpt>
      <trkpt lat="37.1579540" lon="-3.6409120">
        <ele>635.9</ele>
        <time>2019-06-24T17:33:31Z</time>
      </trkpt>
      <trkpt lat="37.1580100" lon="-3.6408140">
        <ele>635.6</ele>
        <time>2019-06-24T17:33:32Z</time>
      </trkpt>
      <trkpt lat="37.1580630" lon="-3.6407160">
        <ele>635.4</ele>
        <time>2019-06-24T17:33:33Z</time>
      </trkpt>
      <trkpt lat="37.1581070" lon="-3.6406140">
        <ele>635.3</ele>
        <time>2019-06-24T17:33:34Z</time>
      </trkpt>
      <trkpt lat="37.1581380" lon="-3.6405060">
        <ele>635.2</ele>
        <time>2019-06-24T17:33:35Z</time>
      </trkpt>
      <trkpt lat="37.1581700" lon="-3.6404020">
        <ele>635.2</ele>
        <time>2019-06-24T17:33:36Z</time>
      </trkpt>
      <trkpt lat="37.1582210" lon="-3.6403140">
        <ele>635.6</ele>
        <time>2019-06-24T17:33:37Z</time>
      </trkpt>
      <trkpt lat="37.1582820" lon="-3.6402450">
        <ele>635.7</ele>
        <time>2019-06-24T17:33:38Z</time>
      </trkpt>
      <trkpt lat="37.1583380" lon="-3.6401860">
        <ele>635.7</ele>
        <time>2019-06-24T17:33:39Z</time>
      </trkpt>
      <trkpt lat="37.1583830" lon="-3.6401190">
        <ele>635.8</ele>
        <time>2019-06-24T17:33:40Z</time>
      </trkpt>
      <trkpt lat="37.1584270" lon="-3.6400450">
        <ele>635.8</ele>
        <time>2019-06-24T17:33:41Z</time>
      </trkpt>
      <trkpt lat="37.1584710" lon="-3.6399670">
        <ele>635.8</ele>
        <time>2019-06-24T17:33:42Z</time>
      </trkpt>
      <trkpt lat="37.1585160" lon="-3.6398870">
        <ele>635.8</ele>
        <time>2019-06-24T17:33:43Z</time>
      </trkpt>
      <trkpt lat="37.1585630" lon="-3.6398050">
        <ele>635.8</ele>
        <time>2019-06-24T17:33:44Z</time>
      </trkpt>
      <trkpt lat="37.1586110" lon="-3.6397210">
        <ele>635.8</ele>
        <time>2019-06-24T17:33:45Z</time>
      </trkpt>
      <trkpt lat="37.1586580" lon="-3.6396340">
        <ele>635.8</ele>
        <time>2019-06-24T17:33:46Z</time>
      </trkpt>
      <trkpt lat="37.1587070" lon="-3.6395460">
        <ele>635.7</ele>
        <time>2019-06-24T17:33:47Z</time>
      </trkpt>
      <trkpt lat="37.1587570" lon="-3.6394570">
        <ele>635.6</ele>
        <time>2019-06-24T17:33:48Z</time>
      </trkpt>
      <trkpt lat="37.1588070" lon="-3.6393660">
        <ele>635.5</ele>
        <time>2019-06-24T17:33:49Z</time>
      </trkpt>
      <trkpt lat="37.1588570" lon="-3.6392740">
        <ele>635.3</ele>
        <time>2019-06-24T17:33:50Z</time>
      </trkpt>
      <trkpt lat="37.1589080" lon="-3.6391800">
        <ele>634.8</ele>
        <time>2019-06-24T17:33:51Z</time>
      </trkpt>
      <trkpt lat="37.1589610" lon="-3.6390870">
        <ele>634.5</ele>
        <time>2019-06-24T17:33:52Z</time>
      </trkpt>
      <trkpt lat="37.1590130" lon="-3.6389930">
        <ele>634.3</ele>
        <time>2019-06-24T17:33:53Z</time>
      </trkpt>
      <trkpt lat="37.1590660" lon="-3.6388990">
        <ele>634.2</ele>
        <time>2019-06-24T17:33:54Z</time>
      </trkpt>
      <trkpt lat="37.1591180" lon="-3.6388040">
        <ele>634.1</ele>
        <time>2019-06-24T17:33:55Z</time>
      </trkpt>
      <trkpt lat="37.1591700" lon="-3.6387080">
        <ele>634.0</ele>
        <time>2019-06-24T17:33:56Z</time>
      </trkpt>
      <trkpt lat="37.1592210" lon="-3.6386130">
        <ele>633.9</ele>
        <time>2019-06-24T17:33:57Z</time>
      </trkpt>
      <trkpt lat="37.1592700" lon="-3.6385160">
        <ele>634.1</ele>
        <time>2019-06-24T17:33:58Z</time>
      </trkpt>
      <trkpt lat="37.1593190" lon="-3.6384190">
        <ele>634.2</ele>
        <time>2019-06-24T17:33:59Z</time>
      </trkpt>
      <trkpt lat="37.1593670" lon="-3.6383240">
        <ele>634.4</ele>
        <time>2019-06-24T17:34:00Z</time>
      </trkpt>
      <trkpt lat="37.1594150" lon="-3.6382280">
        <ele>634.5</ele>
        <time>2019-06-24T17:34:01Z</time>
      </trkpt>
      <trkpt lat="37.1594630" lon="-3.6381330">
        <ele>634.6</ele>
        <time>2019-06-24T17:34:02Z</time>
      </trkpt>
      <trkpt lat="37.1595100" lon="-3.6380380">
        <ele>634.7</ele>
        <time>2019-06-24T17:34:03Z</time>
      </trkpt>
      <trkpt lat="37.1595550" lon="-3.6379440">
        <ele>634.8</ele>
        <time>2019-06-24T17:34:04Z</time>
      </trkpt>
      <trkpt lat="37.1596020" lon="-3.6378500">
        <ele>634.9</ele>
        <time>2019-06-24T17:34:05Z</time>
      </trkpt>
      <trkpt lat="37.1596450" lon="-3.6377550">
        <ele>635.0</ele>
        <time>2019-06-24T17:34:06Z</time>
      </trkpt>
      <trkpt lat="37.1596890" lon="-3.6376610">
        <ele>635.1</ele>
        <time>2019-06-24T17:34:07Z</time>
      </trkpt>
      <trkpt lat="37.1597320" lon="-3.6375670">
        <ele>635.2</ele>
        <time>2019-06-24T17:34:08Z</time>
      </trkpt>
      <trkpt lat="37.1597750" lon="-3.6374720">
        <ele>635.4</ele>
        <time>2019-06-24T17:34:09Z</time>
      </trkpt>
      <trkpt lat="37.1598170" lon="-3.6373790">
        <ele>635.6</ele>
        <time>2019-06-24T17:34:10Z</time>
      </trkpt>
      <trkpt lat="37.1598600" lon="-3.6372850">
        <ele>635.8</ele>
        <time>2019-06-24T17:34:11Z</time>
      </trkpt>
      <trkpt lat="37.1599040" lon="-3.6371920">
        <ele>636.1</ele>
        <time>2019-06-24T17:34:12Z</time>
      </trkpt>
      <trkpt lat="37.1599490" lon="-3.6370980">
        <ele>636.3</ele>
        <time>2019-06-24T17:34:13Z</time>
      </trkpt>
      <trkpt lat="37.1599950" lon="-3.6370000">
        <ele>636.5</ele>
        <time>2019-06-24T17:34:14Z</time>
      </trkpt>
      <trkpt lat="37.1600400" lon="-3.6368990">
        <ele>636.6</ele>
        <time>2019-06-24T17:34:15Z</time>
      </trkpt>
      <trkpt lat="37.1600850" lon="-3.6367980">
        <ele>636.8</ele>
        <time>2019-06-24T17:34:16Z</time>
      </trkpt>
      <trkpt lat="37.1601330" lon="-3.6366940">
        <ele>636.8</ele>
        <time>2019-06-24T17:34:17Z</time>
      </trkpt>
      <trkpt lat="37.1601810" lon="-3.6365890">
        <ele>636.9</ele>
        <time>2019-06-24T17:34:18Z</time>
      </trkpt>
      <trkpt lat="37.1602330" lon="-3.6364820">
        <ele>636.9</ele>
        <time>2019-06-24T17:34:19Z</time>
      </trkpt>
      <trkpt lat="37.1602870" lon="-3.6363730">
        <ele>636.8</ele>
        <time>2019-06-24T17:34:20Z</time>
      </trkpt>
      <trkpt lat="37.1603320" lon="-3.6362630">
        <ele>636.8</ele>
        <time>2019-06-24T17:34:21Z</time>
      </trkpt>
      <trkpt lat="37.1603800" lon="-3.6361540">
        <ele>636.7</ele>
        <time>2019-06-24T17:34:22Z</time>
      </trkpt>
      <trkpt lat="37.1604290" lon="-3.6360450">
        <ele>636.7</ele>
        <time>2019-06-24T17:34:23Z</time>
      </trkpt>
      <trkpt lat="37.1604760" lon="-3.6359350">
        <ele>636.8</ele>
        <time>2019-06-24T17:34:24Z</time>
      </trkpt>
      <trkpt lat="37.1605160" lon="-3.6358230">
        <ele>636.9</ele>
        <time>2019-06-24T17:34:25Z</time>
      </trkpt>
      <trkpt lat="37.1605610" lon="-3.6357100">
        <ele>637.0</ele>
        <time>2019-06-24T17:34:26Z</time>
      </trkpt>
      <trkpt lat="37.1606050" lon="-3.6355960">
        <ele>637.2</ele>
        <time>2019-06-24T17:34:27Z</time>
      </trkpt>
      <trkpt lat="37.1606470" lon="-3.6354780">
        <ele>637.4</ele>
        <time>2019-06-24T17:34:28Z</time>
      </trkpt>
      <trkpt lat="37.1606890" lon="-3.6353570">
        <ele>637.5</ele>
        <time>2019-06-24T17:34:29Z</time>
      </trkpt>
      <trkpt lat="37.1607300" lon="-3.6352340">
        <ele>637.6</ele>
        <time>2019-06-24T17:34:30Z</time>
      </trkpt>
      <trkpt lat="37.1607690" lon="-3.6351090">
        <ele>637.6</ele>
        <time>2019-06-24T17:34:31Z</time>
      </trkpt>
      <trkpt lat="37.1608050" lon="-3.6349820">
        <ele>637.6</ele>
        <time>2019-06-24T17:34:32Z</time>
      </trkpt>
      <trkpt lat="37.1608430" lon="-3.6348530">
        <ele>637.6</ele>
        <time>2019-06-24T17:34:33Z</time>
      </trkpt>
      <trkpt lat="37.1608810" lon="-3.6347230">
        <ele>637.5</ele>
        <time>2019-06-24T17:34:34Z</time>
      </trkpt>
      <trkpt lat="37.1609200" lon="-3.6345930">
        <ele>637.5</ele>
        <time>2019-06-24T17:34:35Z</time>
      </trkpt>
      <trkpt lat="37.1609570" lon="-3.6344620">
        <ele>637.5</ele>
        <time>2019-06-24T17:34:36Z</time>
      </trkpt>
      <trkpt lat="37.1609950" lon="-3.6343320">
        <ele>637.4</ele>
        <time>2019-06-24T17:34:37Z</time>
      </trkpt>
      <trkpt lat="37.1610330" lon="-3.6342040">
        <ele>637.3</ele>
        <time>2019-06-24T17:34:38Z</time>
      </trkpt>
      <trkpt lat="37.1610720" lon="-3.6340760">
        <ele>637.2</ele>
        <time>2019-06-24T17:34:39Z</time>
      </trkpt>
      <trkpt lat="37.1611110" lon="-3.6339490">
        <ele>637.1</ele>
        <time>2019-06-24T17:34:40Z</time>
      </trkpt>
      <trkpt lat="37.1611510" lon="-3.6338240">
        <ele>637.0</ele>
        <time>2019-06-24T17:34:41Z</time>
      </trkpt>
      <trkpt lat="37.1611890" lon="-3.6337000">
        <ele>637.0</ele>
        <time>2019-06-24T17:34:42Z</time>
      </trkpt>
      <trkpt lat="37.1612270" lon="-3.6335760">
        <ele>636.9</ele>
        <time>2019-06-24T17:34:43Z</time>
      </trkpt>
      <trkpt lat="37.1612630" lon="-3.6334550">
        <ele>636.9</ele>
        <time>2019-06-24T17:34:44Z</time>
      </trkpt>
      <trkpt lat="37.1613000" lon="-3.6333340">
        <ele>636.8</ele>
        <time>2019-06-24T17:34:45Z</time>
      </trkpt>
      <trkpt lat="37.1613360" lon="-3.6332150">
        <ele>636.8</ele>
        <time>2019-06-24T17:34:46Z</time>
      </trkpt>
      <trkpt lat="37.1613730" lon="-3.6330960">
        <ele>636.8</ele>
        <time>2019-06-24T17:34:47Z</time>
      </trkpt>
      <trkpt lat="37.1614090" lon="-3.6329790">
        <ele>636.8</ele>
        <time>2019-06-24T17:34:48Z</time>
      </trkpt>
      <trkpt lat="37.1614450" lon="-3.6328630">
        <ele>636.8</ele>
        <time>2019-06-24T17:34:49Z</time>
      </trkpt>
      <trkpt lat="37.1614800" lon="-3.6327480">
        <ele>636.9</ele>
        <time>2019-06-24T17:34:50Z</time>
      </trkpt>
      <trkpt lat="37.1615150" lon="-3.6326340">
        <ele>636.9</ele>
        <time>2019-06-24T17:34:51Z</time>
      </trkpt>
      <trkpt lat="37.1615520" lon="-3.6325220">
        <ele>636.9</ele>
        <time>2019-06-24T17:34:52Z</time>
      </trkpt>
      <trkpt lat="37.1615870" lon="-3.6324110">
        <ele>637.0</ele>
        <time>2019-06-24T17:34:53Z</time>
      </trkpt>
      <trkpt lat="37.1616210" lon="-3.6323000">
        <ele>637.0</ele>
        <time>2019-06-24T17:34:54Z</time>
      </trkpt>
      <trkpt lat="37.1616550" lon="-3.6321900">
        <ele>636.9</ele>
        <time>2019-06-24T17:34:55Z</time>
      </trkpt>
      <trkpt lat="37.1616850" lon="-3.6320800">
        <ele>636.9</ele>
        <time>2019-06-24T17:34:56Z</time>
      </trkpt>
      <trkpt lat="37.1617140" lon="-3.6319690">
        <ele>636.9</ele>
        <time>2019-06-24T17:34:57Z</time>
      </trkpt>
      <trkpt lat="37.1617430" lon="-3.6318580">
        <ele>636.9</ele>
        <time>2019-06-24T17:34:58Z</time>
      </trkpt>
      <trkpt lat="37.1617700" lon="-3.6317470">
        <ele>636.9</ele>
        <time>2019-06-24T17:34:59Z</time>
      </trkpt>
      <trkpt lat="37.1617950" lon="-3.6316360">
        <ele>636.9</ele>
        <time>2019-06-24T17:35:00Z</time>
      </trkpt>
      <trkpt lat="37.1618170" lon="-3.6315240">
        <ele>636.9</ele>
        <time>2019-06-24T17:35:01Z</time>
      </trkpt>
      <trkpt lat="37.1618400" lon="-3.6314130">
        <ele>637.0</ele>
        <time>2019-06-24T17:35:02Z</time>
      </trkpt>
      <trkpt lat="37.1618620" lon="-3.6313020">
        <ele>637.0</ele>
        <time>2019-06-24T17:35:03Z</time>
      </trkpt>
      <trkpt lat="37.1618820" lon="-3.6311910">
        <ele>637.0</ele>
        <time>2019-06-24T17:35:04Z</time>
      </trkpt>
      <trkpt lat="37.1619030" lon="-3.6310800">
        <ele>637.0</ele>
        <time>2019-06-24T17:35:05Z</time>
      </trkpt>
      <trkpt lat="37.1619220" lon="-3.6309690">
        <ele>637.1</ele>
        <time>2019-06-24T17:35:06Z</time>
      </trkpt>
      <trkpt lat="37.1619390" lon="-3.6308590">
        <ele>637.1</ele>
        <time>2019-06-24T17:35:07Z</time>
      </trkpt>
      <trkpt lat="37.1619590" lon="-3.6307510">
        <ele>637.1</ele>
        <time>2019-06-24T17:35:08Z</time>
      </trkpt>
      <trkpt lat="37.1619790" lon="-3.6306440">
        <ele>637.1</ele>
        <time>2019-06-24T17:35:09Z</time>
      </trkpt>
      <trkpt lat="37.1619980" lon="-3.6305380">
        <ele>637.2</ele>
        <time>2019-06-24T17:35:10Z</time>
      </trkpt>
      <trkpt lat="37.1620160" lon="-3.6304350">
        <ele>637.2</ele>
        <time>2019-06-24T17:35:11Z</time>
      </trkpt>
      <trkpt lat="37.1620340" lon="-3.6303320">
        <ele>637.2</ele>
        <time>2019-06-24T17:35:12Z</time>
      </trkpt>
      <trkpt lat="37.1620530" lon="-3.6302290">
        <ele>637.3</ele>
        <time>2019-06-24T17:35:13Z</time>
      </trkpt>
      <trkpt lat="37.1620700" lon="-3.6301270">
        <ele>637.3</ele>
        <time>2019-06-24T17:35:14Z</time>
      </trkpt>
      <trkpt lat="37.1620880" lon="-3.6300260">
        <ele>637.4</ele>
        <time>2019-06-24T17:35:15Z</time>
      </trkpt>
      <trkpt lat="37.1621070" lon="-3.6299250">
        <ele>637.5</ele>
        <time>2019-06-24T17:35:16Z</time>
      </trkpt>
      <trkpt lat="37.1621270" lon="-3.6298250">
        <ele>637.6</ele>
        <time>2019-06-24T17:35:17Z</time>
      </trkpt>
      <trkpt lat="37.1621470" lon="-3.6297260">
        <ele>637.7</ele>
        <time>2019-06-24T17:35:18Z</time>
      </trkpt>
      <trkpt lat="37.1621680" lon="-3.6296270">
        <ele>637.8</ele>
        <time>2019-06-24T17:35:19Z</time>
      </trkpt>
      <trkpt lat="37.1621910" lon="-3.6295280">
        <ele>637.9</ele>
        <time>2019-06-24T17:35:20Z</time>
      </trkpt>
      <trkpt lat="37.1622150" lon="-3.6294330">
        <ele>638.1</ele>
        <time>2019-06-24T17:35:21Z</time>
      </trkpt>
      <trkpt lat="37.1622430" lon="-3.6293400">
        <ele>638.1</ele>
        <time>2019-06-24T17:35:22Z</time>
      </trkpt>
      <trkpt lat="37.1622750" lon="-3.6292500">
        <ele>638.2</ele>
        <time>2019-06-24T17:35:23Z</time>
      </trkpt>
      <trkpt lat="37.1623060" lon="-3.6291600">
        <ele>638.3</ele>
        <time>2019-06-24T17:35:24Z</time>
      </trkpt>
      <trkpt lat="37.1623400" lon="-3.6290740">
        <ele>638.4</ele>
        <time>2019-06-24T17:35:25Z</time>
      </trkpt>
      <trkpt lat="37.1623760" lon="-3.6289890">
        <ele>638.6</ele>
        <time>2019-06-24T17:35:26Z</time>
      </trkpt>
      <trkpt lat="37.1624110" lon="-3.6289030">
        <ele>638.7</ele>
        <time>2019-06-24T17:35:27Z</time>
      </trkpt>
      <trkpt lat="37.1624490" lon="-3.6288190">
        <ele>638.8</ele>
        <time>2019-06-24T17:35:28Z</time>
      </trkpt>
      <trkpt lat="37.1624890" lon="-3.6287390">
        <ele>639.0</ele>
        <time>2019-06-24T17:35:29Z</time>
      </trkpt>
      <trkpt lat="37.1625320" lon="-3.6286660">
        <ele>639.2</ele>
        <time>2019-06-24T17:35:30Z</time>
      </trkpt>
      <trkpt lat="37.1625750" lon="-3.6285970">
        <ele>639.4</ele>
        <time>2019-06-24T17:35:31Z</time>
      </trkpt>
      <trkpt lat="37.1626170" lon="-3.6285350">
        <ele>639.7</ele>
        <time>2019-06-24T17:35:32Z</time>
      </trkpt>
      <trkpt lat="37.1626570" lon="-3.6284770">
        <ele>640.0</ele>
        <time>2019-06-24T17:35:33Z</time>
      </trkpt>
      <trkpt lat="37.1626980" lon="-3.6284250">
        <ele>640.2</ele>
        <time>2019-06-24T17:35:34Z</time>
      </trkpt>
      <trkpt lat="37.1627360" lon="-3.6283770">
        <ele>640.6</ele>
        <time>2019-06-24T17:35:35Z</time>
      </trkpt>
      <trkpt lat="37.1627720" lon="-3.6283350">
        <ele>640.6</ele>
        <time>2019-06-24T17:35:36Z</time>
      </trkpt>
      <trkpt lat="37.1628070" lon="-3.6282970">
        <ele>640.6</ele>
        <time>2019-06-24T17:35:37Z</time>
      </trkpt>
      <trkpt lat="37.1628400" lon="-3.6282610">
        <ele>640.6</ele>
        <time>2019-06-24T17:35:38Z</time>
      </trkpt>
      <trkpt lat="37.1628730" lon="-3.6282270">
        <ele>640.6</ele>
        <time>2019-06-24T17:35:39Z</time>
      </trkpt>
      <trkpt lat="37.1629050" lon="-3.6281900">
        <ele>640.7</ele>
        <time>2019-06-24T17:35:40Z</time>
      </trkpt>
      <trkpt lat="37.1629350" lon="-3.6281460">
        <ele>640.7</ele>
        <time>2019-06-24T17:35:41Z</time>
      </trkpt>
      <trkpt lat="37.1629670" lon="-3.6280980">
        <ele>640.7</ele>
        <time>2019-06-24T17:35:42Z</time>
      </trkpt>
      <trkpt lat="37.1630060" lon="-3.6280550">
        <ele>640.7</ele>
        <time>2019-06-24T17:35:43Z</time>
      </trkpt>
      <trkpt lat="37.1630540" lon="-3.6280230">
        <ele>640.6</ele>
        <time>2019-06-24T17:35:44Z</time>
      </trkpt>
      <trkpt lat="37.1631080" lon="-3.6279990">
        <ele>640.6</ele>
        <time>2019-06-24T17:35:45Z</time>
      </trkpt>
      <trkpt lat="37.1631660" lon="-3.6279720">
        <ele>640.5</ele>
        <time>2019-06-24T17:35:46Z</time>
      </trkpt>
      <trkpt lat="37.1632250" lon="-3.6279350">
        <ele>640.5</ele>
        <time>2019-06-24T17:35:47Z</time>
      </trkpt>
      <trkpt lat="37.1632790" lon="-3.6278880">
        <ele>640.5</ele>
        <time>2019-06-24T17:35:48Z</time>
      </trkpt>
      <trkpt lat="37.1633290" lon="-3.6278320">
        <ele>640.5</ele>
        <time>2019-06-24T17:35:49Z</time>
      </trkpt>
      <trkpt lat="37.1633770" lon="-3.6277720">
        <ele>640.5</ele>
        <time>2019-06-24T17:35:50Z</time>
      </trkpt>
      <trkpt lat="37.1634250" lon="-3.6277090">
        <ele>640.5</ele>
        <time>2019-06-24T17:35:51Z</time>
      </trkpt>
      <trkpt lat="37.1634740" lon="-3.6276460">
        <ele>640.6</ele>
        <time>2019-06-24T17:35:52Z</time>
      </trkpt>
      <trkpt lat="37.1635150" lon="-3.6275760">
        <ele>640.6</ele>
        <time>2019-06-24T17:35:53Z</time>
      </trkpt>
      <trkpt lat="37.1635530" lon="-3.6274960">
        <ele>640.6</ele>
        <time>2019-06-24T17:35:54Z</time>
      </trkpt>
      <trkpt lat="37.1635880" lon="-3.6274080">
        <ele>640.6</ele>
        <time>2019-06-24T17:35:55Z</time>
      </trkpt>
      <trkpt lat="37.1636260" lon="-3.6273130">
        <ele>640.6</ele>
        <time>2019-06-24T17:35:56Z</time>
      </trkpt>
      <trkpt lat="37.1636690" lon="-3.6272140">
        <ele>640.6</ele>
        <time>2019-06-24T17:35:57Z</time>
      </trkpt>
      <trkpt lat="37.1637230" lon="-3.6271140">
        <ele>640.6</ele>
        <time>2019-06-24T17:35:58Z</time>
      </trkpt>
      <trkpt lat="37.1637860" lon="-3.6270200">
        <ele>640.6</ele>
        <time>2019-06-24T17:35:59Z</time>
      </trkpt>
      <trkpt lat="37.1638560" lon="-3.6269300">
        <ele>640.8</ele>
        <time>2019-06-24T17:36:00Z</time>
      </trkpt>
      <trkpt lat="37.1639240" lon="-3.6268400">
        <ele>641.0</ele>
        <time>2019-06-24T17:36:01Z</time>
      </trkpt>
      <trkpt lat="37.1639950" lon="-3.6267520">
        <ele>641.2</ele>
        <time>2019-06-24T17:36:02Z</time>
      </trkpt>
      <trkpt lat="37.1640650" lon="-3.6266660">
        <ele>641.3</ele>
        <time>2019-06-24T17:36:03Z</time>
      </trkpt>
      <trkpt lat="37.1641330" lon="-3.6265800">
        <ele>641.5</ele>
        <time>2019-06-24T17:36:04Z</time>
      </trkpt>
      <trkpt lat="37.1642000" lon="-3.6264950">
        <ele>641.5</ele>
        <time>2019-06-24T17:36:05Z</time>
      </trkpt>
      <trkpt lat="37.1642670" lon="-3.6264100">
        <ele>641.5</ele>
        <time>2019-06-24T17:36:06Z</time>
      </trkpt>
      <trkpt lat="37.1643320" lon="-3.6263240">
        <ele>641.3</ele>
        <time>2019-06-24T17:36:07Z</time>
      </trkpt>
      <trkpt lat="37.1643980" lon="-3.6262400">
        <ele>641.1</ele>
        <time>2019-06-24T17:36:08Z</time>
      </trkpt>
      <trkpt lat="37.1644630" lon="-3.6261570">
        <ele>640.9</ele>
        <time>2019-06-24T17:36:09Z</time>
      </trkpt>
      <trkpt lat="37.1645280" lon="-3.6260750">
        <ele>640.8</ele>
        <time>2019-06-24T17:36:10Z</time>
      </trkpt>
      <trkpt lat="37.1645950" lon="-3.6259950">
        <ele>640.7</ele>
        <time>2019-06-24T17:36:11Z</time>
      </trkpt>
      <trkpt lat="37.1646620" lon="-3.6259180">
        <ele>640.6</ele>
        <time>2019-06-24T17:36:12Z</time>
      </trkpt>
      <trkpt lat="37.1647290" lon="-3.6258440">
        <ele>640.6</ele>
        <time>2019-06-24T17:36:13Z</time>
      </trkpt>
      <trkpt lat="37.1647980" lon="-3.6257720">
        <ele>640.5</ele>
        <time>2019-06-24T17:36:14Z</time>
      </trkpt>
      <trkpt lat="37.1648670" lon="-3.6257020">
        <ele>640.5</ele>
        <time>2019-06-24T17:36:15Z</time>
      </trkpt>
      <trkpt lat="37.1649370" lon="-3.6256340">
        <ele>640.5</ele>
        <time>2019-06-24T17:36:16Z</time>
      </trkpt>
      <trkpt lat="37.1650080" lon="-3.6255680">
        <ele>640.5</ele>
        <time>2019-06-24T17:36:17Z</time>
      </trkpt>
      <trkpt lat="37.1650810" lon="-3.6255030">
        <ele>640.5</ele>
        <time>2019-06-24T17:36:18Z</time>
      </trkpt>
      <trkpt lat="37.1651510" lon="-3.6254380">
        <ele>640.5</ele>
        <time>2019-06-24T17:36:19Z</time>
      </trkpt>
      <trkpt lat="37.1652210" lon="-3.6253720">
        <ele>640.5</ele>
        <time>2019-06-24T17:36:20Z</time>
      </trkpt>
      <trkpt lat="37.1652910" lon="-3.6253060">
        <ele>640.6</ele>
        <time>2019-06-24T17:36:21Z</time>
      </trkpt>
      <trkpt lat="37.1653610" lon="-3.6252410">
        <ele>640.6</ele>
        <time>2019-06-24T17:36:22Z</time>
      </trkpt>
      <trkpt lat="37.1654300" lon="-3.6251760">
        <ele>640.8</ele>
        <time>2019-06-24T17:36:23Z</time>
      </trkpt>
      <trkpt lat="37.1654950" lon="-3.6251110">
        <ele>640.8</ele>
        <time>2019-06-24T17:36:24Z</time>
      </trkpt>
      <trkpt lat="37.1655620" lon="-3.6250460">
        <ele>640.9</ele>
        <time>2019-06-24T17:36:25Z</time>
      </trkpt>
      <trkpt lat="37.1656320" lon="-3.6249810">
        <ele>641.0</ele>
        <time>2019-06-24T17:36:26Z</time>
      </trkpt>
      <trkpt lat="37.1657030" lon="-3.6249160">
        <ele>641.1</ele>
        <time>2019-06-24T17:36:27Z</time>
      </trkpt>
      <trkpt lat="37.1657740" lon="-3.6248500">
        <ele>641.2</ele>
        <time>2019-06-24T17:36:28Z</time>
      </trkpt>
      <trkpt lat="37.1658460" lon="-3.6247850">
        <ele>641.3</ele>
        <time>2019-06-24T17:36:29Z</time>
      </trkpt>
      <trkpt lat="37.1659180" lon="-3.6247210">
        <ele>641.5</ele>
        <time>2019-06-24T17:36:30Z</time>
      </trkpt>
      <trkpt lat="37.1659900" lon="-3.6246570">
        <ele>641.6</ele>
        <time>2019-06-24T17:36:31Z</time>
      </trkpt>
      <trkpt lat="37.1660620" lon="-3.6245930">
        <ele>641.7</ele>
        <time>2019-06-24T17:36:32Z</time>
      </trkpt>
      <trkpt lat="37.1661340" lon="-3.6245300">
        <ele>641.7</ele>
        <time>2019-06-24T17:36:33Z</time>
      </trkpt>
      <trkpt lat="37.1662060" lon="-3.6244670">
        <ele>641.8</ele>
        <time>2019-06-24T17:36:34Z</time>
      </trkpt>
      <trkpt lat="37.1662760" lon="-3.6244080">
        <ele>641.9</ele>
        <time>2019-06-24T17:36:35Z</time>
      </trkpt>
      <trkpt lat="37.1663460" lon="-3.6243500">
        <ele>642.0</ele>
        <time>2019-06-24T17:36:36Z</time>
      </trkpt>
      <trkpt lat="37.1664140" lon="-3.6242920">
        <ele>642.1</ele>
        <time>2019-06-24T17:36:37Z</time>
      </trkpt>
      <trkpt lat="37.1664820" lon="-3.6242360">
        <ele>642.1</ele>
        <time>2019-06-24T17:36:38Z</time>
      </trkpt>
      <trkpt lat="37.1665450" lon="-3.6241760">
        <ele>642.0</ele>
        <time>2019-06-24T17:36:39Z</time>
      </trkpt>
      <trkpt lat="37.1666060" lon="-3.6241120">
        <ele>642.0</ele>
        <time>2019-06-24T17:36:40Z</time>
      </trkpt>
      <trkpt lat="37.1666720" lon="-3.6240590">
        <ele>642.0</ele>
        <time>2019-06-24T17:36:41Z</time>
      </trkpt>
      <trkpt lat="37.1667450" lon="-3.6240200">
        <ele>641.9</ele>
        <time>2019-06-24T17:36:42Z</time>
      </trkpt>
      <trkpt lat="37.1668140" lon="-3.6239750">
        <ele>641.8</ele>
        <time>2019-06-24T17:36:43Z</time>
      </trkpt>
      <trkpt lat="37.1668780" lon="-3.6239140">
        <ele>641.7</ele>
        <time>2019-06-24T17:36:44Z</time>
      </trkpt>
      <trkpt lat="37.1669370" lon="-3.6238440">
        <ele>641.6</ele>
        <time>2019-06-24T17:36:45Z</time>
      </trkpt>
      <trkpt lat="37.1669930" lon="-3.6237740">
        <ele>641.7</ele>
        <time>2019-06-24T17:36:46Z</time>
      </trkpt>
      <trkpt lat="37.1670500" lon="-3.6237040">
        <ele>641.7</ele>
        <time>2019-06-24T17:36:47Z</time>
      </trkpt>
      <trkpt lat="37.1671070" lon="-3.6236320">
        <ele>641.8</ele>
        <time>2019-06-24T17:36:48Z</time>
      </trkpt>
      <trkpt lat="37.1671640" lon="-3.6235620">
        <ele>641.8</ele>
        <time>2019-06-24T17:36:49Z</time>
      </trkpt>
      <trkpt lat="37.1672210" lon="-3.6234910">
        <ele>641.8</ele>
        <time>2019-06-24T17:36:50Z</time>
      </trkpt>
      <trkpt lat="37.1672810" lon="-3.6234230">
        <ele>641.8</ele>
        <time>2019-06-24T17:36:51Z</time>
      </trkpt>
      <trkpt lat="37.1673410" lon="-3.6233540">
        <ele>641.8</ele>
        <time>2019-06-24T17:36:52Z</time>
      </trkpt>
      <trkpt lat="37.1674000" lon="-3.6232860">
        <ele>641.8</ele>
        <time>2019-06-24T17:36:53Z</time>
      </trkpt>
      <trkpt lat="37.1674620" lon="-3.6232200">
        <ele>641.8</ele>
        <time>2019-06-24T17:36:54Z</time>
      </trkpt>
      <trkpt lat="37.1675260" lon="-3.6231560">
        <ele>641.7</ele>
        <time>2019-06-24T17:36:55Z</time>
      </trkpt>
      <trkpt lat="37.1675910" lon="-3.6230940">
        <ele>641.7</ele>
        <time>2019-06-24T17:36:56Z</time>
      </trkpt>
      <trkpt lat="37.1676580" lon="-3.6230360">
        <ele>641.8</ele>
        <time>2019-06-24T17:36:57Z</time>
      </trkpt>
      <trkpt lat="37.1677260" lon="-3.6229790">
        <ele>641.8</ele>
        <time>2019-06-24T17:36:58Z</time>
      </trkpt>
      <trkpt lat="37.1677950" lon="-3.6229230">
        <ele>641.9</ele>
        <time>2019-06-24T17:36:59Z</time>
      </trkpt>
      <trkpt lat="37.1678630" lon="-3.6228670">
        <ele>641.9</ele>
        <time>2019-06-24T17:37:00Z</time>
      </trkpt>
      <trkpt lat="37.1679300" lon="-3.6228080">
        <ele>641.9</ele>
        <time>2019-06-24T17:37:01Z</time>
      </trkpt>
      <trkpt lat="37.1679940" lon="-3.6227440">
        <ele>641.8</ele>
        <time>2019-06-24T17:37:02Z</time>
      </trkpt>
      <trkpt lat="37.1680540" lon="-3.6226750">
        <ele>641.8</ele>
        <time>2019-06-24T17:37:03Z</time>
      </trkpt>
      <trkpt lat="37.1681110" lon="-3.6226030">
        <ele>641.7</ele>
        <time>2019-06-24T17:37:04Z</time>
      </trkpt>
      <trkpt lat="37.1681670" lon="-3.6225290">
        <ele>641.7</ele>
        <time>2019-06-24T17:37:05Z</time>
      </trkpt>
      <trkpt lat="37.1682240" lon="-3.6224550">
        <ele>641.7</ele>
        <time>2019-06-24T17:37:06Z</time>
      </trkpt>
      <trkpt lat="37.1682810" lon="-3.6223780">
        <ele>641.7</ele>
        <time>2019-06-24T17:37:07Z</time>
      </trkpt>
      <trkpt lat="37.1683370" lon="-3.6223000">
        <ele>641.7</ele>
        <time>2019-06-24T17:37:08Z</time>
      </trkpt>
      <trkpt lat="37.1683910" lon="-3.6222190">
        <ele>641.7</ele>
        <time>2019-06-24T17:37:09Z</time>
      </trkpt>
      <trkpt lat="37.1684450" lon="-3.6221390">
        <ele>641.6</ele>
        <time>2019-06-24T17:37:10Z</time>
      </trkpt>
      <trkpt lat="37.1685000" lon="-3.6220580">
        <ele>641.6</ele>
        <time>2019-06-24T17:37:11Z</time>
      </trkpt>
      <trkpt lat="37.1685550" lon="-3.6219770">
        <ele>641.6</ele>
        <time>2019-06-24T17:37:12Z</time>
      </trkpt>
      <trkpt lat="37.1686090" lon="-3.6218940">
        <ele>641.6</ele>
        <time>2019-06-24T17:37:13Z</time>
      </trkpt>
      <trkpt lat="37.1686640" lon="-3.6218110">
        <ele>641.6</ele>
        <time>2019-06-24T17:37:14Z</time>
      </trkpt>
      <trkpt lat="37.1687200" lon="-3.6217280">
        <ele>641.7</ele>
        <time>2019-06-24T17:37:15Z</time>
      </trkpt>
      <trkpt lat="37.1687740" lon="-3.6216430">
        <ele>641.7</ele>
        <time>2019-06-24T17:37:16Z</time>
      </trkpt>
      <trkpt lat="37.1688280" lon="-3.6215590">
        <ele>641.7</ele>
        <time>2019-06-24T17:37:17Z</time>
      </trkpt>
      <trkpt lat="37.1688840" lon="-3.6214760">
        <ele>641.8</ele>
        <time>2019-06-24T17:37:18Z</time>
      </trkpt>
      <trkpt lat="37.1689420" lon="-3.6213940">
        <ele>641.8</ele>
        <time>2019-06-24T17:37:19Z</time>
      </trkpt>
      <trkpt lat="37.1689980" lon="-3.6213120">
        <ele>641.9</ele>
        <time>2019-06-24T17:37:20Z</time>
      </trkpt>
      <trkpt lat="37.1690530" lon="-3.6212300">
        <ele>641.9</ele>
        <time>2019-06-24T17:37:21Z</time>
      </trkpt>
      <trkpt lat="37.1691070" lon="-3.6211470">
        <ele>642.0</ele>
        <time>2019-06-24T17:37:22Z</time>
      </trkpt>
      <trkpt lat="37.1691590" lon="-3.6210630">
        <ele>642.0</ele>
        <time>2019-06-24T17:37:23Z</time>
      </trkpt>
      <trkpt lat="37.1692100" lon="-3.6209780">
        <ele>642.0</ele>
        <time>2019-06-24T17:37:24Z</time>
      </trkpt>
      <trkpt lat="37.1692600" lon="-3.6208930">
        <ele>642.1</ele>
        <time>2019-06-24T17:37:25Z</time>
      </trkpt>
      <trkpt lat="37.1693060" lon="-3.6208040">
        <ele>642.2</ele>
        <time>2019-06-24T17:37:26Z</time>
      </trkpt>
      <trkpt lat="37.1693530" lon="-3.6207150">
        <ele>642.3</ele>
        <time>2019-06-24T17:37:27Z</time>
      </trkpt>
      <trkpt lat="37.1694070" lon="-3.6206280">
        <ele>642.5</ele>
        <time>2019-06-24T17:37:28Z</time>
      </trkpt>
      <trkpt lat="37.1694600" lon="-3.6205390">
        <ele>642.6</ele>
        <time>2019-06-24T17:37:29Z</time>
      </trkpt>
      <trkpt lat="37.1695090" lon="-3.6204420">
        <ele>642.7</ele>
        <time>2019-06-24T17:37:30Z</time>
      </trkpt>
      <trkpt lat="37.1695590" lon="-3.6203430">
        <ele>642.7</ele>
        <time>2019-06-24T17:37:31Z</time>
      </trkpt>
      <trkpt lat="37.1696070" lon="-3.6202450">
        <ele>642.8</ele>
        <time>2019-06-24T17:37:32Z</time>
      </trkpt>
      <trkpt lat="37.1696560" lon="-3.6201400">
        <ele>642.9</ele>
        <time>2019-06-24T17:37:33Z</time>
      </trkpt>
      <trkpt lat="37.1697020" lon="-3.6200330">
        <ele>643.1</ele>
        <time>2019-06-24T17:37:34Z</time>
      </trkpt>
      <trkpt lat="37.1697460" lon="-3.6199270">
        <ele>643.2</ele>
        <time>2019-06-24T17:37:35Z</time>
      </trkpt>
      <trkpt lat="37.1697890" lon="-3.6198190">
        <ele>643.2</ele>
        <time>2019-06-24T17:37:36Z</time>
      </trkpt>
      <trkpt lat="37.1698300" lon="-3.6197090">
        <ele>643.3</ele>
        <time>2019-06-24T17:37:37Z</time>
      </trkpt>
      <trkpt lat="37.1698670" lon="-3.6195980">
        <ele>643.3</ele>
        <time>2019-06-24T17:37:38Z</time>
      </trkpt>
      <trkpt lat="37.1699030" lon="-3.6194860">
        <ele>643.3</ele>
        <time>2019-06-24T17:37:39Z</time>
      </trkpt>
      <trkpt lat="37.1699400" lon="-3.6193740">
        <ele>643.3</ele>
        <time>2019-06-24T17:37:40Z</time>
      </trkpt>
      <trkpt lat="37.1699780" lon="-3.6192640">
        <ele>643.4</ele>
        <time>2019-06-24T17:37:41Z</time>
      </trkpt>
      <trkpt lat="37.1700190" lon="-3.6191570">
        <ele>643.4</ele>
        <time>2019-06-24T17:37:42Z</time>
      </trkpt>
      <trkpt lat="37.1700660" lon="-3.6190510">
        <ele>643.4</ele>
        <time>2019-06-24T17:37:43Z</time>
      </trkpt>
      <trkpt lat="37.1701130" lon="-3.6189480">
        <ele>643.5</ele>
        <time>2019-06-24T17:37:44Z</time>
      </trkpt>
      <trkpt lat="37.1701610" lon="-3.6188450">
        <ele>643.5</ele>
        <time>2019-06-24T17:37:45Z</time>
      </trkpt>
      <trkpt lat="37.1702070" lon="-3.6187430">
        <ele>643.7</ele>
        <time>2019-06-24T17:37:46Z</time>
      </trkpt>
      <trkpt lat="37.1702490" lon="-3.6186420">
        <ele>643.8</ele>
        <time>2019-06-24T17:37:47Z</time>
      </trkpt>
      <trkpt lat="37.1702940" lon="-3.6185420">
        <ele>644.0</ele>
        <time>2019-06-24T17:37:48Z</time>
      </trkpt>
      <trkpt lat="37.1703400" lon="-3.6184450">
        <ele>644.1</ele>
        <time>2019-06-24T17:37:49Z</time>
      </trkpt>
      <trkpt lat="37.1703710" lon="-3.6183520">
        <ele>644.3</ele>
        <time>2019-06-24T17:37:50Z</time>
      </trkpt>
      <trkpt lat="37.1704110" lon="-3.6182670">
        <ele>644.4</ele>
        <time>2019-06-24T17:37:51Z</time>
      </trkpt>
      <trkpt lat="37.1704600" lon="-3.6181810">
        <ele>644.5</ele>
        <time>2019-06-24T17:37:52Z</time>
      </trkpt>
      <trkpt lat="37.1705080" lon="-3.6180940">
        <ele>644.7</ele>
        <time>2019-06-24T17:37:53Z</time>
      </trkpt>
      <trkpt lat="37.1705590" lon="-3.6180150">
        <ele>644.9</ele>
        <time>2019-06-24T17:37:54Z</time>
      </trkpt>
      <trkpt lat="37.1706160" lon="-3.6179470">
        <ele>645.1</ele>
        <time>2019-06-24T17:37:55Z</time>
      </trkpt>
      <trkpt lat="37.1706750" lon="-3.6178840">
        <ele>645.4</ele>
        <time>2019-06-24T17:37:56Z</time>
      </trkpt>
      <trkpt lat="37.1707370" lon="-3.6178230">
        <ele>645.6</ele>
        <time>2019-06-24T17:37:57Z</time>
      </trkpt>
      <trkpt lat="37.1707980" lon="-3.6177610">
        <ele>645.9</ele>
        <time>2019-06-24T17:37:58Z</time>
      </trkpt>
      <trkpt lat="37.1708570" lon="-3.6176940">
        <ele>646.2</ele>
        <time>2019-06-24T17:37:59Z</time>
      </trkpt>
      <trkpt lat="37.1709080" lon="-3.6176230">
        <ele>646.4</ele>
        <time>2019-06-24T17:38:00Z</time>
      </trkpt>
      <trkpt lat="37.1709620" lon="-3.6175470">
        <ele>647.3</ele>
        <time>2019-06-24T17:38:01Z</time>
      </trkpt>
      <trkpt lat="37.1710150" lon="-3.6174660">
        <ele>647.7</ele>
        <time>2019-06-24T17:38:02Z</time>
      </trkpt>
      <trkpt lat="37.1710610" lon="-3.6173800">
        <ele>648.1</ele>
        <time>2019-06-24T17:38:03Z</time>
      </trkpt>
      <trkpt lat="37.1711030" lon="-3.6172900">
        <ele>648.3</ele>
        <time>2019-06-24T17:38:04Z</time>
      </trkpt>
      <trkpt lat="37.1711430" lon="-3.6171990">
        <ele>648.5</ele>
        <time>2019-06-24T17:38:05Z</time>
      </trkpt>
      <trkpt lat="37.1711810" lon="-3.6171080">
        <ele>648.6</ele>
        <time>2019-06-24T17:38:06Z</time>
      </trkpt>
      <trkpt lat="37.1712180" lon="-3.6170160">
        <ele>648.7</ele>
        <time>2019-06-24T17:38:07Z</time>
      </trkpt>
      <trkpt lat="37.1712560" lon="-3.6169250">
        <ele>648.7</ele>
        <time>2019-06-24T17:38:08Z</time>
      </trkpt>
      <trkpt lat="37.1712970" lon="-3.6168360">
        <ele>648.8</ele>
        <time>2019-06-24T17:38:09Z</time>
      </trkpt>
      <trkpt lat="37.1713400" lon="-3.6167460">
        <ele>648.9</ele>
        <time>2019-06-24T17:38:10Z</time>
      </trkpt>
      <trkpt lat="37.1713870" lon="-3.6166580">
        <ele>648.9</ele>
        <time>2019-06-24T17:38:11Z</time>
      </trkpt>
      <trkpt lat="37.1714340" lon="-3.6165720">
        <ele>649.0</ele>
        <time>2019-06-24T17:38:12Z</time>
      </trkpt>
      <trkpt lat="37.1714860" lon="-3.6164890">
        <ele>649.1</ele>
        <time>2019-06-24T17:38:13Z</time>
      </trkpt>
      <trkpt lat="37.1715370" lon="-3.6164080">
        <ele>649.2</ele>
        <time>2019-06-24T17:38:14Z</time>
      </trkpt>
      <trkpt lat="37.1715890" lon="-3.6163250">
        <ele>649.3</ele>
        <time>2019-06-24T17:38:15Z</time>
      </trkpt>
      <trkpt lat="37.1716390" lon="-3.6162410">
        <ele>649.4</ele>
        <time>2019-06-24T17:38:16Z</time>
      </trkpt>
      <trkpt lat="37.1716880" lon="-3.6161570">
        <ele>649.5</ele>
        <time>2019-06-24T17:38:17Z</time>
      </trkpt>
      <trkpt lat="37.1717380" lon="-3.6160740">
        <ele>649.7</ele>
        <time>2019-06-24T17:38:18Z</time>
      </trkpt>
      <trkpt lat="37.1717900" lon="-3.6159930">
        <ele>649.8</ele>
        <time>2019-06-24T17:38:19Z</time>
      </trkpt>
      <trkpt lat="37.1718360" lon="-3.6159110">
        <ele>649.9</ele>
        <time>2019-06-24T17:38:20Z</time>
      </trkpt>
      <trkpt lat="37.1718800" lon="-3.6158250">
        <ele>650.0</ele>
        <time>2019-06-24T17:38:21Z</time>
      </trkpt>
      <trkpt lat="37.1719190" lon="-3.6157330">
        <ele>650.2</ele>
        <time>2019-06-24T17:38:22Z</time>
      </trkpt>
      <trkpt lat="37.1719580" lon="-3.6156410">
        <ele>650.3</ele>
        <time>2019-06-24T17:38:23Z</time>
      </trkpt>
      <trkpt lat="37.1719970" lon="-3.6155500">
        <ele>650.4</ele>
        <time>2019-06-24T17:38:24Z</time>
      </trkpt>
      <trkpt lat="37.1720330" lon="-3.6154570">
        <ele>650.6</ele>
        <time>2019-06-24T17:38:25Z</time>
      </trkpt>
      <trkpt lat="37.1720680" lon="-3.6153650">
        <ele>650.7</ele>
        <time>2019-06-24T17:38:26Z</time>
      </trkpt>
      <trkpt lat="37.1721040" lon="-3.6152740">
        <ele>650.8</ele>
        <time>2019-06-24T17:38:27Z</time>
      </trkpt>
      <trkpt lat="37.1721380" lon="-3.6151840">
        <ele>650.9</ele>
        <time>2019-06-24T17:38:28Z</time>
      </trkpt>
      <trkpt lat="37.1721740" lon="-3.6150930">
        <ele>651.0</ele>
        <time>2019-06-24T17:38:29Z</time>
      </trkpt>
      <trkpt lat="37.1722120" lon="-3.6150050">
        <ele>651.2</ele>
        <time>2019-06-24T17:38:30Z</time>
      </trkpt>
      <trkpt lat="37.1722510" lon="-3.6149160">
        <ele>651.3</ele>
        <time>2019-06-24T17:38:31Z</time>
      </trkpt>
      <trkpt lat="37.1722870" lon="-3.6148260">
        <ele>651.5</ele>
        <time>2019-06-24T17:38:32Z</time>
      </trkpt>
      <trkpt lat="37.1723200" lon="-3.6147370">
        <ele>651.6</ele>
        <time>2019-06-24T17:38:33Z</time>
      </trkpt>
      <trkpt lat="37.1723540" lon="-3.6146480">
        <ele>651.7</ele>
        <time>2019-06-24T17:38:34Z</time>
      </trkpt>
      <trkpt lat="37.1723860" lon="-3.6145600">
        <ele>651.9</ele>
        <time>2019-06-24T17:38:35Z</time>
      </trkpt>
      <trkpt lat="37.1724180" lon="-3.6144710">
        <ele>652.0</ele>
        <time>2019-06-24T17:38:36Z</time>
      </trkpt>
      <trkpt lat="37.1724460" lon="-3.6143820">
        <ele>652.2</ele>
        <time>2019-06-24T17:38:37Z</time>
      </trkpt>
      <trkpt lat="37.1724710" lon="-3.6142920">
        <ele>652.4</ele>
        <time>2019-06-24T17:38:38Z</time>
      </trkpt>
      <trkpt lat="37.1724910" lon="-3.6142010">
        <ele>652.6</ele>
        <time>2019-06-24T17:38:39Z</time>
      </trkpt>
      <trkpt lat="37.1725090" lon="-3.6141110">
        <ele>652.8</ele>
        <time>2019-06-24T17:38:40Z</time>
      </trkpt>
      <trkpt lat="37.1725230" lon="-3.6140220">
        <ele>653.0</ele>
        <time>2019-06-24T17:38:41Z</time>
      </trkpt>
      <trkpt lat="37.1725130" lon="-3.6139330">
        <ele>653.2</ele>
        <time>2019-06-24T17:38:42Z</time>
      </trkpt>
      <trkpt lat="37.1725030" lon="-3.6138500">
        <ele>653.2</ele>
        <time>2019-06-24T17:38:43Z</time>
      </trkpt>
      <trkpt lat="37.1725110" lon="-3.6137850">
        <ele>653.4</ele>
        <time>2019-06-24T17:38:44Z</time>
      </trkpt>
      <trkpt lat="37.1725420" lon="-3.6137460">
        <ele>653.5</ele>
        <time>2019-06-24T17:38:45Z</time>
      </trkpt>
      <trkpt lat="37.1725860" lon="-3.6137330">
        <ele>653.4</ele>
        <time>2019-06-24T17:38:46Z</time>
      </trkpt>
      <trkpt lat="37.1726320" lon="-3.6137370">
        <ele>653.3</ele>
        <time>2019-06-24T17:38:47Z</time>
      </trkpt>
      <trkpt lat="37.1726800" lon="-3.6137330">
        <ele>653.3</ele>
        <time>2019-06-24T17:38:48Z</time>
      </trkpt>
      <trkpt lat="37.1727280" lon="-3.6137090">
        <ele>653.4</ele>
        <time>2019-06-24T17:38:49Z</time>
      </trkpt>
      <trkpt lat="37.1727810" lon="-3.6136750">
        <ele>653.5</ele>
        <time>2019-06-24T17:38:50Z</time>
      </trkpt>
      <trkpt lat="37.1728380" lon="-3.6136370">
        <ele>653.6</ele>
        <time>2019-06-24T17:38:51Z</time>
      </trkpt>
      <trkpt lat="37.1728980" lon="-3.6136010">
        <ele>653.7</ele>
        <time>2019-06-24T17:38:52Z</time>
      </trkpt>
      <trkpt lat="37.1729590" lon="-3.6135620">
        <ele>653.8</ele>
        <time>2019-06-24T17:38:53Z</time>
      </trkpt>
      <trkpt lat="37.1730190" lon="-3.6135210">
        <ele>653.8</ele>
        <time>2019-06-24T17:38:54Z</time>
      </trkpt>
      <trkpt lat="37.1730780" lon="-3.6134760">
        <ele>653.9</ele>
        <time>2019-06-24T17:38:55Z</time>
      </trkpt>
      <trkpt lat="37.1731310" lon="-3.6134300">
        <ele>654.0</ele>
        <time>2019-06-24T17:38:56Z</time>
      </trkpt>
      <trkpt lat="37.1731860" lon="-3.6133800">
        <ele>654.1</ele>
        <time>2019-06-24T17:38:57Z</time>
      </trkpt>
      <trkpt lat="37.1732430" lon="-3.6133290">
        <ele>654.2</ele>
        <time>2019-06-24T17:38:58Z</time>
      </trkpt>
      <trkpt lat="37.1733020" lon="-3.6132770">
        <ele>654.3</ele>
        <time>2019-06-24T17:38:59Z</time>
      </trkpt>
      <trkpt lat="37.1733590" lon="-3.6132230">
        <ele>654.4</ele>
        <time>2019-06-24T17:39:00Z</time>
      </trkpt>
      <trkpt lat="37.1734170" lon="-3.6131680">
        <ele>654.5</ele>
        <time>2019-06-24T17:39:01Z</time>
      </trkpt>
      <trkpt lat="37.1734740" lon="-3.6131140">
        <ele>654.6</ele>
        <time>2019-06-24T17:39:02Z</time>
      </trkpt>
      <trkpt lat="37.1735300" lon="-3.6130580">
        <ele>654.8</ele>
        <time>2019-06-24T17:39:03Z</time>
      </trkpt>
      <trkpt lat="37.1735880" lon="-3.6130030">
        <ele>654.9</ele>
        <time>2019-06-24T17:39:04Z</time>
      </trkpt>
      <trkpt lat="37.1736470" lon="-3.6129460">
        <ele>655.1</ele>
        <time>2019-06-24T17:39:05Z</time>
      </trkpt>
      <trkpt lat="37.1737060" lon="-3.6128910">
        <ele>655.2</ele>
        <time>2019-06-24T17:39:06Z</time>
      </trkpt>
      <trkpt lat="37.1737640" lon="-3.6128380">
        <ele>655.3</ele>
        <time>2019-06-24T17:39:07Z</time>
      </trkpt>
      <trkpt lat="37.1738240" lon="-3.6127850">
        <ele>655.4</ele>
        <time>2019-06-24T17:39:08Z</time>
      </trkpt>
      <trkpt lat="37.1738840" lon="-3.6127340">
        <ele>655.5</ele>
        <time>2019-06-24T17:39:09Z</time>
      </trkpt>
      <trkpt lat="37.1739470" lon="-3.6126910">
        <ele>655.6</ele>
        <time>2019-06-24T17:39:10Z</time>
      </trkpt>
      <trkpt lat="37.1740130" lon="-3.6126580">
        <ele>655.7</ele>
        <time>2019-06-24T17:39:11Z</time>
      </trkpt>
      <trkpt lat="37.1740820" lon="-3.6126420">
        <ele>655.8</ele>
        <time>2019-06-24T17:39:12Z</time>
      </trkpt>
      <trkpt lat="37.1741500" lon="-3.6126490">
        <ele>655.8</ele>
        <time>2019-06-24T17:39:13Z</time>
      </trkpt>
      <trkpt lat="37.1742160" lon="-3.6126510">
        <ele>655.9</ele>
        <time>2019-06-24T17:39:14Z</time>
      </trkpt>
      <trkpt lat="37.1742670" lon="-3.6126460">
        <ele>656.0</ele>
        <time>2019-06-24T17:39:15Z</time>
      </trkpt>
      <trkpt lat="37.1743340" lon="-3.6126140">
        <ele>656.1</ele>
        <time>2019-06-24T17:39:16Z</time>
      </trkpt>
      <trkpt lat="37.1744170" lon="-3.6125590">
        <ele>656.3</ele>
        <time>2019-06-24T17:39:17Z</time>
      </trkpt>
      <trkpt lat="37.1744520" lon="-3.6125340">
        <ele>656.3</ele>
        <time>2019-06-24T17:39:18Z</time>
      </trkpt>
      <trkpt lat="37.1744860" lon="-3.6125080">
        <ele>656.4</ele>
        <time>2019-06-24T17:39:19Z</time>
      </trkpt>
      <trkpt lat="37.1745210" lon="-3.6124830">
        <ele>656.5</ele>
        <time>2019-06-24T17:39:20Z</time>
      </trkpt>
      <trkpt lat="37.1745550" lon="-3.6124580">
        <ele>656.6</ele>
        <time>2019-06-24T17:39:21Z</time>
      </trkpt>
      <trkpt lat="37.1745900" lon="-3.6124320">
        <ele>656.8</ele>
        <time>2019-06-24T17:39:22Z</time>
      </trkpt>
      <trkpt lat="37.1746240" lon="-3.6124070">
        <ele>656.9</ele>
        <time>2019-06-24T17:39:23Z</time>
      </trkpt>
      <trkpt lat="37.1748300" lon="-3.6122540">
        <ele>657.8</ele>
        <time>2019-06-24T17:39:24Z</time>
      </trkpt>
      <trkpt lat="37.1748500" lon="-3.6122250">
        <ele>657.8</ele>
        <time>2019-06-24T17:39:25Z</time>
      </trkpt>
      <trkpt lat="37.1749080" lon="-3.6122170">
        <ele>658.1</ele>
        <time>2019-06-24T17:39:26Z</time>
      </trkpt>
      <trkpt lat="37.1749600" lon="-3.6121940">
        <ele>658.3</ele>
        <time>2019-06-24T17:39:27Z</time>
      </trkpt>
      <trkpt lat="37.1749940" lon="-3.6121530">
        <ele>658.5</ele>
        <time>2019-06-24T17:39:28Z</time>
      </trkpt>
      <trkpt lat="37.1750250" lon="-3.6121050">
        <ele>658.8</ele>
        <time>2019-06-24T17:39:29Z</time>
      </trkpt>
      <trkpt lat="37.1750570" lon="-3.6120480">
        <ele>659.0</ele>
        <time>2019-06-24T17:39:30Z</time>
      </trkpt>
      <trkpt lat="37.1750900" lon="-3.6119850">
        <ele>659.3</ele>
        <time>2019-06-24T17:39:31Z</time>
      </trkpt>
      <trkpt lat="37.1751250" lon="-3.6119240">
        <ele>659.5</ele>
        <time>2019-06-24T17:39:32Z</time>
      </trkpt>
      <trkpt lat="37.1751700" lon="-3.6118680">
        <ele>659.7</ele>
        <time>2019-06-24T17:39:33Z</time>
      </trkpt>
      <trkpt lat="37.1752170" lon="-3.6118140">
        <ele>659.9</ele>
        <time>2019-06-24T17:39:34Z</time>
      </trkpt>
      <trkpt lat="37.1752660" lon="-3.6117630">
        <ele>660.1</ele>
        <time>2019-06-24T17:39:35Z</time>
      </trkpt>
      <trkpt lat="37.1753200" lon="-3.6117150">
        <ele>660.3</ele>
        <time>2019-06-24T17:39:36Z</time>
      </trkpt>
      <trkpt lat="37.1753730" lon="-3.6116690">
        <ele>660.5</ele>
        <time>2019-06-24T17:39:37Z</time>
      </trkpt>
      <trkpt lat="37.1754240" lon="-3.6116210">
        <ele>660.7</ele>
        <time>2019-06-24T17:39:38Z</time>
      </trkpt>
      <trkpt lat="37.1754750" lon="-3.6115740">
        <ele>660.8</ele>
        <time>2019-06-24T17:39:39Z</time>
      </trkpt>
      <trkpt lat="37.1755270" lon="-3.6115280">
        <ele>661.0</ele>
        <time>2019-06-24T17:39:40Z</time>
      </trkpt>
      <trkpt lat="37.1755770" lon="-3.6114840">
        <ele>661.2</ele>
        <time>2019-06-24T17:39:41Z</time>
      </trkpt>
      <trkpt lat="37.1756210" lon="-3.6114400">
        <ele>661.3</ele>
        <time>2019-06-24T17:39:42Z</time>
      </trkpt>
      <trkpt lat="37.1756700" lon="-3.6113940">
        <ele>661.5</ele>
        <time>2019-06-24T17:39:43Z</time>
      </trkpt>
      <trkpt lat="37.1757230" lon="-3.6113500">
        <ele>661.7</ele>
        <time>2019-06-24T17:39:44Z</time>
      </trkpt>
      <trkpt lat="37.1757750" lon="-3.6113050">
        <ele>661.8</ele>
        <time>2019-06-24T17:39:45Z</time>
      </trkpt>
      <trkpt lat="37.1758260" lon="-3.6112610">
        <ele>661.9</ele>
        <time>2019-06-24T17:39:46Z</time>
      </trkpt>
      <trkpt lat="37.1758740" lon="-3.6112210">
        <ele>662.0</ele>
        <time>2019-06-24T17:39:47Z</time>
      </trkpt>
      <trkpt lat="37.1759210" lon="-3.6111810">
        <ele>662.1</ele>
        <time>2019-06-24T17:39:48Z</time>
      </trkpt>
      <trkpt lat="37.1759630" lon="-3.6111420">
        <ele>662.3</ele>
        <time>2019-06-24T17:39:49Z</time>
      </trkpt>
      <trkpt lat="37.1760000" lon="-3.6111070">
        <ele>662.6</ele>
        <time>2019-06-24T17:39:50Z</time>
      </trkpt>
      <trkpt lat="37.1760420" lon="-3.6110900">
        <ele>663.2</ele>
        <time>2019-06-24T17:39:51Z</time>
      </trkpt>
      <trkpt lat="37.1760930" lon="-3.6110890">
        <ele>663.3</ele>
        <time>2019-06-24T17:39:52Z</time>
      </trkpt>
      <trkpt lat="37.1761420" lon="-3.6111000">
        <ele>663.5</ele>
        <time>2019-06-24T17:39:53Z</time>
      </trkpt>
      <trkpt lat="37.1761970" lon="-3.6111150">
        <ele>663.7</ele>
        <time>2019-06-24T17:39:54Z</time>
      </trkpt>
      <trkpt lat="37.1762520" lon="-3.6111360">
        <ele>663.9</ele>
        <time>2019-06-24T17:39:55Z</time>
      </trkpt>
      <trkpt lat="37.1763040" lon="-3.6111560">
        <ele>664.1</ele>
        <time>2019-06-24T17:39:56Z</time>
      </trkpt>
      <trkpt lat="37.1763570" lon="-3.6111820">
        <ele>664.4</ele>
        <time>2019-06-24T17:39:57Z</time>
      </trkpt>
      <trkpt lat="37.1764090" lon="-3.6112120">
        <ele>664.6</ele>
        <time>2019-06-24T17:39:58Z</time>
      </trkpt>
      <trkpt lat="37.1764610" lon="-3.6112430">
        <ele>664.9</ele>
        <time>2019-06-24T17:39:59Z</time>
      </trkpt>
      <trkpt lat="37.1765170" lon="-3.6112740">
        <ele>665.1</ele>
        <time>2019-06-24T17:40:00Z</time>
      </trkpt>
      <trkpt lat="37.1765730" lon="-3.6113090">
        <ele>665.3</ele>
        <time>2019-06-24T17:40:01Z</time>
      </trkpt>
      <trkpt lat="37.1766270" lon="-3.6113410">
        <ele>665.5</ele>
        <time>2019-06-24T17:40:02Z</time>
      </trkpt>
      <trkpt lat="37.1766810" lon="-3.6113650">
        <ele>665.6</ele>
        <time>2019-06-24T17:40:03Z</time>
      </trkpt>
      <trkpt lat="37.1767350" lon="-3.6113980">
        <ele>665.8</ele>
        <time>2019-06-24T17:40:04Z</time>
      </trkpt>
      <trkpt lat="37.1767870" lon="-3.6114360">
        <ele>666.0</ele>
        <time>2019-06-24T17:40:05Z</time>
      </trkpt>
      <trkpt lat="37.1768400" lon="-3.6114670">
        <ele>666.1</ele>
        <time>2019-06-24T17:40:06Z</time>
      </trkpt>
      <trkpt lat="37.1768850" lon="-3.6114770">
        <ele>666.3</ele>
        <time>2019-06-24T17:40:07Z</time>
      </trkpt>
      <trkpt lat="37.1769140" lon="-3.6114550">
        <ele>666.6</ele>
        <time>2019-06-24T17:40:08Z</time>
      </trkpt>
      <trkpt lat="37.1769340" lon="-3.6114170">
        <ele>667.0</ele>
        <time>2019-06-24T17:40:09Z</time>
      </trkpt>
      <trkpt lat="37.1769530" lon="-3.6113740">
        <ele>667.3</ele>
        <time>2019-06-24T17:40:10Z</time>
      </trkpt>
      <trkpt lat="37.1769650" lon="-3.6113310">
        <ele>667.7</ele>
        <time>2019-06-24T17:40:11Z</time>
      </trkpt>
      <trkpt lat="37.1769750" lon="-3.6112860">
        <ele>668.0</ele>
        <time>2019-06-24T17:40:12Z</time>
      </trkpt>
      <trkpt lat="37.1769770" lon="-3.6112570">
        <ele>668.2</ele>
        <time>2019-06-24T17:40:13Z</time>
      </trkpt>
      <trkpt lat="37.1769780" lon="-3.6112470">
        <ele>668.2</ele>
        <time>2019-06-24T17:40:14Z</time>
      </trkpt>
    </trkseg>
  </trk>
</gpx>
